Wetterdaten: Freitag, 27.01.2017
Datum Zeit Temp. A. Feuchte A. Luftdruck Regen Wind Richtung Richtung Sonnenschein ET UV Solar Taupunkt Windchill Windben Empfang
27.01.2017 00:00 -3,8 C 80 % 1025,2 hPa 0,0 l/m 17,7 km/h (3 Bft) O-NO 67 0 min 0,000 mm 0,0 UV-I 0 W/m -6,7 C -13,3 C 25,7 km/h (4 Bft) 100,00 %
27.01.2017 00:02 -3,8 C 80 % 1025,2 hPa 0,0 l/m 15,2 km/h (3 Bft) O-NO 61 0 min 0,000 mm 0,0 UV-I 0 W/m -6,7 C -11,7 C 22,5 km/h (4 Bft) 100,00 %
27.01.2017 00:04 -3,8 C 80 % 1025,1 hPa 0,0 l/m 16,4 km/h (3 Bft) O-NO 59 0 min 0,000 mm 0,0 UV-I 0 W/m -6,7 C -12,5 C 22,5 km/h (4 Bft) 97,62 %
27.01.2017 00:06 -3,8 C 80 % 1025,2 hPa 0,0 l/m 15,5 km/h (3 Bft) NO 56 0 min 0,000 mm 0,0 UV-I 0 W/m -6,7 C -11,9 C 22,5 km/h (4 Bft) 100,00 %
27.01.2017 00:08 -3,8 C 80 % 1025,2 hPa 0,0 l/m 17,1 km/h (3 Bft) O-NO 70 0 min 0,000 mm 0,0 UV-I 0 W/m -6,7 C -12,9 C 22,5 km/h (4 Bft) 96,00 %
27.01.2017 00:10 -3,9 C 80 % 1025,1 hPa 0,0 l/m 13,9 km/h (3 Bft) O-NO 68 0 min 0,000 mm 0,0 UV-I 0 W/m -6,8 C -10,9 C 20,9 km/h (4 Bft) 98,00 %
27.01.2017 00:12 -3,9 C 80 % 1025,1 hPa 0,0 l/m 20,2 km/h (4 Bft) O-NO 67 0 min 0,000 mm 0,0 UV-I 0 W/m -6,8 C -14,8 C 30,6 km/h (5 Bft) 100,00 %
27.01.2017 00:14 -3,9 C 80 % 1025,1 hPa 0,0 l/m 20,8 km/h (4 Bft) O-NO 69 0 min 0,000 mm 0,0 UV-I 0 W/m -6,8 C -15,1 C 25,7 km/h (4 Bft) 100,00 %
27.01.2017 00:16 -3,9 C 80 % 1025,1 hPa 0,0 l/m 17,5 km/h (3 Bft) O 97 0 min 0,000 mm 0,0 UV-I 0 W/m -6,8 C -13,3 C 24,1 km/h (4 Bft) 98,21 %
27.01.2017 00:18 -3,9 C 80 % 1025,1 hPa 0,0 l/m 17,7 km/h (3 Bft) O-NO 63 0 min 0,000 mm 0,0 UV-I 0 W/m -6,8 C -13,4 C 24,1 km/h (4 Bft) 100,00 %
27.01.2017 00:20 -3,9 C 80 % 1025,2 hPa 0,0 l/m 16,5 km/h (3 Bft) O-NO 71 0 min 0,000 mm 0,0 UV-I 0 W/m -6,8 C -12,7 C 24,1 km/h (4 Bft) 98,00 %
27.01.2017 00:22 -3,9 C 80 % 1025,2 hPa 0,0 l/m 17,8 km/h (3 Bft) O-NO 61 0 min 0,000 mm 0,0 UV-I 0 W/m -6,8 C -13,5 C 27,4 km/h (4 Bft) 97,37 %
27.01.2017 00:24 -3,8 C 80 % 1025,1 hPa 0,0 l/m 16,8 km/h (3 Bft) NO 42 0 min 0,000 mm 0,0 UV-I 0 W/m -6,7 C -12,7 C 29,0 km/h (5 Bft) 96,23 %
27.01.2017 00:26 -3,8 C 80 % 1025,1 hPa 0,0 l/m 16,8 km/h (3 Bft) O-NO 64 0 min 0,000 mm 0,0 UV-I 0 W/m -6,7 C -12,7 C 22,5 km/h (4 Bft) 100,00 %
27.01.2017 00:28 -3,8 C 80 % 1025,1 hPa 0,0 l/m 16,8 km/h (3 Bft) O-NO 68 0 min 0,000 mm 0,0 UV-I 0 W/m -6,7 C -12,7 C 22,5 km/h (4 Bft) 100,00 %
27.01.2017 00:30 -3,9 C 80 % 1025,1 hPa 0,0 l/m 17,5 km/h (3 Bft) O-NO 69 0 min 0,000 mm 0,0 UV-I 0 W/m -6,8 C -13,3 C 24,1 km/h (4 Bft) 100,00 %
27.01.2017 00:32 -3,9 C 80 % 1025,1 hPa 0,0 l/m 18,5 km/h (3 Bft) O 85 0 min 0,000 mm 0,0 UV-I 0 W/m -6,8 C -13,9 C 25,7 km/h (4 Bft) 100,00 %
27.01.2017 00:34 -3,9 C 80 % 1025,1 hPa 0,0 l/m 17,7 km/h (3 Bft) NO 52 0 min 0,000 mm 0,0 UV-I 0 W/m -6,8 C -13,4 C 24,1 km/h (4 Bft) 95,45 %
27.01.2017 00:36 -3,9 C 80 % 1025,1 hPa 0,0 l/m 18,8 km/h (3 Bft) O-NO 74 0 min 0,000 mm 0,0 UV-I 0 W/m -6,8 C -14,0 C 27,4 km/h (4 Bft) 100,00 %
27.01.2017 00:38 -3,9 C 81 % 1025,0 hPa 0,0 l/m 17,6 km/h (3 Bft) O-NO 65 0 min 0,000 mm 0,0 UV-I 0 W/m -6,7 C -13,3 C 25,7 km/h (4 Bft) 100,00 %
27.01.2017 00:40 -3,9 C 80 % 1025,0 hPa 0,0 l/m 17,2 km/h (3 Bft) NO 53 0 min 0,000 mm 0,0 UV-I 0 W/m -6,8 C -13,1 C 25,7 km/h (4 Bft) 100,00 %
27.01.2017 00:42 -3,9 C 80 % 1025,0 hPa 0,0 l/m 17,8 km/h (3 Bft) O-NO 63 0 min 0,000 mm 0,0 UV-I 0 W/m -6,8 C -13,5 C 27,4 km/h (4 Bft) 100,00 %
27.01.2017 00:44 -3,9 C 80 % 1025,0 hPa 0,0 l/m 16,4 km/h (3 Bft) O-NO 69 0 min 0,000 mm 0,0 UV-I 0 W/m -6,8 C -12,6 C 24,1 km/h (4 Bft) 100,00 %
27.01.2017 00:46 -4,1 C 80 % 1024,9 hPa 0,0 l/m 15,5 km/h (3 Bft) NO 55 0 min 0,000 mm 0,0 UV-I 0 W/m -7,0 C -12,3 C 22,5 km/h (4 Bft) 97,44 %
27.01.2017 00:48 -4,1 C 81 % 1024,9 hPa 0,0 l/m 14,3 km/h (3 Bft) O 84 0 min 0,000 mm 0,0 UV-I 0 W/m -6,9 C -11,5 C 20,9 km/h (4 Bft) 96,43 %
27.01.2017 00:50 -4,1 C 81 % 1024,9 hPa 0,0 l/m 14,9 km/h (3 Bft) NO 47 0 min 0,000 mm 0,0 UV-I 0 W/m -6,9 C -11,9 C 19,3 km/h (3 Bft) 97,87 %
27.01.2017 00:52 -4,2 C 81 % 1025,0 hPa 0,0 l/m 13,9 km/h (3 Bft) O 82 0 min 0,000 mm 0,0 UV-I 0 W/m -7,0 C -11,3 C 19,3 km/h (3 Bft) 100,00 %
27.01.2017 00:54 -4,2 C 81 % 1024,9 hPa 0,0 l/m 14,7 km/h (3 Bft) O-NO 70 0 min 0,000 mm 0,0 UV-I 0 W/m -7,0 C -11,9 C 20,9 km/h (4 Bft) 100,00 %
27.01.2017 00:56 -4,2 C 81 % 1025,0 hPa 0,0 l/m 15,7 km/h (3 Bft) O-NO 75 0 min 0,000 mm 0,0 UV-I 0 W/m -7,0 C -12,5 C 22,5 km/h (4 Bft) 100,00 %
27.01.2017 00:58 -4,2 C 81 % 1024,9 hPa 0,0 l/m 17,2 km/h (3 Bft) O-NO 77 0 min 0,000 mm 0,0 UV-I 0 W/m -7,0 C -13,5 C 24,1 km/h (4 Bft) 98,00 %
27.01.2017 01:00 -4,2 C 81 % 1024,9 hPa 0,0 l/m 16,0 km/h (3 Bft) O-NO 69 0 min 0,000 mm 0,0 UV-I 0 W/m -7,0 C -12,7 C 22,5 km/h (4 Bft) 100,00 %
27.01.2017 01:02 -4,2 C 81 % 1024,8 hPa 0,0 l/m 18,2 km/h (3 Bft) O-NO 66 0 min 0,025 mm 0,0 UV-I 0 W/m -7,0 C -14,1 C 25,7 km/h (4 Bft) 94,34 %
27.01.2017 01:04 -4,2 C 81 % 1024,8 hPa 0,0 l/m 16,7 km/h (3 Bft) O-NO 74 0 min 0,000 mm 0,0 UV-I 0 W/m -7,0 C -13,2 C 22,5 km/h (4 Bft) 94,74 %
27.01.2017 01:06 -4,2 C 81 % 1024,8 hPa 0,0 l/m 13,8 km/h (3 Bft) O 94 0 min 0,000 mm 0,0 UV-I 0 W/m -7,0 C -11,2 C 17,7 km/h (3 Bft) 98,00 %
27.01.2017 01:08 -4,3 C 81 % 1024,9 hPa 0,0 l/m 14,6 km/h (3 Bft) O-SO 103 0 min 0,000 mm 0,0 UV-I 0 W/m -7,1 C -11,9 C 19,3 km/h (3 Bft) 100,00 %
27.01.2017 01:10 -4,3 C 81 % 1024,8 hPa 0,0 l/m 14,6 km/h (3 Bft) O 89 0 min 0,000 mm 0,0 UV-I 0 W/m -7,1 C -11,9 C 19,3 km/h (3 Bft) 100,00 %
27.01.2017 01:12 -4,3 C 82 % 1024,9 hPa 0,0 l/m 12,6 km/h (3 Bft) O 79 0 min 0,000 mm 0,0 UV-I 0 W/m -6,9 C -10,4 C 19,3 km/h (3 Bft) 97,73 %
27.01.2017 01:14 -4,3 C 82 % 1024,9 hPa 0,0 l/m 14,8 km/h (3 Bft) O 87 0 min 0,000 mm 0,0 UV-I 0 W/m -6,9 C -12,1 C 19,3 km/h (3 Bft) 98,21 %
27.01.2017 01:16 -4,3 C 82 % 1024,9 hPa 0,0 l/m 14,2 km/h (3 Bft) O-NO 69 0 min 0,000 mm 0,0 UV-I 0 W/m -6,9 C -11,6 C 19,3 km/h (3 Bft) 92,11 %
27.01.2017 01:18 -4,3 C 82 % 1024,9 hPa 0,0 l/m 17,1 km/h (3 Bft) O-NO 76 0 min 0,000 mm 0,0 UV-I 0 W/m -6,9 C -13,5 C 22,5 km/h (4 Bft) 94,64 %
27.01.2017 01:20 -4,3 C 82 % 1024,9 hPa 0,0 l/m 15,7 km/h (3 Bft) O-NO 73 0 min 0,000 mm 0,0 UV-I 0 W/m -6,9 C -12,7 C 20,9 km/h (4 Bft) 100,00 %
27.01.2017 01:22 -4,3 C 82 % 1024,9 hPa 0,0 l/m 18,3 km/h (3 Bft) O-NO 76 0 min 0,000 mm 0,0 UV-I 0 W/m -6,9 C -14,3 C 25,7 km/h (4 Bft) 96,77 %
27.01.2017 01:24 -4,3 C 82 % 1024,9 hPa 0,0 l/m 19,0 km/h (3 Bft) O-NO 69 0 min 0,000 mm 0,0 UV-I 0 W/m -6,9 C -14,6 C 27,4 km/h (4 Bft) 100,00 %
27.01.2017 01:26 -4,3 C 82 % 1024,9 hPa 0,0 l/m 17,6 km/h (3 Bft) O-NO 75 0 min 0,000 mm 0,0 UV-I 0 W/m -6,9 C -13,8 C 22,5 km/h (4 Bft) 96,61 %
27.01.2017 01:28 -4,3 C 82 % 1024,8 hPa 0,0 l/m 16,2 km/h (3 Bft) O-NO 65 0 min 0,000 mm 0,0 UV-I 0 W/m -6,9 C -13,0 C 24,1 km/h (4 Bft) 97,73 %
27.01.2017 01:30 -4,3 C 82 % 1024,9 hPa 0,0 l/m 16,7 km/h (3 Bft) O-NO 65 0 min 0,000 mm 0,0 UV-I 0 W/m -6,9 C -13,3 C 22,5 km/h (4 Bft) 98,11 %
27.01.2017 01:32 -4,3 C 82 % 1024,9 hPa 0,0 l/m 15,6 km/h (3 Bft) O 89 0 min 0,000 mm 0,0 UV-I 0 W/m -6,9 C -12,6 C 19,3 km/h (3 Bft) 95,12 %
27.01.2017 01:34 -4,3 C 82 % 1024,8 hPa 0,0 l/m 16,0 km/h (3 Bft) O 98 0 min 0,000 mm 0,0 UV-I 0 W/m -6,9 C -12,9 C 22,5 km/h (4 Bft) 94,00 %
27.01.2017 01:36 -4,3 C 82 % 1024,9 hPa 0,0 l/m 18,0 km/h (3 Bft) O-NO 76 0 min 0,000 mm 0,0 UV-I 0 W/m -6,9 C -14,1 C 27,4 km/h (4 Bft) 95,74 %
27.01.2017 01:38 -4,3 C 82 % 1024,9 hPa 0,0 l/m 16,1 km/h (3 Bft) O-NO 74 0 min 0,000 mm 0,0 UV-I 0 W/m -6,9 C -12,9 C 22,5 km/h (4 Bft) 95,12 %
27.01.2017 01:40 -4,3 C 82 % 1024,9 hPa 0,0 l/m 16,6 km/h (3 Bft) O 81 0 min 0,000 mm 0,0 UV-I 0 W/m -6,9 C -13,2 C 25,7 km/h (4 Bft) 94,00 %
27.01.2017 01:42 -4,3 C 82 % 1024,9 hPa 0,0 l/m 16,3 km/h (3 Bft) O 88 0 min 0,000 mm 0,0 UV-I 0 W/m -6,9 C -13,0 C 22,5 km/h (4 Bft) 97,56 %
27.01.2017 01:44 -4,3 C 82 % 1024,9 hPa 0,0 l/m 17,6 km/h (3 Bft) O-SO 105 0 min 0,000 mm 0,0 UV-I 0 W/m -6,9 C -13,8 C 22,5 km/h (4 Bft) 98,11 %
27.01.2017 01:46 -4,3 C 82 % 1024,9 hPa 0,0 l/m 17,2 km/h (3 Bft) O-NO 73 0 min 0,000 mm 0,0 UV-I 0 W/m -6,9 C -13,6 C 24,1 km/h (4 Bft) 95,12 %
27.01.2017 01:48 -4,3 C 82 % 1024,9 hPa 0,0 l/m 15,8 km/h (3 Bft) O 84 0 min 0,000 mm 0,0 UV-I 0 W/m -6,9 C -12,7 C 24,1 km/h (4 Bft) 96,23 %
27.01.2017 01:50 -4,3 C 82 % 1024,9 hPa 0,0 l/m 16,6 km/h (3 Bft) O-NO 67 0 min 0,000 mm 0,0 UV-I 0 W/m -6,9 C -13,2 C 24,1 km/h (4 Bft) 97,87 %
27.01.2017 01:52 -4,3 C 82 % 1024,9 hPa 0,0 l/m 15,8 km/h (3 Bft) O 94 0 min 0,000 mm 0,0 UV-I 0 W/m -6,9 C -12,7 C 22,5 km/h (4 Bft) 100,00 %
27.01.2017 01:54 -4,3 C 82 % 1024,9 hPa 0,0 l/m 13,1 km/h (3 Bft) O 80 0 min 0,000 mm 0,0 UV-I 0 W/m -6,9 C -10,8 C 19,3 km/h (3 Bft) 100,00 %
27.01.2017 01:56 -4,4 C 82 % 1024,9 hPa 0,0 l/m 16,0 km/h (3 Bft) O-NO 63 0 min 0,000 mm 0,0 UV-I 0 W/m -7,0 C -13,0 C 22,5 km/h (4 Bft) 98,21 %
27.01.2017 01:58 -4,4 C 82 % 1024,9 hPa 0,0 l/m 13,2 km/h (3 Bft) O-SO 111 0 min 0,000 mm 0,0 UV-I 0 W/m -7,0 C -11,0 C 19,3 km/h (3 Bft) 100,00 %
27.01.2017 02:00 -4,4 C 82 % 1024,9 hPa 0,0 l/m 14,0 km/h (3 Bft) O-NO 59 0 min 0,026 mm 0,0 UV-I 0 W/m -7,0 C -11,6 C 22,5 km/h (4 Bft) 97,56 %
27.01.2017 02:02 -4,5 C 82 % 1024,9 hPa 0,0 l/m 12,2 km/h (2 Bft) O 94 0 min 0,000 mm 0,0 UV-I 0 W/m -7,1 C -10,3 C 20,9 km/h (4 Bft) 98,15 %
27.01.2017 02:04 -4,5 C 82 % 1024,9 hPa 0,0 l/m 12,1 km/h (2 Bft) NO 55 0 min 0,000 mm 0,0 UV-I 0 W/m -7,1 C -10,3 C 19,3 km/h (3 Bft) 100,00 %
27.01.2017 02:06 -4,5 C 82 % 1024,9 hPa 0,0 l/m 13,5 km/h (3 Bft) O-NO 57 0 min 0,000 mm 0,0 UV-I 0 W/m -7,1 C -11,4 C 20,9 km/h (4 Bft) 100,00 %
27.01.2017 02:08 -4,5 C 82 % 1024,9 hPa 0,0 l/m 13,2 km/h (3 Bft) O-NO 58 0 min 0,000 mm 0,0 UV-I 0 W/m -7,1 C -11,1 C 16,1 km/h (3 Bft) 100,00 %
27.01.2017 02:10 -4,5 C 82 % 1024,9 hPa 0,0 l/m 16,2 km/h (3 Bft) O-NO 65 0 min 0,000 mm 0,0 UV-I 0 W/m -7,1 C -13,2 C 22,5 km/h (4 Bft) 94,00 %
27.01.2017 02:12 -4,5 C 82 % 1024,9 hPa 0,0 l/m 13,5 km/h (3 Bft) O-NO 78 0 min 0,000 mm 0,0 UV-I 0 W/m -7,1 C -11,4 C 20,9 km/h (4 Bft) 100,00 %
27.01.2017 02:14 -4,5 C 82 % 1025,0 hPa 0,0 l/m 12,3 km/h (3 Bft) O-NO 78 0 min 0,000 mm 0,0 UV-I 0 W/m -7,1 C -10,4 C 16,1 km/h (3 Bft) 97,37 %
27.01.2017 02:16 -4,6 C 82 % 1025,0 hPa 0,0 l/m 5,8 km/h (2 Bft) O-SO 102 0 min 0,000 mm 0,0 UV-I 0 W/m -7,2 C -4,6 C 9,7 km/h (2 Bft) 100,00 %
27.01.2017 02:18 -4,7 C 82 % 1025,0 hPa 0,0 l/m 9,4 km/h (2 Bft) O 88 0 min 0,000 mm 0,0 UV-I 0 W/m -7,3 C -8,1 C 12,9 km/h (3 Bft) 100,00 %
27.01.2017 02:20 -4,7 C 83 % 1025,0 hPa 0,0 l/m 11,6 km/h (2 Bft) O 86 0 min 0,000 mm 0,0 UV-I 0 W/m -7,1 C -10,1 C 17,7 km/h (3 Bft) 98,00 %
27.01.2017 02:22 -4,7 C 83 % 1024,9 hPa 0,0 l/m 12,3 km/h (3 Bft) O 84 0 min 0,000 mm 0,0 UV-I 0 W/m -7,1 C -10,7 C 17,7 km/h (3 Bft) 100,00 %
27.01.2017 02:24 -4,7 C 83 % 1024,9 hPa 0,0 l/m 11,8 km/h (2 Bft) O-NO 66 0 min 0,000 mm 0,0 UV-I 0 W/m -7,1 C -10,2 C 16,1 km/h (3 Bft) 100,00 %
27.01.2017 02:26 -4,7 C 83 % 1024,9 hPa 0,0 l/m 12,2 km/h (2 Bft) O-NO 71 0 min 0,000 mm 0,0 UV-I 0 W/m -7,1 C -10,6 C 17,7 km/h (3 Bft) 100,00 %
27.01.2017 02:28 -4,8 C 83 % 1024,9 hPa 0,0 l/m 11,1 km/h (2 Bft) O 88 0 min 0,000 mm 0,0 UV-I 0 W/m -7,2 C -9,8 C 14,5 km/h (3 Bft) 100,00 %
27.01.2017 02:30 -4,8 C 83 % 1024,8 hPa 0,0 l/m 9,2 km/h (2 Bft) O-NO 63 0 min 0,000 mm 0,0 UV-I 0 W/m -7,2 C -8,0 C 14,5 km/h (3 Bft) 97,56 %
27.01.2017 02:32 -4,8 C 83 % 1024,9 hPa 0,0 l/m 11,4 km/h (2 Bft) O-NO 63 0 min 0,000 mm 0,0 UV-I 0 W/m -7,2 C -10,0 C 16,1 km/h (3 Bft) 100,00 %
27.01.2017 02:34 -4,9 C 83 % 1024,9 hPa 0,0 l/m 11,3 km/h (2 Bft) O 101 0 min 0,000 mm 0,0 UV-I 0 W/m -7,3 C -10,0 C 16,1 km/h (3 Bft) 100,00 %
27.01.2017 02:36 -4,8 C 83 % 1024,9 hPa 0,0 l/m 12,1 km/h (2 Bft) O 88 0 min 0,000 mm 0,0 UV-I 0 W/m -7,2 C -10,6 C 17,7 km/h (3 Bft) 98,00 %
27.01.2017 02:38 -4,8 C 83 % 1024,9 hPa 0,0 l/m 10,8 km/h (2 Bft) O-NO 74 0 min 0,000 mm 0,0 UV-I 0 W/m -7,2 C -9,5 C 14,5 km/h (3 Bft) 100,00 %
27.01.2017 02:40 -4,9 C 83 % 1024,9 hPa 0,0 l/m 14,0 km/h (3 Bft) O 84 0 min 0,000 mm 0,0 UV-I 0 W/m -7,3 C -12,2 C 17,7 km/h (3 Bft) 100,00 %
27.01.2017 02:42 -4,9 C 83 % 1024,9 hPa 0,0 l/m 8,6 km/h (2 Bft) O-NO 65 0 min 0,000 mm 0,0 UV-I 0 W/m -7,3 C -7,4 C 14,5 km/h (3 Bft) 97,73 %
27.01.2017 02:44 -4,9 C 83 % 1025,0 hPa 0,0 l/m 10,8 km/h (2 Bft) O-NO 78 0 min 0,000 mm 0,0 UV-I 0 W/m -7,3 C -9,6 C 16,1 km/h (3 Bft) 100,00 %
27.01.2017 02:46 -4,9 C 83 % 1025,0 hPa 0,0 l/m 8,0 km/h (2 Bft) O-SO 119 0 min 0,000 mm 0,0 UV-I 0 W/m -7,3 C -6,8 C 14,5 km/h (3 Bft) 97,73 %
27.01.2017 02:48 -4,9 C 83 % 1025,0 hPa 0,0 l/m 6,4 km/h (2 Bft) O 88 0 min 0,000 mm 0,0 UV-I 0 W/m -7,3 C -4,8 C 11,3 km/h (2 Bft) 98,00 %
27.01.2017 02:50 -5,1 C 83 % 1025,0 hPa 0,0 l/m 5,1 km/h (1 Bft) O 96 0 min 0,000 mm 0,0 UV-I 0 W/m -7,5 C -5,1 C 8,0 km/h (2 Bft) 100,00 %
27.01.2017 02:52 -5,1 C 84 % 1025,0 hPa 0,0 l/m 6,6 km/h (2 Bft) O-NO 74 0 min 0,000 mm 0,0 UV-I 0 W/m -7,4 C -5,3 C 12,9 km/h (3 Bft) 100,00 %
27.01.2017 02:54 -5,1 C 84 % 1024,9 hPa 0,0 l/m 10,1 km/h (2 Bft) O-NO 73 0 min 0,000 mm 0,0 UV-I 0 W/m -7,4 C -9,2 C 12,9 km/h (3 Bft) 97,73 %
27.01.2017 02:56 -5,1 C 84 % 1024,9 hPa 0,0 l/m 8,1 km/h (2 Bft) O-NO 68 0 min 0,000 mm 0,0 UV-I 0 W/m -7,4 C -7,1 C 11,3 km/h (2 Bft) 98,11 %
27.01.2017 02:58 -5,1 C 84 % 1024,9 hPa 0,0 l/m 8,6 km/h (2 Bft) O-NO 74 0 min 0,000 mm 0,0 UV-I 0 W/m -7,4 C -7,7 C 12,9 km/h (3 Bft) 100,00 %
27.01.2017 03:00 -5,1 C 84 % 1024,9 hPa 0,0 l/m 9,1 km/h (2 Bft) O 86 0 min 0,000 mm 0,0 UV-I 0 W/m -7,4 C -8,2 C 12,9 km/h (3 Bft) 100,00 %
27.01.2017 03:02 -5,1 C 84 % 1024,9 hPa 0,0 l/m 7,7 km/h (2 Bft) O-NO 78 0 min 0,000 mm 0,0 UV-I 0 W/m -7,4 C -6,7 C 14,5 km/h (3 Bft) 97,56 %
27.01.2017 03:04 -5,1 C 84 % 1024,9 hPa 0,0 l/m 9,3 km/h (2 Bft) O 82 0 min 0,000 mm 0,0 UV-I 0 W/m -7,4 C -8,4 C 12,9 km/h (3 Bft) 98,00 %
27.01.2017 03:06 -5,2 C 84 % 1024,9 hPa 0,0 l/m 9,7 km/h (2 Bft) O-NO 71 0 min 0,000 mm 0,0 UV-I 0 W/m -7,5 C -8,9 C 14,5 km/h (3 Bft) 100,00 %
27.01.2017 03:08 -5,2 C 84 % 1025,0 hPa 0,0 l/m 9,4 km/h (2 Bft) O 93 0 min 0,000 mm 0,0 UV-I 0 W/m -7,5 C -8,6 C 12,9 km/h (3 Bft) 95,12 %
27.01.2017 03:10 -5,3 C 84 % 1025,0 hPa 0,0 l/m 7,4 km/h (2 Bft) O 91 0 min 0,000 mm 0,0 UV-I 0 W/m -7,6 C -6,5 C 11,3 km/h (2 Bft) 100,00 %
27.01.2017 03:12 -5,3 C 84 % 1025,0 hPa 0,0 l/m 6,5 km/h (2 Bft) O-NO 77 0 min 0,000 mm 0,0 UV-I 0 W/m -7,6 C -5,4 C 8,0 km/h (2 Bft) 100,00 %
27.01.2017 03:14 -5,4 C 84 % 1024,9 hPa 0,0 l/m 6,4 km/h (2 Bft) O-NO 66 0 min 0,000 mm 0,0 UV-I 0 W/m -7,7 C -5,3 C 11,3 km/h (2 Bft) 100,00 %
27.01.2017 03:16 -5,4 C 85 % 1025,0 hPa 0,0 l/m 8,8 km/h (2 Bft) O-SO 107 0 min 0,000 mm 0,0 UV-I 0 W/m -7,5 C -8,2 C 12,9 km/h (3 Bft) 97,56 %
27.01.2017 03:18 -5,4 C 84 % 1025,0 hPa 0,0 l/m 7,4 km/h (2 Bft) O-NO 74 0 min 0,000 mm 0,0 UV-I 0 W/m -7,7 C -6,6 C 11,3 km/h (2 Bft) 100,00 %
27.01.2017 03:20 -5,4 C 85 % 1025,0 hPa 0,0 l/m 7,8 km/h (2 Bft) O 79 0 min 0,000 mm 0,0 UV-I 0 W/m -7,5 C -7,1 C 11,3 km/h (2 Bft) 100,00 %
27.01.2017 03:22 -5,4 C 85 % 1025,0 hPa 0,0 l/m 7,4 km/h (2 Bft) O 100 0 min 0,000 mm 0,0 UV-I 0 W/m -7,5 C -6,6 C 11,3 km/h (2 Bft) 100,00 %
27.01.2017 03:24 -5,5 C 85 % 1024,9 hPa 0,0 l/m 6,5 km/h (2 Bft) O-NO 64 0 min 0,000 mm 0,0 UV-I 0 W/m -7,6 C -5,6 C 12,9 km/h (3 Bft) 100,00 %
27.01.2017 03:26 -5,6 C 85 % 1024,9 hPa 0,0 l/m 14,3 km/h (3 Bft) O-NO 66 0 min 0,000 mm 0,0 UV-I 0 W/m -7,7 C -13,3 C 17,7 km/h (3 Bft) 97,78 %
27.01.2017 03:28 -5,5 C 85 % 1024,9 hPa 0,0 l/m 13,2 km/h (3 Bft) O 84 0 min 0,000 mm 0,0 UV-I 0 W/m -7,6 C -12,3 C 17,7 km/h (3 Bft) 97,73 %
27.01.2017 03:30 -5,4 C 85 % 1024,9 hPa 0,0 l/m 9,8 km/h (2 Bft) O-NO 69 0 min 0,000 mm 0,0 UV-I 0 W/m -7,5 C -9,2 C 14,5 km/h (3 Bft) 96,23 %
27.01.2017 03:32 -5,4 C 85 % 1024,9 hPa 0,0 l/m 8,6 km/h (2 Bft) O-NO 71 0 min 0,000 mm 0,0 UV-I 0 W/m -7,5 C -8,0 C 16,1 km/h (3 Bft) 94,74 %
27.01.2017 03:34 -5,5 C 85 % 1025,0 hPa 0,0 l/m 6,8 km/h (2 Bft) O 92 0 min 0,000 mm 0,0 UV-I 0 W/m -7,6 C -6,0 C 11,3 km/h (2 Bft) 96,00 %
27.01.2017 03:36 -5,5 C 85 % 1024,9 hPa 0,0 l/m 8,3 km/h (2 Bft) O 95 0 min 0,000 mm 0,0 UV-I 0 W/m -7,6 C -7,8 C 12,9 km/h (3 Bft) 97,87 %
27.01.2017 03:38 -5,6 C 85 % 1025,0 hPa 0,0 l/m 7,5 km/h (2 Bft) O-NO 65 0 min 0,000 mm 0,0 UV-I 0 W/m -7,7 C -6,9 C 12,9 km/h (3 Bft) 98,00 %
27.01.2017 03:40 -5,6 C 85 % 1025,0 hPa 0,0 l/m 9,0 km/h (2 Bft) O 81 0 min 0,000 mm 0,0 UV-I 0 W/m -7,7 C -8,6 C 12,9 km/h (3 Bft) 95,45 %
27.01.2017 03:42 -5,7 C 85 % 1024,9 hPa 0,0 l/m 9,6 km/h (2 Bft) O-NO 78 0 min 0,000 mm 0,0 UV-I 0 W/m -7,8 C -9,3 C 14,5 km/h (3 Bft) 95,74 %
27.01.2017 03:44 -5,7 C 85 % 1025,0 hPa 0,0 l/m 7,1 km/h (2 Bft) O-NO 73 0 min 0,000 mm 0,0 UV-I 0 W/m -7,8 C -6,6 C 12,9 km/h (3 Bft) 95,12 %
27.01.2017 03:46 -5,8 C 85 % 1025,0 hPa 0,0 l/m 7,1 km/h (2 Bft) O 98 0 min 0,000 mm 0,0 UV-I 0 W/m -7,9 C -6,7 C 12,9 km/h (3 Bft) 98,00 %
27.01.2017 03:48 -5,8 C 85 % 1025,0 hPa 0,0 l/m 7,4 km/h (2 Bft) O 98 0 min 0,000 mm 0,0 UV-I 0 W/m -7,9 C -7,0 C 12,9 km/h (3 Bft) 93,62 %
27.01.2017 03:50 -5,8 C 85 % 1025,0 hPa 0,0 l/m 5,7 km/h (1 Bft) O-NO 67 0 min 0,000 mm 0,0 UV-I 0 W/m -7,9 C -5,8 C 12,9 km/h (3 Bft) 96,00 %
27.01.2017 03:52 -5,8 C 86 % 1025,0 hPa 0,0 l/m 5,3 km/h (1 Bft) O-NO 74 0 min 0,000 mm 0,0 UV-I 0 W/m -7,8 C -5,8 C 8,0 km/h (2 Bft) 96,23 %
27.01.2017 03:54 -6,0 C 85 % 1025,0 hPa 0,0 l/m 4,5 km/h (1 Bft) O-SO 102 0 min 0,000 mm 0,0 UV-I 0 W/m -8,1 C -6,0 C 6,4 km/h (2 Bft) 91,43 %
27.01.2017 03:56 -6,1 C 85 % 1025,0 hPa 0,0 l/m 3,3 km/h (1 Bft) O-NO 69 0 min 0,000 mm 0,0 UV-I 0 W/m -8,2 C -6,1 C 6,4 km/h (2 Bft) 98,11 %
27.01.2017 03:58 -6,1 C 86 % 1025,0 hPa 0,0 l/m 6,7 km/h (2 Bft) O-NO 59 0 min 0,000 mm 0,0 UV-I 0 W/m -8,0 C -6,4 C 11,3 km/h (2 Bft) 97,56 %
27.01.2017 04:00 -6,0 C 87 % 1025,0 hPa 0,0 l/m 8,0 km/h (2 Bft) O-NO 75 0 min 0,000 mm 0,0 UV-I 0 W/m -7,8 C -7,9 C 12,9 km/h (3 Bft) 96,43 %
27.01.2017 04:02 -5,9 C 87 % 1025,1 hPa 0,0 l/m 6,8 km/h (2 Bft) O-NO 65 0 min 0,000 mm 0,0 UV-I 0 W/m -7,7 C -6,4 C 11,3 km/h (2 Bft) 94,74 %
27.01.2017 04:04 -5,9 C 86 % 1025,1 hPa 0,0 l/m 6,5 km/h (2 Bft) O 96 0 min 0,000 mm 0,0 UV-I 0 W/m -7,9 C -6,0 C 11,3 km/h (2 Bft) 97,44 %
27.01.2017 04:06 -5,9 C 86 % 1025,1 hPa 0,0 l/m 5,2 km/h (1 Bft) O 88 0 min 0,000 mm 0,0 UV-I 0 W/m -7,9 C -5,9 C 11,3 km/h (2 Bft) 100,00 %
27.01.2017 04:08 -6,0 C 86 % 1025,1 hPa 0,0 l/m 3,8 km/h (1 Bft) O-NO 63 0 min 0,000 mm 0,0 UV-I 0 W/m -8,0 C -6,0 C 6,4 km/h (2 Bft) 100,00 %
27.01.2017 04:10 -6,2 C 86 % 1025,1 hPa 0,0 l/m 2,4 km/h (1 Bft) O-NO 63 0 min 0,000 mm 0,0 UV-I 0 W/m -8,1 C -6,2 C 4,8 km/h (1 Bft) 97,44 %
27.01.2017 04:12 -6,3 C 86 % 1025,1 hPa 0,0 l/m 4,3 km/h (1 Bft) O-NO 69 0 min 0,000 mm 0,0 UV-I 0 W/m -8,2 C -6,3 C 6,4 km/h (2 Bft) 100,00 %
27.01.2017 04:14 -6,4 C 86 % 1025,1 hPa 0,0 l/m 5,3 km/h (1 Bft) O-NO 78 0 min 0,000 mm 0,0 UV-I 0 W/m -8,3 C -6,4 C 8,0 km/h (2 Bft) 100,00 %
27.01.2017 04:16 -6,5 C 86 % 1025,0 hPa 0,0 l/m 5,3 km/h (1 Bft) O 90 0 min 0,000 mm 0,0 UV-I 0 W/m -8,4 C -6,5 C 9,7 km/h (2 Bft) 100,00 %
27.01.2017 04:18 -6,7 C 86 % 1025,0 hPa 0,0 l/m 3,2 km/h (1 Bft) O 89 0 min 0,000 mm 0,0 UV-I 0 W/m -8,6 C -6,7 C 6,4 km/h (2 Bft) 100,00 %
27.01.2017 04:20 -6,8 C 87 % 1025,1 hPa 0,0 l/m 2,5 km/h (1 Bft) O 97 0 min 0,000 mm 0,0 UV-I 0 W/m -8,6 C -6,8 C 4,8 km/h (1 Bft) 98,00 %
27.01.2017 04:22 -6,8 C 88 % 1025,2 hPa 0,0 l/m 2,5 km/h (1 Bft) O-SO 106 0 min 0,000 mm 0,0 UV-I 0 W/m -8,4 C -6,8 C 4,8 km/h (1 Bft) 98,00 %
27.01.2017 04:24 -7,0 C 87 % 1025,2 hPa 0,0 l/m 2,5 km/h (1 Bft) O-SO 105 0 min 0,000 mm 0,0 UV-I 0 W/m -8,8 C -7,0 C 6,4 km/h (2 Bft) 100,00 %
27.01.2017 04:26 -7,3 C 85 % 1025,2 hPa 0,0 l/m 3,4 km/h (1 Bft) O 99 0 min 0,000 mm 0,0 UV-I 0 W/m -9,4 C -7,3 C 6,4 km/h (2 Bft) 100,00 %
27.01.2017 04:28 -7,9 C 85 % 1025,2 hPa 0,0 l/m 1,9 km/h (1 Bft) O 99 0 min 0,000 mm 0,0 UV-I 0 W/m -10,0 C -7,9 C 4,8 km/h (1 Bft) 100,00 %
27.01.2017 04:30 -8,3 C 86 % 1025,2 hPa 0,0 l/m 3,1 km/h (1 Bft) O-SO 106 0 min 0,000 mm 0,0 UV-I 0 W/m -10,2 C -8,3 C 4,8 km/h (1 Bft) 100,00 %
27.01.2017 04:32 -8,7 C 86 % 1025,2 hPa 0,0 l/m 3,6 km/h (1 Bft) O-SO 113 0 min 0,000 mm 0,0 UV-I 0 W/m -10,6 C -8,7 C 6,4 km/h (2 Bft) 100,00 %
27.01.2017 04:34 -8,8 C 87 % 1025,2 hPa 0,0 l/m 3,9 km/h (1 Bft) O-SO 103 0 min 0,000 mm 0,0 UV-I 0 W/m -10,6 C -8,8 C 4,8 km/h (1 Bft) 95,74 %
27.01.2017 04:36 -8,8 C 88 % 1025,2 hPa 0,0 l/m 3,4 km/h (1 Bft) O 88 0 min 0,000 mm 0,0 UV-I 0 W/m -10,4 C -8,8 C 4,8 km/h (1 Bft) 100,00 %
27.01.2017 04:38 -8,6 C 89 % 1025,2 hPa 0,0 l/m 4,2 km/h (1 Bft) O 80 0 min 0,000 mm 0,0 UV-I 0 W/m -10,1 C -8,6 C 6,4 km/h (2 Bft) 100,00 %
27.01.2017 04:40 -8,3 C 90 % 1025,2 hPa 0,0 l/m 4,2 km/h (1 Bft) O 90 0 min 0,000 mm 0,0 UV-I 0 W/m -9,6 C -8,3 C 6,4 km/h (2 Bft) 100,00 %
27.01.2017 04:42 -8,1 C 90 % 1025,2 hPa 0,0 l/m 5,4 km/h (1 Bft) O 94 0 min 0,000 mm 0,0 UV-I 0 W/m -9,4 C -8,1 C 11,3 km/h (2 Bft) 94,00 %
27.01.2017 04:44 -7,8 C 91 % 1025,1 hPa 0,0 l/m 5,7 km/h (1 Bft) O-NO 59 0 min 0,000 mm 0,0 UV-I 0 W/m -9,0 C -7,8 C 9,7 km/h (2 Bft) 100,00 %
27.01.2017 04:46 -7,9 C 90 % 1025,1 hPa 0,0 l/m 2,6 km/h (1 Bft) O-NO 68 0 min 0,000 mm 0,0 UV-I 0 W/m -9,2 C -7,9 C 6,4 km/h (2 Bft) 100,00 %
27.01.2017 04:48 -8,5 C 87 % 1025,1 hPa 0,0 l/m 0,1 km/h (0 Bft) O-NO 68 0 min 0,000 mm 0,0 UV-I 0 W/m -10,3 C -8,5 C 1,6 km/h (1 Bft) 100,00 %
27.01.2017 04:50 -9,2 C 85 % 1025,1 hPa 0,0 l/m 1,7 km/h (1 Bft) O-NO 68 0 min 0,000 mm 0,0 UV-I 0 W/m -11,2 C -9,2 C 3,2 km/h (1 Bft) 100,00 %
27.01.2017 04:52 -9,7 C 86 % 1025,1 hPa 0,0 l/m 4,4 km/h (1 Bft) O-NO 69 0 min 0,000 mm 0,0 UV-I 0 W/m -11,6 C -9,7 C 6,4 km/h (2 Bft) 100,00 %
27.01.2017 04:54 -9,6 C 88 % 1025,1 hPa 0,0 l/m 7,0 km/h (2 Bft) O 80 0 min 0,000 mm 0,0 UV-I 0 W/m -11,2 C -10,4 C 11,3 km/h (2 Bft) 98,11 %
27.01.2017 04:56 -8,9 C 92 % 1025,0 hPa 0,0 l/m 7,7 km/h (2 Bft) O 82 0 min 0,000 mm 0,0 UV-I 0 W/m -10,0 C -10,6 C 12,9 km/h (3 Bft) 100,00 %
27.01.2017 04:58 -8,2 C 93 % 1025,1 hPa 0,0 l/m 7,0 km/h (2 Bft) O-NO 69 0 min 0,000 mm 0,0 UV-I 0 W/m -9,1 C -9,0 C 11,3 km/h (2 Bft) 100,00 %
27.01.2017 05:00 -7,7 C 92 % 1025,1 hPa 0,0 l/m 6,2 km/h (2 Bft) O-NO 71 0 min 0,000 mm 0,0 UV-I 0 W/m -8,8 C -7,7 C 11,3 km/h (2 Bft) 100,00 %
27.01.2017 05:02 -7,4 C 91 % 1025,1 hPa 0,0 l/m 9,7 km/h (2 Bft) O 83 0 min 0,000 mm 0,0 UV-I 0 W/m -8,6 C -11,3 C 16,1 km/h (3 Bft) 100,00 %
27.01.2017 05:04 -7,2 C 92 % 1025,1 hPa 0,0 l/m 10,2 km/h (2 Bft) NO 55 0 min 0,000 mm 0,0 UV-I 0 W/m -8,3 C -11,6 C 14,5 km/h (3 Bft) 100,00 %
27.01.2017 05:06 -7,0 C 91 % 1025,1 hPa 0,0 l/m 10,6 km/h (2 Bft) O 84 0 min 0,000 mm 0,0 UV-I 0 W/m -8,2 C -11,8 C 16,1 km/h (3 Bft) 98,00 %
27.01.2017 05:08 -6,8 C 91 % 1025,1 hPa 0,0 l/m 10,8 km/h (2 Bft) O-NO 60 0 min 0,000 mm 0,0 UV-I 0 W/m -8,0 C -11,7 C 16,1 km/h (3 Bft) 100,00 %
27.01.2017 05:10 -6,7 C 90 % 1025,1 hPa 0,0 l/m 10,6 km/h (2 Bft) O-NO 69 0 min 0,000 mm 0,0 UV-I 0 W/m -8,1 C -11,4 C 14,5 km/h (3 Bft) 100,00 %
27.01.2017 05:12 -6,6 C 90 % 1025,1 hPa 0,0 l/m 11,3 km/h (2 Bft) O 92 0 min 0,000 mm 0,0 UV-I 0 W/m -8,0 C -12,0 C 16,1 km/h (3 Bft) 100,00 %
27.01.2017 05:14 -6,6 C 89 % 1025,1 hPa 0,0 l/m 9,2 km/h (2 Bft) O-SO 109 0 min 0,000 mm 0,0 UV-I 0 W/m -8,1 C -9,9 C 14,5 km/h (3 Bft) 100,00 %
27.01.2017 05:16 -6,7 C 89 % 1025,1 hPa 0,0 l/m 5,0 km/h (1 Bft) O-NO 76 0 min 0,000 mm 0,0 UV-I 0 W/m -8,2 C -6,7 C 9,7 km/h (2 Bft) 100,00 %
27.01.2017 05:18 -6,6 C 89 % 1025,1 hPa 0,0 l/m 12,0 km/h (2 Bft) O-NO 71 0 min 0,000 mm 0,0 UV-I 0 W/m -8,1 C -12,6 C 17,7 km/h (3 Bft) 100,00 %
27.01.2017 05:20 -6,6 C 89 % 1025,1 hPa 0,0 l/m 10,4 km/h (2 Bft) O-NO 70 0 min 0,000 mm 0,0 UV-I 0 W/m -8,1 C -11,1 C 17,7 km/h (3 Bft) 100,00 %
27.01.2017 05:22 -6,5 C 89 % 1025,1 hPa 0,0 l/m 10,5 km/h (2 Bft) O-NO 76 0 min 0,000 mm 0,0 UV-I 0 W/m -8,0 C -11,1 C 16,1 km/h (3 Bft) 97,92 %
27.01.2017 05:24 -6,5 C 89 % 1025,0 hPa 0,0 l/m 15,0 km/h (3 Bft) O 85 0 min 0,000 mm 0,0 UV-I 0 W/m -8,0 C -14,9 C 22,5 km/h (4 Bft) 100,00 %
27.01.2017 05:26 -6,5 C 88 % 1025,0 hPa 0,0 l/m 12,2 km/h (2 Bft) NO 42 0 min 0,000 mm 0,0 UV-I 0 W/m -8,1 C -12,7 C 17,7 km/h (3 Bft) 97,44 %
27.01.2017 05:28 -6,5 C 88 % 1025,1 hPa 0,0 l/m 14,7 km/h (3 Bft) O 99 0 min 0,000 mm 0,0 UV-I 0 W/m -8,1 C -14,6 C 19,3 km/h (3 Bft) 100,00 %
27.01.2017 05:30 -6,5 C 88 % 1025,1 hPa 0,0 l/m 12,1 km/h (2 Bft) O 88 0 min 0,000 mm 0,0 UV-I 0 W/m -8,1 C -12,6 C 16,1 km/h (3 Bft) 97,62 %
27.01.2017 05:32 -6,5 C 88 % 1025,0 hPa 0,0 l/m 9,0 km/h (2 Bft) O-NO 66 0 min 0,000 mm 0,0 UV-I 0 W/m -8,1 C -9,6 C 16,1 km/h (3 Bft) 97,87 %
27.01.2017 05:34 -6,6 C 88 % 1025,0 hPa 0,0 l/m 7,2 km/h (2 Bft) O-NO 67 0 min 0,000 mm 0,0 UV-I 0 W/m -8,2 C -7,6 C 12,9 km/h (3 Bft) 100,00 %
27.01.2017 05:36 -6,7 C 87 % 1025,0 hPa 0,0 l/m 7,2 km/h (2 Bft) O-NO 67 0 min 0,000 mm 0,0 UV-I 0 W/m -8,5 C -7,7 C 12,9 km/h (3 Bft) 100,00 %
27.01.2017 05:38 -6,8 C 87 % 1025,0 hPa 0,0 l/m 7,1 km/h (2 Bft) O-NO 63 0 min 0,000 mm 0,0 UV-I 0 W/m -8,6 C -7,7 C 14,5 km/h (3 Bft) 97,37 %
27.01.2017 05:40 -7,1 C 87 % 1025,0 hPa 0,0 l/m 7,9 km/h (2 Bft) O-NO 70 0 min 0,000 mm 0,0 UV-I 0 W/m -8,9 C -9,0 C 12,9 km/h (3 Bft) 98,11 %
27.01.2017 05:42 -7,2 C 87 % 1025,0 hPa 0,0 l/m 6,7 km/h (2 Bft) O-NO 67 0 min 0,000 mm 0,0 UV-I 0 W/m -9,0 C -7,6 C 11,3 km/h (2 Bft) 100,00 %
27.01.2017 05:44 -7,3 C 87 % 1025,0 hPa 0,0 l/m 6,1 km/h (2 Bft) O-NO 74 0 min 0,000 mm 0,0 UV-I 0 W/m -9,1 C -7,3 C 8,0 km/h (2 Bft) 100,00 %
27.01.2017 05:46 -7,4 C 88 % 1025,0 hPa 0,0 l/m 5,9 km/h (2 Bft) O-NO 67 0 min 0,000 mm 0,0 UV-I 0 W/m -9,0 C -7,4 C 11,3 km/h (2 Bft) 97,56 %
27.01.2017 05:48 -7,4 C 88 % 1025,0 hPa 0,0 l/m 7,6 km/h (2 Bft) O-NO 77 0 min 0,000 mm 0,0 UV-I 0 W/m -9,0 C -8,9 C 12,9 km/h (3 Bft) 100,00 %
27.01.2017 05:50 -7,3 C 89 % 1025,0 hPa 0,0 l/m 6,2 km/h (2 Bft) O 84 0 min 0,000 mm 0,0 UV-I 0 W/m -8,8 C -7,3 C 11,3 km/h (2 Bft) 100,00 %
27.01.2017 05:52 -7,3 C 89 % 1025,0 hPa 0,0 l/m 4,8 km/h (1 Bft) O-NO 71 0 min 0,000 mm 0,0 UV-I 0 W/m -8,8 C -7,3 C 8,0 km/h (2 Bft) 100,00 %
27.01.2017 05:54 -7,3 C 89 % 1025,0 hPa 0,0 l/m 4,8 km/h (1 Bft) O-NO 74 0 min 0,000 mm 0,0 UV-I 0 W/m -8,8 C -7,3 C 8,0 km/h (2 Bft) 100,00 %
27.01.2017 05:56 -7,3 C 89 % 1025,0 hPa 0,0 l/m 3,6 km/h (1 Bft) O-NO 74 0 min 0,000 mm 0,0 UV-I 0 W/m -8,8 C -7,3 C 4,8 km/h (1 Bft) 97,87 %
27.01.2017 05:58 -7,4 C 88 % 1025,0 hPa 0,0 l/m 4,0 km/h (1 Bft) O-NO 74 0 min 0,000 mm 0,0 UV-I 0 W/m -9,0 C -7,4 C 4,8 km/h (1 Bft) 92,00 %
27.01.2017 06:00 -7,4 C 89 % 1025,0 hPa 0,0 l/m 4,4 km/h (1 Bft) O-NO 65 0 min 0,000 mm 0,0 UV-I 0 W/m -8,9 C -7,4 C 6,4 km/h (2 Bft) 97,22 %
27.01.2017 06:02 -7,4 C 89 % 1025,0 hPa 0,0 l/m 3,8 km/h (1 Bft) O 81 0 min 0,000 mm 0,0 UV-I 0 W/m -8,9 C -7,4 C 6,4 km/h (2 Bft) 96,36 %
27.01.2017 06:04 -7,4 C 89 % 1024,9 hPa 0,0 l/m 4,6 km/h (1 Bft) O-NO 70 0 min 0,000 mm 0,0 UV-I 0 W/m -8,9 C -7,4 C 6,4 km/h (2 Bft) 98,00 %
27.01.2017 06:06 -7,4 C 89 % 1024,9 hPa 0,0 l/m 4,6 km/h (1 Bft) O-NO 72 0 min 0,000 mm 0,0 UV-I 0 W/m -8,9 C -7,4 C 8,0 km/h (2 Bft) 96,00 %
27.01.2017 06:08 -7,5 C 89 % 1024,9 hPa 0,0 l/m 3,6 km/h (1 Bft) O-NO 71 0 min 0,000 mm 0,0 UV-I 0 W/m -9,0 C -7,5 C 4,8 km/h (1 Bft) 95,24 %
27.01.2017 06:10 -7,6 C 89 % 1024,9 hPa 0,0 l/m 5,1 km/h (1 Bft) O-NO 68 0 min 0,000 mm 0,0 UV-I 0 W/m -9,1 C -7,6 C 8,0 km/h (2 Bft) 95,74 %
27.01.2017 06:12 -7,6 C 89 % 1024,9 hPa 0,0 l/m 5,5 km/h (1 Bft) O-NO 71 0 min 0,000 mm 0,0 UV-I 0 W/m -9,1 C -7,6 C 8,0 km/h (2 Bft) 95,74 %
27.01.2017 06:14 -7,7 C 89 % 1024,9 hPa 0,0 l/m 4,7 km/h (1 Bft) O-NO 66 0 min 0,000 mm 0,0 UV-I 0 W/m -9,2 C -7,7 C 6,4 km/h (2 Bft) 94,00 %
27.01.2017 06:16 -7,7 C 89 % 1024,9 hPa 0,0 l/m 4,9 km/h (1 Bft) O 80 0 min 0,000 mm 0,0 UV-I 0 W/m -9,2 C -7,7 C 6,4 km/h (2 Bft) 95,74 %
27.01.2017 06:18 -7,7 C 90 % 1024,9 hPa 0,0 l/m 5,0 km/h (1 Bft) O-NO 63 0 min 0,000 mm 0,0 UV-I 0 W/m -9,0 C -7,7 C 6,4 km/h (2 Bft) 97,37 %
27.01.2017 06:20 -7,7 C 90 % 1024,9 hPa 0,0 l/m 5,1 km/h (1 Bft) O-NO 73 0 min 0,000 mm 0,0 UV-I 0 W/m -9,0 C -7,7 C 8,0 km/h (2 Bft) 98,00 %
27.01.2017 06:22 -7,7 C 90 % 1025,0 hPa 0,0 l/m 4,1 km/h (1 Bft) O-NO 71 0 min 0,000 mm 0,0 UV-I 0 W/m -9,0 C -7,7 C 6,4 km/h (2 Bft) 98,11 %
27.01.2017 06:24 -7,7 C 90 % 1025,0 hPa 0,0 l/m 3,5 km/h (1 Bft) O 82 0 min 0,000 mm 0,0 UV-I 0 W/m -9,0 C -7,7 C 4,8 km/h (1 Bft) 93,62 %
27.01.2017 06:26 -7,7 C 90 % 1025,0 hPa 0,0 l/m 5,2 km/h (1 Bft) O-NO 69 0 min 0,000 mm 0,0 UV-I 0 W/m -9,0 C -7,7 C 8,0 km/h (2 Bft) 97,87 %
27.01.2017 06:28 -7,7 C 90 % 1025,0 hPa 0,0 l/m 5,1 km/h (1 Bft) O-NO 73 0 min 0,000 mm 0,0 UV-I 0 W/m -9,0 C -7,7 C 8,0 km/h (2 Bft) 94,74 %
27.01.2017 06:30 -7,6 C 90 % 1025,0 hPa 0,0 l/m 5,0 km/h (1 Bft) O 86 0 min 0,000 mm 0,0 UV-I 0 W/m -8,9 C -7,6 C 6,4 km/h (2 Bft) 97,87 %
27.01.2017 06:32 -7,6 C 90 % 1025,1 hPa 0,0 l/m 3,8 km/h (1 Bft) O-NO 76 0 min 0,000 mm 0,0 UV-I 0 W/m -8,9 C -7,6 C 8,0 km/h (2 Bft) 97,87 %
27.01.2017 06:34 -7,4 C 90 % 1025,1 hPa 0,0 l/m 5,1 km/h (1 Bft) O 81 0 min 0,000 mm 0,0 UV-I 0 W/m -8,8 C -7,4 C 8,0 km/h (2 Bft) 96,00 %
27.01.2017 06:36 -7,5 C 89 % 1025,1 hPa 0,0 l/m 4,9 km/h (1 Bft) O 92 0 min 0,000 mm 0,0 UV-I 0 W/m -9,0 C -7,5 C 9,7 km/h (2 Bft) 94,00 %
27.01.2017 06:38 -7,4 C 90 % 1025,0 hPa 0,0 l/m 4,6 km/h (1 Bft) O-NO 76 0 min 0,000 mm 0,0 UV-I 0 W/m -8,8 C -7,4 C 6,4 km/h (2 Bft) 100,00 %
27.01.2017 06:40 -7,5 C 90 % 1025,0 hPa 0,0 l/m 3,4 km/h (1 Bft) O-NO 74 0 min 0,000 mm 0,0 UV-I 0 W/m -8,8 C -7,5 C 4,8 km/h (1 Bft) 100,00 %
27.01.2017 06:42 -7,6 C 89 % 1025,0 hPa 0,0 l/m 4,0 km/h (1 Bft) O-NO 74 0 min 0,000 mm 0,0 UV-I 0 W/m -9,1 C -7,6 C 4,8 km/h (1 Bft) 97,73 %
27.01.2017 06:44 -7,7 C 89 % 1025,1 hPa 0,0 l/m 3,8 km/h (1 Bft) O-NO 74 0 min 0,000 mm 0,0 UV-I 0 W/m -9,2 C -7,7 C 6,4 km/h (2 Bft) 100,00 %
27.01.2017 06:46 -7,9 C 89 % 1025,0 hPa 0,0 l/m 3,5 km/h (1 Bft) O-NO 74 0 min 0,000 mm 0,0 UV-I 0 W/m -9,4 C -7,9 C 6,4 km/h (2 Bft) 100,00 %
27.01.2017 06:48 -7,9 C 89 % 1025,1 hPa 0,0 l/m 4,6 km/h (1 Bft) O-NO 64 0 min 0,000 mm 0,0 UV-I 0 W/m -9,4 C -7,9 C 6,4 km/h (2 Bft) 100,00 %
27.01.2017 06:50 -7,9 C 90 % 1025,1 hPa 0,0 l/m 4,4 km/h (1 Bft) O-NO 71 0 min 0,000 mm 0,0 UV-I 0 W/m -9,2 C -7,9 C 6,4 km/h (2 Bft) 100,00 %
27.01.2017 06:52 -7,8 C 90 % 1025,0 hPa 0,0 l/m 3,8 km/h (1 Bft) O-NO 71 0 min 0,000 mm 0,0 UV-I 0 W/m -9,1 C -7,8 C 4,8 km/h (1 Bft) 96,43 %
27.01.2017 06:54 -7,9 C 90 % 1025,0 hPa 0,0 l/m 4,5 km/h (1 Bft) O-NO 71 0 min 0,000 mm 0,0 UV-I 0 W/m -9,2 C -7,9 C 6,4 km/h (2 Bft) 97,37 %
27.01.2017 06:56 -7,9 C 90 % 1025,0 hPa 0,0 l/m 3,9 km/h (1 Bft) O-NO 71 0 min 0,000 mm 0,0 UV-I 0 W/m -9,2 C -7,9 C 6,4 km/h (2 Bft) 100,00 %
27.01.2017 06:58 -7,9 C 90 % 1025,0 hPa 0,0 l/m 3,6 km/h (1 Bft) O-NO 71 0 min 0,000 mm 0,0 UV-I 0 W/m -9,2 C -7,9 C 4,8 km/h (1 Bft) 100,00 %
27.01.2017 07:00 -8,1 C 90 % 1025,0 hPa 0,0 l/m 3,0 km/h (1 Bft) O-NO 71 0 min 0,000 mm 0,0 UV-I 0 W/m -9,4 C -8,1 C 4,8 km/h (1 Bft) 100,00 %
27.01.2017 07:02 -8,3 C 90 % 1025,0 hPa 0,0 l/m 2,6 km/h (1 Bft) O-NO 71 0 min 0,000 mm 0,0 UV-I 0 W/m -9,6 C -8,3 C 3,2 km/h (1 Bft) 100,00 %
27.01.2017 07:04 -8,4 C 90 % 1025,0 hPa 0,0 l/m 2,2 km/h (1 Bft) O-NO 71 0 min 0,000 mm 0,0 UV-I 0 W/m -9,7 C -8,4 C 3,2 km/h (1 Bft) 94,74 %
27.01.2017 07:06 -8,5 C 90 % 1025,1 hPa 0,0 l/m 1,8 km/h (1 Bft) O-NO 71 0 min 0,000 mm 0,0 UV-I 0 W/m -9,8 C -8,5 C 3,2 km/h (1 Bft) 98,11 %
27.01.2017 07:08 -8,7 C 90 % 1025,1 hPa 0,0 l/m 1,2 km/h (1 Bft) O-NO 71 0 min 0,000 mm 0,0 UV-I 0 W/m -10,0 C -8,7 C 3,2 km/h (1 Bft) 98,11 %
27.01.2017 07:10 -9,1 C 89 % 1025,1 hPa 0,0 l/m 0,7 km/h (0 Bft) O-NO 71 0 min 0,000 mm 0,0 UV-I 0 W/m -10,6 C -9,1 C 1,6 km/h (1 Bft) 97,56 %
27.01.2017 07:12 -9,3 C 89 % 1025,1 hPa 0,0 l/m 0,1 km/h (0 Bft) O-NO 71 0 min 0,000 mm 0,0 UV-I 0 W/m -10,8 C -9,3 C 1,6 km/h (1 Bft) 94,00 %
27.01.2017 07:14 -9,8 C 88 % 1025,1 hPa 0,0 l/m 0,0 km/h (0 Bft) O-NO 71 0 min 0,000 mm 0,0 UV-I 0 W/m -11,4 C -9,8 C 0,0 km/h (0 Bft) 100,00 %
27.01.2017 07:16 -10,4 C 88 % 1025,1 hPa 0,0 l/m 0,0 km/h (0 Bft) O-NO 71 0 min 0,000 mm 0,0 UV-I 0 W/m -12,0 C -10,4 C 0,0 km/h (0 Bft) 97,87 %
27.01.2017 07:18 -10,7 C 88 % 1025,1 hPa 0,0 l/m 0,0 km/h (0 Bft) O-NO 71 0 min 0,000 mm 0,0 UV-I 0 W/m -12,3 C -10,7 C 0,0 km/h (0 Bft) 100,00 %
27.01.2017 07:20 -10,7 C 90 % 1025,1 hPa 0,0 l/m 0,0 km/h (0 Bft) O-NO 71 0 min 0,000 mm 0,0 UV-I 0 W/m -12,0 C -10,7 C 0,0 km/h (0 Bft) 100,00 %
27.01.2017 07:22 -10,5 C 91 % 1025,1 hPa 0,0 l/m 0,0 km/h (0 Bft) O-NO 71 0 min 0,000 mm 0,0 UV-I 1 W/m -11,7 C -10,5 C 0,0 km/h (0 Bft) 100,00 %
27.01.2017 07:24 -10,2 C 92 % 1025,1 hPa 0,0 l/m 0,0 km/h (0 Bft) O-NO 71 0 min 0,000 mm 0,0 UV-I 5 W/m -11,2 C -10,2 C 0,0 km/h (0 Bft) 100,00 %
27.01.2017 07:26 -10,1 C 92 % 1025,2 hPa 0,0 l/m 0,0 km/h (0 Bft) O-NO 71 0 min 0,000 mm 0,0 UV-I 5 W/m -11,1 C -10,1 C 0,0 km/h (0 Bft) 95,74 %
27.01.2017 07:28 -10,1 C 91 % 1025,2 hPa 0,0 l/m 0,6 km/h (0 Bft) O-NO 71 0 min 0,000 mm 0,0 UV-I 5 W/m -11,3 C -10,1 C 3,2 km/h (1 Bft) 100,00 %
27.01.2017 07:30 -10,1 C 91 % 1025,2 hPa 0,0 l/m 1,9 km/h (1 Bft) O-NO 71 0 min 0,000 mm 0,0 UV-I 5 W/m -11,3 C -10,1 C 3,2 km/h (1 Bft) 95,74 %
27.01.2017 07:32 -10,1 C 92 % 1025,2 hPa 0,0 l/m 0,5 km/h (0 Bft) O-NO 71 0 min 0,000 mm 0,0 UV-I 6 W/m -11,1 C -10,1 C 1,6 km/h (1 Bft) 98,11 %
27.01.2017 07:34 -10,0 C 92 % 1025,3 hPa 0,0 l/m 0,0 km/h (0 Bft) O-NO 71 0 min 0,000 mm 0,0 UV-I 7 W/m -11,0 C -10,0 C 1,6 km/h (1 Bft) 100,00 %
27.01.2017 07:36 -10,1 C 92 % 1025,3 hPa 0,0 l/m 0,7 km/h (0 Bft) O-NO 71 0 min 0,000 mm 0,0 UV-I 7 W/m -11,1 C -10,1 C 1,6 km/h (1 Bft) 97,37 %
27.01.2017 07:38 -10,3 C 91 % 1025,4 hPa 0,0 l/m 0,0 km/h (0 Bft) O-NO 71 0 min 0,000 mm 0,0 UV-I 8 W/m -11,5 C -10,3 C 0,0 km/h (0 Bft) 98,11 %
27.01.2017 07:40 -10,3 C 92 % 1025,4 hPa 0,0 l/m 0,0 km/h (0 Bft) O-NO 71 0 min 0,000 mm 0,0 UV-I 9 W/m -11,3 C -10,3 C 0,0 km/h (0 Bft) 98,00 %
27.01.2017 07:42 -10,5 C 91 % 1025,4 hPa 0,0 l/m 0,0 km/h (0 Bft) O-NO 71 0 min 0,000 mm 0,0 UV-I 10 W/m -11,7 C -10,5 C 0,0 km/h (0 Bft) 100,00 %
27.01.2017 07:44 -10,4 C 92 % 1025,4 hPa 0,0 l/m 0,0 km/h (0 Bft) O-NO 71 0 min 0,000 mm 0,0 UV-I 11 W/m -11,4 C -10,4 C 0,0 km/h (0 Bft) 100,00 %
27.01.2017 07:46 -10,4 C 92 % 1025,4 hPa 0,0 l/m 0,0 km/h (0 Bft) O-NO 71 0 min 0,000 mm 0,0 UV-I 12 W/m -11,4 C -10,4 C 0,0 km/h (0 Bft) 100,00 %
27.01.2017 07:48 -10,3 C 92 % 1025,4 hPa 0,0 l/m 0,0 km/h (0 Bft) O-NO 71 0 min 0,000 mm 0,0 UV-I 14 W/m -11,3 C -10,3 C 0,0 km/h (0 Bft) 100,00 %
27.01.2017 07:50 -10,2 C 93 % 1025,4 hPa 0,0 l/m 0,0 km/h (0 Bft) O-NO 71 2 min 0,000 mm 0,0 UV-I 14 W/m -11,1 C -10,2 C 0,0 km/h (0 Bft) 97,87 %
27.01.2017 07:52 -10,2 C 92 % 1025,4 hPa 0,0 l/m 0,5 km/h (0 Bft) O-NO 71 2 min 0,000 mm 0,0 UV-I 17 W/m -11,2 C -10,2 C 3,2 km/h (1 Bft) 98,11 %
27.01.2017 07:54 -10,2 C 92 % 1025,6 hPa 0,0 l/m 1,6 km/h (1 Bft) O-NO 71 2 min 0,000 mm 0,0 UV-I 18 W/m -11,2 C -10,2 C 3,2 km/h (1 Bft) 92,11 %
27.01.2017 07:56 -10,4 C 92 % 1025,6 hPa 0,0 l/m 2,6 km/h (1 Bft) O-NO 71 2 min 0,000 mm 0,0 UV-I 19 W/m -11,4 C -10,4 C 3,2 km/h (1 Bft) 98,11 %
27.01.2017 07:58 -10,6 C 92 % 1025,6 hPa 0,0 l/m 3,0 km/h (1 Bft) S-SO 150 2 min 0,000 mm 0,0 UV-I 21 W/m -11,6 C -10,6 C 4,8 km/h (1 Bft) 97,87 %
27.01.2017 08:00 -10,7 C 92 % 1025,6 hPa 0,0 l/m 5,1 km/h (1 Bft) S 173 0 min 0,000 mm 0,0 UV-I 22 W/m -11,7 C -10,7 C 6,4 km/h (2 Bft) 98,00 %
27.01.2017 08:02 -10,8 C 92 % 1025,6 hPa 0,0 l/m 3,8 km/h (1 Bft) S 173 0 min 0,000 mm 0,0 UV-I 24 W/m -11,8 C -10,8 C 4,8 km/h (1 Bft) 100,00 %
27.01.2017 08:04 -10,8 C 92 % 1025,6 hPa 0,0 l/m 2,9 km/h (1 Bft) S 173 2 min 0,000 mm 0,0 UV-I 33 W/m -11,8 C -10,8 C 3,2 km/h (1 Bft) 100,00 %
27.01.2017 08:06 -10,7 C 92 % 1025,6 hPa 0,0 l/m 2,0 km/h (1 Bft) S 173 2 min 0,000 mm 0,0 UV-I 40 W/m -11,7 C -10,7 C 3,2 km/h (1 Bft) 98,18 %
27.01.2017 08:08 -10,7 C 92 % 1025,6 hPa 0,0 l/m 2,2 km/h (1 Bft) S 173 2 min 0,000 mm 0,0 UV-I 53 W/m -11,7 C -10,7 C 3,2 km/h (1 Bft) 100,00 %
27.01.2017 08:10 -10,9 C 92 % 1025,6 hPa 0,0 l/m 2,4 km/h (1 Bft) S 173 2 min 0,000 mm 0,0 UV-I 59 W/m -11,9 C -10,9 C 3,2 km/h (1 Bft) 97,62 %
27.01.2017 08:12 -10,9 C 92 % 1025,6 hPa 0,0 l/m 2,9 km/h (1 Bft) S 173 2 min 0,000 mm 0,0 UV-I 64 W/m -11,9 C -10,9 C 4,8 km/h (1 Bft) 97,73 %
27.01.2017 08:14 -10,7 C 93 % 1025,6 hPa 0,0 l/m 4,5 km/h (1 Bft) S 173 2 min 0,000 mm 0,0 UV-I 69 W/m -11,6 C -10,7 C 8,0 km/h (2 Bft) 98,00 %
27.01.2017 08:16 -10,6 C 92 % 1025,6 hPa 0,0 l/m 4,7 km/h (1 Bft) S 186 2 min 0,000 mm 0,0 UV-I 72 W/m -11,6 C -10,6 C 6,4 km/h (2 Bft) 97,87 %
27.01.2017 08:18 -10,7 C 92 % 1025,7 hPa 0,0 l/m 4,7 km/h (1 Bft) S 188 2 min 0,000 mm 0,0 UV-I 77 W/m -11,7 C -10,7 C 6,4 km/h (2 Bft) 93,62 %
27.01.2017 08:20 -10,8 C 92 % 1025,7 hPa 0,0 l/m 5,1 km/h (1 Bft) S-SW 196 2 min 0,000 mm 0,0 UV-I 81 W/m -11,8 C -10,8 C 6,4 km/h (2 Bft) 97,56 %
27.01.2017 08:22 -10,8 C 92 % 1025,8 hPa 0,0 l/m 3,9 km/h (1 Bft) S-SW 194 2 min 0,000 mm 0,0 UV-I 84 W/m -11,8 C -10,8 C 6,4 km/h (2 Bft) 97,87 %
27.01.2017 08:24 -10,8 C 92 % 1025,8 hPa 0,0 l/m 3,6 km/h (1 Bft) S 190 2 min 0,000 mm 0,0 UV-I 90 W/m -11,8 C -10,8 C 4,8 km/h (1 Bft) 98,21 %
27.01.2017 08:26 -10,6 C 93 % 1025,7 hPa 0,0 l/m 4,4 km/h (1 Bft) S 190 2 min 0,000 mm 0,0 UV-I 95 W/m -11,5 C -10,6 C 6,4 km/h (2 Bft) 91,43 %
27.01.2017 08:28 -10,4 C 93 % 1025,7 hPa 0,0 l/m 4,1 km/h (1 Bft) S 190 2 min 0,000 mm 0,0 UV-I 101 W/m -11,3 C -10,4 C 4,8 km/h (1 Bft) 98,21 %
27.01.2017 08:30 -10,3 C 93 % 1025,7 hPa 0,0 l/m 3,8 km/h (1 Bft) S 190 2 min 0,000 mm 0,0 UV-I 104 W/m -11,2 C -10,3 C 4,8 km/h (1 Bft) 93,62 %
27.01.2017 08:32 -10,2 C 93 % 1025,8 hPa 0,0 l/m 3,8 km/h (1 Bft) S 190 2 min 0,000 mm 0,0 UV-I 109 W/m -11,1 C -10,2 C 4,8 km/h (1 Bft) 97,37 %
27.01.2017 08:34 -10,2 C 93 % 1025,8 hPa 0,0 l/m 3,3 km/h (1 Bft) S 190 2 min 0,000 mm 0,0 UV-I 113 W/m -11,1 C -10,2 C 4,8 km/h (1 Bft) 96,36 %
27.01.2017 08:36 -10,1 C 93 % 1025,9 hPa 0,0 l/m 4,6 km/h (1 Bft) S 190 2 min 0,000 mm 0,0 UV-I 118 W/m -11,0 C -10,1 C 4,8 km/h (1 Bft) 98,00 %
27.01.2017 08:38 -10,1 C 93 % 1025,9 hPa 0,0 l/m 4,0 km/h (1 Bft) S 190 2 min 0,000 mm 0,0 UV-I 123 W/m -11,0 C -10,1 C 4,8 km/h (1 Bft) 97,37 %
27.01.2017 08:40 -10,0 C 93 % 1025,9 hPa 0,0 l/m 4,2 km/h (1 Bft) S 190 2 min 0,000 mm 0,0 UV-I 127 W/m -10,9 C -10,0 C 4,8 km/h (1 Bft) 96,00 %
27.01.2017 08:42 -10,1 C 92 % 1026,0 hPa 0,0 l/m 4,3 km/h (1 Bft) S 190 2 min 0,000 mm 0,0 UV-I 132 W/m -11,1 C -10,1 C 6,4 km/h (2 Bft) 98,11 %
27.01.2017 08:44 -10,2 C 92 % 1026,0 hPa 0,0 l/m 4,5 km/h (1 Bft) S-SW 198 2 min 0,000 mm 0,0 UV-I 137 W/m -11,2 C -10,2 C 6,4 km/h (2 Bft) 97,22 %
27.01.2017 08:46 -10,2 C 92 % 1026,0 hPa 0,0 l/m 4,9 km/h (1 Bft) S-SW 199 2 min 0,000 mm 0,0 UV-I 141 W/m -11,2 C -10,2 C 6,4 km/h (2 Bft) 97,37 %
27.01.2017 08:48 -10,4 C 92 % 1026,1 hPa 0,0 l/m 5,5 km/h (1 Bft) S-SW 199 2 min 0,000 mm 0,0 UV-I 145 W/m -11,4 C -10,4 C 6,4 km/h (2 Bft) 96,23 %
27.01.2017 08:50 -10,4 C 92 % 1026,1 hPa 0,0 l/m 5,2 km/h (1 Bft) S-SW 213 2 min 0,000 mm 0,0 UV-I 151 W/m -11,4 C -10,4 C 6,4 km/h (2 Bft) 98,11 %
27.01.2017 08:52 -10,3 C 92 % 1026,1 hPa 0,0 l/m 4,4 km/h (1 Bft) S-SW 213 2 min 0,000 mm 0,0 UV-I 155 W/m -11,3 C -10,3 C 6,4 km/h (2 Bft) 98,04 %
27.01.2017 08:54 -10,3 C 92 % 1026,1 hPa 0,0 l/m 3,7 km/h (1 Bft) S-SW 213 2 min 0,000 mm 0,0 UV-I 160 W/m -11,3 C -10,3 C 4,8 km/h (1 Bft) 96,00 %
27.01.2017 08:56 -10,2 C 92 % 1026,1 hPa 0,0 l/m 3,2 km/h (1 Bft) S-SW 213 2 min 0,000 mm 0,0 UV-I 165 W/m -11,2 C -10,2 C 4,8 km/h (1 Bft) 100,00 %
27.01.2017 08:58 -10,1 C 92 % 1026,1 hPa 0,0 l/m 2,9 km/h (1 Bft) S-SW 213 2 min 0,000 mm 0,0 UV-I 170 W/m -11,1 C -10,1 C 4,8 km/h (1 Bft) 100,00 %
27.01.2017 09:00 -10,0 C 92 % 1026,1 hPa 0,0 l/m 3,5 km/h (1 Bft) S-SW 213 2 min 0,025 mm 0,0 UV-I 174 W/m -11,0 C -10,0 C 4,8 km/h (1 Bft) 97,37 %
27.01.2017 09:02 -9,9 C 92 % 1026,1 hPa 0,0 l/m 2,3 km/h (1 Bft) S-SW 213 2 min 0,000 mm 0,0 UV-I 180 W/m -10,9 C -9,9 C 3,2 km/h (1 Bft) 94,00 %
27.01.2017 09:04 -9,8 C 92 % 1026,0 hPa 0,0 l/m 1,3 km/h (1 Bft) S-SW 213 2 min 0,000 mm 0,0 UV-I 184 W/m -10,8 C -9,8 C 3,2 km/h (1 Bft) 97,87 %
27.01.2017 09:06 -9,7 C 92 % 1026,1 hPa 0,0 l/m 1,4 km/h (1 Bft) S-SW 213 2 min 0,000 mm 0,0 UV-I 190 W/m -10,7 C -9,7 C 3,2 km/h (1 Bft) 97,87 %
27.01.2017 09:08 -9,7 C 92 % 1026,1 hPa 0,0 l/m 3,6 km/h (1 Bft) S-SW 213 2 min 0,000 mm 0,0 UV-I 195 W/m -10,7 C -9,7 C 4,8 km/h (1 Bft) 97,56 %
27.01.2017 09:10 -9,4 C 93 % 1026,1 hPa 0,0 l/m 2,8 km/h (1 Bft) S-SW 213 2 min 0,000 mm 0,0 UV-I 199 W/m -10,3 C -9,4 C 4,8 km/h (1 Bft) 96,00 %
27.01.2017 09:12 -9,4 C 92 % 1026,1 hPa 0,0 l/m 2,2 km/h (1 Bft) S-SW 213 2 min 0,000 mm 0,0 UV-I 203 W/m -10,5 C -9,4 C 3,2 km/h (1 Bft) 96,00 %
27.01.2017 09:14 -9,3 C 92 % 1026,1 hPa 0,0 l/m 3,3 km/h (1 Bft) S-SW 213 2 min 0,000 mm 0,0 UV-I 209 W/m -10,4 C -9,3 C 4,8 km/h (1 Bft) 97,87 %
27.01.2017 09:16 -9,4 C 92 % 1026,1 hPa 0,0 l/m 0,9 km/h (0 Bft) S-SW 213 2 min 0,000 mm 0,0 UV-I 214 W/m -10,5 C -9,4 C 3,2 km/h (1 Bft) 97,87 %
27.01.2017 09:18 -9,4 C 91 % 1026,2 hPa 0,0 l/m 3,9 km/h (1 Bft) S-SW 213 2 min 0,000 mm 0,0 UV-I 218 W/m -10,6 C -9,4 C 4,8 km/h (1 Bft) 97,87 %
27.01.2017 09:20 -9,4 C 91 % 1026,1 hPa 0,0 l/m 4,1 km/h (1 Bft) S-SW 213 2 min 0,000 mm 0,0 UV-I 220 W/m -10,6 C -9,4 C 4,8 km/h (1 Bft) 100,00 %
27.01.2017 09:22 -9,4 C 91 % 1026,1 hPa 0,0 l/m 3,8 km/h (1 Bft) S-SW 212 2 min 0,000 mm 0,0 UV-I 224 W/m -10,6 C -9,4 C 4,8 km/h (1 Bft) 96,23 %
27.01.2017 09:24 -9,3 C 91 % 1026,1 hPa 0,0 l/m 2,7 km/h (1 Bft) S-SW 212 2 min 0,000 mm 0,0 UV-I 228 W/m -10,5 C -9,3 C 4,8 km/h (1 Bft) 100,00 %
27.01.2017 09:26 -9,2 C 91 % 1026,2 hPa 0,0 l/m 1,5 km/h (1 Bft) S-SW 212 2 min 0,000 mm 0,0 UV-I 232 W/m -10,4 C -9,2 C 3,2 km/h (1 Bft) 96,15 %
27.01.2017 09:28 -9,1 C 91 % 1026,1 hPa 0,0 l/m 1,9 km/h (1 Bft) S-SW 212 2 min 0,000 mm 0,0 UV-I 237 W/m -10,3 C -9,1 C 3,2 km/h (1 Bft) 100,00 %
27.01.2017 09:30 -8,9 C 91 % 1026,1 hPa 0,0 l/m 2,9 km/h (1 Bft) S-SW 212 2 min 0,000 mm 0,0 UV-I 241 W/m -10,1 C -8,9 C 4,8 km/h (1 Bft) 100,00 %
27.01.2017 09:32 -8,7 C 91 % 1026,2 hPa 0,0 l/m 3,5 km/h (1 Bft) S-SW 212 2 min 0,000 mm 0,0 UV-I 244 W/m -9,9 C -8,7 C 4,8 km/h (1 Bft) 98,11 %
27.01.2017 09:34 -8,6 C 91 % 1026,1 hPa 0,0 l/m 3,0 km/h (1 Bft) S-SW 212 2 min 0,000 mm 0,0 UV-I 248 W/m -9,8 C -8,6 C 4,8 km/h (1 Bft) 100,00 %
27.01.2017 09:36 -8,6 C 90 % 1026,1 hPa 0,0 l/m 1,7 km/h (1 Bft) S-SW 212 2 min 0,000 mm 0,0 UV-I 251 W/m -9,9 C -8,6 C 3,2 km/h (1 Bft) 96,61 %
27.01.2017 09:38 -8,6 C 90 % 1026,2 hPa 0,0 l/m 1,3 km/h (1 Bft) S-SW 212 2 min 0,000 mm 0,0 UV-I 255 W/m -9,9 C -8,6 C 3,2 km/h (1 Bft) 97,37 %
27.01.2017 09:40 -8,5 C 90 % 1026,2 hPa 0,0 l/m 0,2 km/h (0 Bft) S-SW 212 2 min 0,000 mm 0,0 UV-I 258 W/m -9,8 C -8,5 C 1,6 km/h (1 Bft) 98,11 %
27.01.2017 09:42 -8,4 C 90 % 1026,2 hPa 0,0 l/m 0,3 km/h (0 Bft) S-SW 212 2 min 0,000 mm 0,0 UV-I 261 W/m -9,7 C -8,4 C 1,6 km/h (1 Bft) 96,00 %
27.01.2017 09:44 -8,3 C 90 % 1026,2 hPa 0,0 l/m 0,3 km/h (0 Bft) S-SW 212 2 min 0,000 mm 0,0 UV-I 264 W/m -9,6 C -8,3 C 1,6 km/h (1 Bft) 95,74 %
27.01.2017 09:46 -8,1 C 90 % 1026,2 hPa 0,0 l/m 0,1 km/h (0 Bft) S-SW 212 2 min 0,000 mm 0,0 UV-I 266 W/m -9,4 C -8,1 C 1,6 km/h (1 Bft) 94,74 %
27.01.2017 09:48 -8,1 C 89 % 1026,3 hPa 0,0 l/m 0,5 km/h (0 Bft) S-SW 212 2 min 0,000 mm 0,0 UV-I 269 W/m -9,6 C -8,1 C 1,6 km/h (1 Bft) 95,74 %
27.01.2017 09:50 -8,1 C 89 % 1026,3 hPa 0,0 l/m 1,4 km/h (1 Bft) S-SW 212 2 min 0,000 mm 0,0 UV-I 272 W/m -9,6 C -8,1 C 3,2 km/h (1 Bft) 98,00 %
27.01.2017 09:52 -8,1 C 88 % 1026,3 hPa 0,0 l/m 2,0 km/h (1 Bft) S-SW 212 2 min 0,000 mm 0,0 UV-I 276 W/m -9,7 C -8,1 C 3,2 km/h (1 Bft) 98,00 %
27.01.2017 09:54 -8,0 C 88 % 1026,3 hPa 0,0 l/m 1,3 km/h (1 Bft) S-SW 212 2 min 0,000 mm 0,0 UV-I 278 W/m -9,6 C -8,0 C 1,6 km/h (1 Bft) 97,37 %
27.01.2017 09:56 -8,1 C 87 % 1026,3 hPa 0,0 l/m 1,7 km/h (1 Bft) S-SW 212 2 min 0,000 mm 0,2 UV-I 281 W/m -9,9 C -8,1 C 3,2 km/h (1 Bft) 98,11 %
27.01.2017 09:58 -8,1 C 87 % 1026,3 hPa 0,0 l/m 2,6 km/h (1 Bft) S-SW 212 2 min 0,000 mm 0,5 UV-I 284 W/m -9,9 C -8,1 C 3,2 km/h (1 Bft) 100,00 %
27.01.2017 10:00 -8,2 C 87 % 1026,3 hPa 0,0 l/m 2,3 km/h (1 Bft) S-SW 212 2 min 0,051 mm 0,5 UV-I 288 W/m -10,0 C -8,2 C 4,8 km/h (1 Bft) 98,00 %
27.01.2017 10:02 -8,1 C 87 % 1026,4 hPa 0,0 l/m 2,2 km/h (1 Bft) S-SW 212 2 min 0,000 mm 0,5 UV-I 293 W/m -9,9 C -8,1 C 3,2 km/h (1 Bft) 100,00 %
27.01.2017 10:04 -8,0 C 86 % 1026,3 hPa 0,0 l/m 2,3 km/h (1 Bft) S-SW 212 2 min 0,000 mm 0,5 UV-I 295 W/m -9,9 C -8,0 C 3,2 km/h (1 Bft) 100,00 %
27.01.2017 10:06 -7,9 C 86 % 1026,4 hPa 0,0 l/m 2,5 km/h (1 Bft) S-SW 212 2 min 0,000 mm 0,5 UV-I 300 W/m -9,8 C -7,9 C 3,2 km/h (1 Bft) 98,00 %
27.01.2017 10:08 -7,8 C 86 % 1026,4 hPa 0,0 l/m 1,6 km/h (1 Bft) S-SW 212 2 min 0,000 mm 0,5 UV-I 302 W/m -9,7 C -7,8 C 3,2 km/h (1 Bft) 100,00 %
27.01.2017 10:10 -7,7 C 86 % 1026,4 hPa 0,0 l/m 1,1 km/h (1 Bft) S-SW 212 2 min 0,000 mm 0,5 UV-I 304 W/m -9,6 C -7,7 C 1,6 km/h (1 Bft) 100,00 %
27.01.2017 10:12 -7,5 C 86 % 1026,5 hPa 0,0 l/m 1,0 km/h (0 Bft) S-SW 212 2 min 0,000 mm 0,5 UV-I 308 W/m -9,4 C -7,5 C 3,2 km/h (1 Bft) 98,00 %
27.01.2017 10:14 -7,3 C 87 % 1026,5 hPa 0,0 l/m 1,6 km/h (1 Bft) S-SW 212 2 min 0,000 mm 0,5 UV-I 311 W/m -9,1 C -7,3 C 3,2 km/h (1 Bft) 100,00 %
27.01.2017 10:16 -7,2 C 86 % 1026,5 hPa 0,0 l/m 1,9 km/h (1 Bft) S-SW 212 2 min 0,000 mm 0,5 UV-I 316 W/m -9,1 C -7,2 C 3,2 km/h (1 Bft) 98,00 %
27.01.2017 10:18 -7,2 C 86 % 1026,5 hPa 0,0 l/m 1,8 km/h (1 Bft) S-SW 212 2 min 0,000 mm 0,6 UV-I 318 W/m -9,1 C -7,2 C 3,2 km/h (1 Bft) 100,00 %
27.01.2017 10:20 -7,1 C 87 % 1026,5 hPa 0,0 l/m 1,2 km/h (1 Bft) S-SW 212 2 min 0,000 mm 0,6 UV-I 323 W/m -8,9 C -7,1 C 3,2 km/h (1 Bft) 100,00 %
27.01.2017 10:22 -6,9 C 87 % 1026,5 hPa 0,0 l/m 0,3 km/h (0 Bft) S-SW 212 2 min 0,000 mm 0,6 UV-I 325 W/m -8,7 C -6,9 C 1,6 km/h (1 Bft) 100,00 %
27.01.2017 10:24 -6,7 C 88 % 1026,5 hPa 0,0 l/m 1,9 km/h (1 Bft) S-SW 211 2 min 0,000 mm 0,6 UV-I 329 W/m -8,3 C -6,7 C 4,8 km/h (1 Bft) 100,00 %
27.01.2017 10:26 -6,3 C 87 % 1026,5 hPa 0,0 l/m 1,1 km/h (1 Bft) S-SW 211 2 min 0,000 mm 0,6 UV-I 332 W/m -8,1 C -6,3 C 3,2 km/h (1 Bft) 98,11 %
27.01.2017 10:28 -6,1 C 87 % 1026,5 hPa 0,0 l/m 1,0 km/h (0 Bft) S-SW 211 2 min 0,000 mm 0,6 UV-I 336 W/m -7,9 C -6,1 C 3,2 km/h (1 Bft) 100,00 %
27.01.2017 10:30 -6,0 C 86 % 1026,5 hPa 0,0 l/m 0,1 km/h (0 Bft) S-SW 211 2 min 0,000 mm 0,6 UV-I 338 W/m -8,0 C -6,0 C 1,6 km/h (1 Bft) 95,74 %
27.01.2017 10:32 -5,9 C 85 % 1026,5 hPa 0,0 l/m 1,3 km/h (1 Bft) S-SW 211 2 min 0,000 mm 0,6 UV-I 342 W/m -8,0 C -5,9 C 3,2 km/h (1 Bft) 100,00 %
27.01.2017 10:34 -5,9 C 85 % 1026,5 hPa 0,0 l/m 2,8 km/h (1 Bft) S-SW 211 2 min 0,000 mm 0,6 UV-I 346 W/m -8,0 C -5,9 C 4,8 km/h (1 Bft) 97,87 %
27.01.2017 10:36 -5,9 C 85 % 1026,5 hPa 0,0 l/m 2,4 km/h (1 Bft) S-SW 211 2 min 0,000 mm 0,7 UV-I 348 W/m -8,0 C -5,9 C 3,2 km/h (1 Bft) 100,00 %
27.01.2017 10:38 -5,9 C 85 % 1026,5 hPa 0,0 l/m 3,1 km/h (1 Bft) O 100 2 min 0,000 mm 0,7 UV-I 350 W/m -8,0 C -5,9 C 6,4 km/h (2 Bft) 97,87 %
27.01.2017 10:40 -5,8 C 86 % 1026,5 hPa 0,0 l/m 3,8 km/h (1 Bft) O 98 2 min 0,000 mm 0,7 UV-I 353 W/m -7,8 C -5,8 C 4,8 km/h (1 Bft) 98,00 %
27.01.2017 10:42 -5,7 C 85 % 1026,4 hPa 0,0 l/m 4,7 km/h (1 Bft) O-NO 69 2 min 0,000 mm 0,7 UV-I 355 W/m -7,8 C -5,7 C 6,4 km/h (2 Bft) 97,87 %
27.01.2017 10:44 -5,6 C 85 % 1026,5 hPa 0,0 l/m 4,8 km/h (1 Bft) O-NO 60 2 min 0,000 mm 0,7 UV-I 359 W/m -7,7 C -5,6 C 8,0 km/h (2 Bft) 98,00 %
27.01.2017 10:46 -5,5 C 85 % 1026,5 hPa 0,0 l/m 5,1 km/h (1 Bft) NO 52 2 min 0,000 mm 0,7 UV-I 361 W/m -7,6 C -5,5 C 6,4 km/h (2 Bft) 98,00 %
27.01.2017 10:48 -5,4 C 85 % 1026,5 hPa 0,0 l/m 5,3 km/h (1 Bft) O-NO 60 2 min 0,000 mm 0,7 UV-I 362 W/m -7,5 C -5,4 C 8,0 km/h (2 Bft) 97,44 %
27.01.2017 10:50 -5,3 C 85 % 1026,5 hPa 0,0 l/m 4,9 km/h (1 Bft) O-NO 63 2 min 0,000 mm 0,7 UV-I 366 W/m -7,4 C -5,3 C 6,4 km/h (2 Bft) 97,87 %
27.01.2017 10:52 -5,2 C 84 % 1026,5 hPa 0,0 l/m 4,0 km/h (1 Bft) O-NO 60 2 min 0,000 mm 0,7 UV-I 367 W/m -7,5 C -5,2 C 6,4 km/h (2 Bft) 96,36 %
27.01.2017 10:54 -5,2 C 84 % 1026,4 hPa 0,0 l/m 4,2 km/h (1 Bft) O-NO 59 2 min 0,000 mm 0,7 UV-I 370 W/m -7,5 C -5,2 C 6,4 km/h (2 Bft) 100,00 %
27.01.2017 10:56 -5,2 C 84 % 1026,4 hPa 0,0 l/m 3,9 km/h (1 Bft) O-NO 75 2 min 0,000 mm 0,7 UV-I 373 W/m -7,5 C -5,2 C 6,4 km/h (2 Bft) 98,11 %
27.01.2017 10:58 -5,1 C 84 % 1026,4 hPa 0,0 l/m 6,9 km/h (2 Bft) NO 55 2 min 0,000 mm 0,8 UV-I 376 W/m -7,4 C -5,7 C 9,7 km/h (2 Bft) 100,00 %
27.01.2017 11:00 -5,0 C 84 % 1026,4 hPa 0,0 l/m 7,8 km/h (2 Bft) NO 53 2 min 0,076 mm 0,8 UV-I 380 W/m -7,3 C -6,7 C 11,3 km/h (2 Bft) 97,87 %
27.01.2017 11:02 -4,9 C 84 % 1026,3 hPa 0,0 l/m 8,5 km/h (2 Bft) NO 51 2 min 0,000 mm 0,8 UV-I 382 W/m -7,2 C -7,3 C 14,5 km/h (3 Bft) 100,00 %
27.01.2017 11:04 -4,9 C 84 % 1026,3 hPa 0,0 l/m 7,1 km/h (2 Bft) NO 47 2 min 0,000 mm 0,8 UV-I 384 W/m -7,2 C -5,7 C 9,7 km/h (2 Bft) 98,11 %
27.01.2017 11:06 -4,9 C 84 % 1026,3 hPa 0,0 l/m 7,7 km/h (2 Bft) O-NO 61 2 min 0,000 mm 0,8 UV-I 384 W/m -7,2 C -6,4 C 9,7 km/h (2 Bft) 100,00 %
27.01.2017 11:08 -4,9 C 84 % 1026,3 hPa 0,0 l/m 9,5 km/h (2 Bft) O-NO 59 2 min 0,000 mm 0,8 UV-I 386 W/m -7,2 C -8,4 C 14,5 km/h (3 Bft) 100,00 %
27.01.2017 11:10 -4,8 C 84 % 1026,2 hPa 0,0 l/m 6,9 km/h (2 Bft) O-NO 70 2 min 0,000 mm 0,8 UV-I 390 W/m -7,1 C -5,4 C 9,7 km/h (2 Bft) 100,00 %
27.01.2017 11:12 -4,8 C 84 % 1026,2 hPa 0,0 l/m 7,0 km/h (2 Bft) O-NO 58 2 min 0,000 mm 0,8 UV-I 392 W/m -7,1 C -5,5 C 9,7 km/h (2 Bft) 100,00 %
27.01.2017 11:14 -4,7 C 84 % 1026,3 hPa 0,0 l/m 7,6 km/h (2 Bft) O-NO 57 2 min 0,000 mm 0,8 UV-I 396 W/m -7,0 C -6,1 C 11,3 km/h (2 Bft) 100,00 %
27.01.2017 11:16 -4,6 C 83 % 1026,3 hPa 0,0 l/m 7,1 km/h (2 Bft) O-NO 61 2 min 0,000 mm 0,8 UV-I 395 W/m -7,0 C -5,4 C 11,3 km/h (2 Bft) 100,00 %
27.01.2017 11:18 -4,6 C 83 % 1026,3 hPa 0,0 l/m 7,7 km/h (2 Bft) O-NO 65 2 min 0,000 mm 0,8 UV-I 395 W/m -7,0 C -6,1 C 9,7 km/h (2 Bft) 100,00 %
27.01.2017 11:20 -4,6 C 83 % 1026,2 hPa 0,0 l/m 8,2 km/h (2 Bft) O-NO 61 2 min 0,000 mm 0,8 UV-I 399 W/m -7,0 C -6,7 C 12,9 km/h (3 Bft) 100,00 %
27.01.2017 11:22 -4,6 C 83 % 1026,2 hPa 0,0 l/m 8,9 km/h (2 Bft) NO 47 2 min 0,000 mm 0,8 UV-I 401 W/m -7,0 C -7,4 C 12,9 km/h (3 Bft) 100,00 %
27.01.2017 11:24 -4,6 C 83 % 1026,3 hPa 0,0 l/m 6,4 km/h (2 Bft) O-NO 58 2 min 0,000 mm 0,9 UV-I 403 W/m -7,0 C -4,5 C 11,3 km/h (2 Bft) 100,00 %
27.01.2017 11:26 -4,6 C 83 % 1026,2 hPa 0,0 l/m 7,2 km/h (2 Bft) O-NO 65 2 min 0,000 mm 0,9 UV-I 404 W/m -7,0 C -5,5 C 11,3 km/h (2 Bft) 100,00 %
27.01.2017 11:28 -4,5 C 83 % 1026,2 hPa 0,0 l/m 6,7 km/h (2 Bft) O-NO 68 2 min 0,000 mm 0,9 UV-I 404 W/m -6,9 C -4,8 C 9,7 km/h (2 Bft) 97,87 %
27.01.2017 11:30 -4,5 C 83 % 1026,2 hPa 0,0 l/m 7,6 km/h (2 Bft) NO 45 2 min 0,000 mm 0,9 UV-I 406 W/m -6,9 C -5,9 C 9,7 km/h (2 Bft) 97,87 %
27.01.2017 11:32 -4,4 C 83 % 1026,1 hPa 0,0 l/m 7,5 km/h (2 Bft) O-NO 60 2 min 0,000 mm 0,9 UV-I 409 W/m -6,8 C -5,7 C 9,7 km/h (2 Bft) 100,00 %
27.01.2017 11:34 -4,4 C 82 % 1026,1 hPa 0,0 l/m 9,3 km/h (2 Bft) O-NO 58 2 min 0,000 mm 0,9 UV-I 410 W/m -7,0 C -7,6 C 12,9 km/h (3 Bft) 100,00 %
27.01.2017 11:36 -4,5 C 82 % 1026,1 hPa 0,0 l/m 8,6 km/h (2 Bft) O-NO 57 2 min 0,000 mm 0,9 UV-I 411 W/m -7,1 C -7,0 C 12,9 km/h (3 Bft) 98,21 %
27.01.2017 11:38 -4,5 C 83 % 1026,1 hPa 0,0 l/m 7,2 km/h (2 Bft) O-NO 61 2 min 0,000 mm 0,9 UV-I 411 W/m -6,9 C -5,4 C 9,7 km/h (2 Bft) 100,00 %
27.01.2017 11:40 -4,5 C 82 % 1026,0 hPa 0,0 l/m 8,3 km/h (2 Bft) O-NO 65 2 min 0,000 mm 0,9 UV-I 411 W/m -7,1 C -6,7 C 11,3 km/h (2 Bft) 97,87 %
27.01.2017 11:42 -4,4 C 82 % 1026,0 hPa 0,0 l/m 8,3 km/h (2 Bft) NO 53 2 min 0,000 mm 0,9 UV-I 413 W/m -7,0 C -6,6 C 14,5 km/h (3 Bft) 94,29 %
27.01.2017 11:44 -4,4 C 83 % 1026,0 hPa 0,0 l/m 8,2 km/h (2 Bft) NO 44 2 min 0,000 mm 0,9 UV-I 413 W/m -6,8 C -6,5 C 11,3 km/h (2 Bft) 98,00 %
27.01.2017 11:46 -4,3 C 82 % 1026,0 hPa 0,0 l/m 8,1 km/h (2 Bft) NO 48 2 min 0,000 mm 0,9 UV-I 413 W/m -6,9 C -6,3 C 11,3 km/h (2 Bft) 95,74 %
27.01.2017 11:48 -4,3 C 82 % 1026,0 hPa 0,0 l/m 7,6 km/h (2 Bft) NO 54 2 min 0,000 mm 0,9 UV-I 413 W/m -6,9 C -5,7 C 9,7 km/h (2 Bft) 94,34 %
27.01.2017 11:50 -4,3 C 82 % 1026,0 hPa 0,0 l/m 7,6 km/h (2 Bft) NO 53 2 min 0,000 mm 0,9 UV-I 416 W/m -6,9 C -5,7 C 9,7 km/h (2 Bft) 97,56 %
27.01.2017 11:52 -4,2 C 82 % 1025,9 hPa 0,0 l/m 7,2 km/h (2 Bft) NO 46 2 min 0,000 mm 0,9 UV-I 416 W/m -6,8 C -5,1 C 12,9 km/h (3 Bft) 98,00 %
27.01.2017 11:54 -4,2 C 82 % 1025,9 hPa 0,0 l/m 6,5 km/h (2 Bft) O-NO 61 2 min 0,000 mm 0,9 UV-I 418 W/m -6,8 C -4,3 C 9,7 km/h (2 Bft) 97,56 %
27.01.2017 11:56 -4,1 C 82 % 1025,9 hPa 0,0 l/m 6,4 km/h (2 Bft) NO 51 2 min 0,000 mm 0,9 UV-I 418 W/m -6,7 C -4,0 C 8,0 km/h (2 Bft) 97,87 %
27.01.2017 11:58 -4,1 C 82 % 1025,9 hPa 0,0 l/m 5,6 km/h (1 Bft) NO 48 2 min 0,000 mm 0,9 UV-I 419 W/m -6,7 C -4,1 C 8,0 km/h (2 Bft) 98,00 %
27.01.2017 12:00 -4,0 C 82 % 1025,9 hPa 0,0 l/m 4,9 km/h (1 Bft) NO 52 2 min 0,127 mm 0,9 UV-I 418 W/m -6,6 C -4,0 C 8,0 km/h (2 Bft) 100,00 %
27.01.2017 12:02 -4,0 C 82 % 1025,9 hPa 0,0 l/m 7,1 km/h (2 Bft) NO 45 2 min 0,000 mm 0,9 UV-I 421 W/m -6,6 C -4,8 C 9,7 km/h (2 Bft) 98,11 %
27.01.2017 12:04 -3,9 C 81 % 1025,8 hPa 0,0 l/m 7,2 km/h (2 Bft) O-NO 65 2 min 0,000 mm 0,9 UV-I 420 W/m -6,7 C -4,8 C 9,7 km/h (2 Bft) 98,08 %
27.01.2017 12:06 -3,9 C 81 % 1025,8 hPa 0,0 l/m 6,9 km/h (2 Bft) NO 49 2 min 0,000 mm 0,9 UV-I 421 W/m -6,7 C -4,5 C 9,7 km/h (2 Bft) 100,00 %
27.01.2017 12:08 -3,9 C 81 % 1025,8 hPa 0,0 l/m 6,3 km/h (2 Bft) O-NO 57 2 min 0,000 mm 0,9 UV-I 421 W/m -6,7 C -3,9 C 9,7 km/h (2 Bft) 100,00 %
27.01.2017 12:10 -3,8 C 81 % 1025,8 hPa 0,0 l/m 8,3 km/h (2 Bft) NO 55 2 min 0,000 mm 0,9 UV-I 422 W/m -6,6 C -6,0 C 14,5 km/h (3 Bft) 100,00 %
27.01.2017 12:12 -3,8 C 81 % 1025,8 hPa 0,0 l/m 6,7 km/h (2 Bft) O-NO 65 2 min 0,000 mm 0,9 UV-I 421 W/m -6,6 C -4,1 C 9,7 km/h (2 Bft) 100,00 %
27.01.2017 12:14 -3,8 C 81 % 1025,7 hPa 0,0 l/m 7,6 km/h (2 Bft) O-NO 67 2 min 0,000 mm 0,9 UV-I 421 W/m -6,6 C -5,2 C 9,7 km/h (2 Bft) 100,00 %
27.01.2017 12:16 -3,7 C 81 % 1025,7 hPa 0,0 l/m 7,5 km/h (2 Bft) O-NO 60 2 min 0,000 mm 0,9 UV-I 421 W/m -6,5 C -5,0 C 12,9 km/h (3 Bft) 100,00 %
27.01.2017 12:18 -3,6 C 81 % 1025,7 hPa 0,0 l/m 8,3 km/h (2 Bft) O-NO 57 2 min 0,000 mm 0,9 UV-I 420 W/m -6,4 C -5,7 C 11,3 km/h (2 Bft) 100,00 %
27.01.2017 12:20 -3,6 C 81 % 1025,7 hPa 0,0 l/m 7,9 km/h (2 Bft) NO 53 2 min 0,000 mm 0,9 UV-I 419 W/m -6,4 C -5,3 C 11,3 km/h (2 Bft) 100,00 %
27.01.2017 12:22 -3,6 C 80 % 1025,6 hPa 0,0 l/m 9,0 km/h (2 Bft) NO 42 2 min 0,000 mm 0,9 UV-I 418 W/m -6,5 C -6,5 C 14,5 km/h (3 Bft) 98,00 %
27.01.2017 12:24 -3,5 C 80 % 1025,5 hPa 0,0 l/m 8,2 km/h (2 Bft) O-NO 57 2 min 0,000 mm 0,9 UV-I 419 W/m -6,4 C -5,5 C 11,3 km/h (2 Bft) 100,00 %
27.01.2017 12:26 -3,5 C 81 % 1025,5 hPa 0,0 l/m 9,4 km/h (2 Bft) O-NO 59 2 min 0,000 mm 0,9 UV-I 418 W/m -6,3 C -6,8 C 16,1 km/h (3 Bft) 100,00 %
27.01.2017 12:28 -3,4 C 80 % 1025,5 hPa 0,0 l/m 9,2 km/h (2 Bft) NO 43 2 min 0,000 mm 0,9 UV-I 418 W/m -6,3 C -6,4 C 14,5 km/h (3 Bft) 100,00 %
27.01.2017 12:30 -3,4 C 80 % 1025,5 hPa 0,0 l/m 7,4 km/h (2 Bft) NO 46 2 min 0,000 mm 0,9 UV-I 417 W/m -6,3 C -4,5 C 11,3 km/h (2 Bft) 100,00 %
27.01.2017 12:32 -3,4 C 80 % 1025,5 hPa 0,0 l/m 7,9 km/h (2 Bft) O 80 2 min 0,000 mm 0,9 UV-I 415 W/m -6,3 C -5,1 C 12,9 km/h (3 Bft) 100,00 %
27.01.2017 12:34 -3,4 C 81 % 1025,5 hPa 0,0 l/m 8,5 km/h (2 Bft) NO 55 2 min 0,000 mm 0,9 UV-I 416 W/m -6,2 C -5,7 C 14,5 km/h (3 Bft) 100,00 %
27.01.2017 12:36 -3,2 C 80 % 1025,4 hPa 0,0 l/m 11,1 km/h (2 Bft) NO 56 2 min 0,000 mm 0,9 UV-I 414 W/m -6,1 C -7,9 C 16,1 km/h (3 Bft) 97,73 %
27.01.2017 12:38 -3,2 C 80 % 1025,5 hPa 0,0 l/m 8,9 km/h (2 Bft) O-NO 65 2 min 0,000 mm 0,9 UV-I 415 W/m -6,1 C -5,9 C 12,9 km/h (3 Bft) 100,00 %
27.01.2017 12:40 -3,2 C 80 % 1025,4 hPa 0,0 l/m 9,7 km/h (2 Bft) NO 51 2 min 0,000 mm 0,9 UV-I 414 W/m -6,1 C -6,7 C 14,5 km/h (3 Bft) 100,00 %
27.01.2017 12:42 -3,1 C 80 % 1025,3 hPa 0,0 l/m 9,4 km/h (2 Bft) NO 51 2 min 0,000 mm 0,9 UV-I 412 W/m -6,0 C -6,3 C 14,5 km/h (3 Bft) 100,00 %
27.01.2017 12:44 -3,0 C 80 % 1025,3 hPa 0,0 l/m 11,3 km/h (2 Bft) NO 56 2 min 0,000 mm 0,9 UV-I 412 W/m -6,0 C -7,9 C 14,5 km/h (3 Bft) 100,00 %
27.01.2017 12:46 -2,9 C 80 % 1025,2 hPa 0,0 l/m 11,9 km/h (2 Bft) NO 53 2 min 0,000 mm 0,9 UV-I 410 W/m -5,9 C -8,3 C 17,7 km/h (3 Bft) 100,00 %
27.01.2017 12:48 -2,9 C 80 % 1025,2 hPa 0,0 l/m 12,8 km/h (3 Bft) NO 43 2 min 0,000 mm 0,9 UV-I 410 W/m -5,9 C -9,0 C 16,1 km/h (3 Bft) 98,18 %
27.01.2017 12:50 -2,8 C 79 % 1025,2 hPa 0,0 l/m 12,0 km/h (2 Bft) O-NO 74 2 min 0,000 mm 0,9 UV-I 408 W/m -5,9 C -8,2 C 17,7 km/h (3 Bft) 97,44 %
27.01.2017 12:52 -2,8 C 79 % 1025,2 hPa 0,0 l/m 13,4 km/h (3 Bft) NO 48 2 min 0,000 mm 0,9 UV-I 408 W/m -5,9 C -9,3 C 17,7 km/h (3 Bft) 98,11 %
27.01.2017 12:54 -2,7 C 79 % 1025,2 hPa 0,0 l/m 13,2 km/h (3 Bft) O-NO 63 2 min 0,000 mm 0,9 UV-I 406 W/m -5,8 C -9,0 C 19,3 km/h (3 Bft) 95,45 %
27.01.2017 12:56 -2,7 C 79 % 1025,2 hPa 0,0 l/m 13,7 km/h (3 Bft) O-NO 76 2 min 0,000 mm 0,9 UV-I 405 W/m -5,8 C -9,4 C 20,9 km/h (4 Bft) 98,00 %
27.01.2017 12:58 -2,7 C 79 % 1025,1 hPa 0,0 l/m 12,7 km/h (3 Bft) O-NO 59 2 min 0,000 mm 0,9 UV-I 403 W/m -5,8 C -8,6 C 17,7 km/h (3 Bft) 94,74 %
27.01.2017 13:00 -2,7 C 79 % 1025,1 hPa 0,0 l/m 13,0 km/h (3 Bft) O-NO 65 2 min 0,127 mm 0,9 UV-I 403 W/m -5,8 C -8,9 C 17,7 km/h (3 Bft) 98,31 %
27.01.2017 13:02 -2,6 C 79 % 1025,0 hPa 0,0 l/m 13,4 km/h (3 Bft) O-NO 65 2 min 0,000 mm 0,9 UV-I 400 W/m -5,7 C -9,0 C 17,7 km/h (3 Bft) 95,12 %
27.01.2017 13:04 -2,6 C 79 % 1025,0 hPa 0,0 l/m 12,5 km/h (3 Bft) O-NO 74 2 min 0,000 mm 0,9 UV-I 393 W/m -5,7 C -8,4 C 17,7 km/h (3 Bft) 98,00 %
27.01.2017 13:06 -2,5 C 79 % 1025,0 hPa 0,0 l/m 11,2 km/h (2 Bft) O-NO 67 2 min 0,000 mm 0,9 UV-I 397 W/m -5,6 C -7,2 C 16,1 km/h (3 Bft) 97,56 %
27.01.2017 13:08 -2,4 C 79 % 1025,0 hPa 0,0 l/m 8,8 km/h (2 Bft) O-NO 59 2 min 0,000 mm 0,9 UV-I 396 W/m -5,5 C -5,0 C 14,5 km/h (3 Bft) 98,11 %
27.01.2017 13:10 -2,4 C 79 % 1025,0 hPa 0,0 l/m 8,9 km/h (2 Bft) O-NO 57 2 min 0,000 mm 0,8 UV-I 393 W/m -5,5 C -5,1 C 14,5 km/h (3 Bft) 100,00 %
27.01.2017 13:12 -2,4 C 79 % 1024,9 hPa 0,0 l/m 10,3 km/h (2 Bft) NO 49 2 min 0,000 mm 0,8 UV-I 391 W/m -5,5 C -6,4 C 14,5 km/h (3 Bft) 100,00 %
27.01.2017 13:14 -2,4 C 79 % 1024,9 hPa 0,0 l/m 9,6 km/h (2 Bft) O 86 2 min 0,000 mm 0,8 UV-I 388 W/m -5,5 C -5,7 C 14,5 km/h (3 Bft) 100,00 %
27.01.2017 13:16 -2,3 C 78 % 1024,9 hPa 0,0 l/m 15,6 km/h (3 Bft) O-NO 69 2 min 0,000 mm 0,8 UV-I 387 W/m -5,6 C -10,1 C 20,9 km/h (4 Bft) 100,00 %
27.01.2017 13:18 -2,3 C 78 % 1024,8 hPa 0,0 l/m 14,2 km/h (3 Bft) O 86 2 min 0,000 mm 0,8 UV-I 387 W/m -5,6 C -9,2 C 20,9 km/h (4 Bft) 100,00 %
27.01.2017 13:20 -2,3 C 78 % 1024,9 hPa 0,0 l/m 11,0 km/h (2 Bft) NO 55 2 min 0,000 mm 0,8 UV-I 384 W/m -5,6 C -6,8 C 16,1 km/h (3 Bft) 100,00 %
27.01.2017 13:22 -2,2 C 78 % 1024,9 hPa 0,0 l/m 9,2 km/h (2 Bft) NO 52 2 min 0,000 mm 0,8 UV-I 382 W/m -5,5 C -5,1 C 14,5 km/h (3 Bft) 100,00 %
27.01.2017 13:24 -2,2 C 78 % 1024,9 hPa 0,0 l/m 7,2 km/h (2 Bft) O-NO 67 2 min 0,000 mm 0,8 UV-I 379 W/m -5,5 C -3,1 C 14,5 km/h (3 Bft) 100,00 %
27.01.2017 13:26 -2,2 C 78 % 1024,9 hPa 0,0 l/m 8,5 km/h (2 Bft) O-NO 59 2 min 0,000 mm 0,8 UV-I 375 W/m -5,5 C -4,5 C 12,9 km/h (3 Bft) 98,00 %
27.01.2017 13:28 -2,1 C 78 % 1024,9 hPa 0,0 l/m 12,7 km/h (3 Bft) NO 44 2 min 0,000 mm 0,8 UV-I 374 W/m -5,4 C -7,9 C 19,3 km/h (3 Bft) 100,00 %
27.01.2017 13:30 -2,2 C 78 % 1025,0 hPa 0,0 l/m 15,7 km/h (3 Bft) O-NO 78 2 min 0,000 mm 0,8 UV-I 372 W/m -5,5 C -10,1 C 19,3 km/h (3 Bft) 97,37 %
27.01.2017 13:32 -2,2 C 78 % 1024,9 hPa 0,0 l/m 15,1 km/h (3 Bft) O-NO 67 2 min 0,000 mm 0,8 UV-I 368 W/m -5,5 C -9,7 C 19,3 km/h (3 Bft) 100,00 %
27.01.2017 13:34 -2,2 C 78 % 1024,9 hPa 0,0 l/m 13,5 km/h (3 Bft) O 81 2 min 0,000 mm 0,8 UV-I 367 W/m -5,5 C -8,6 C 17,7 km/h (3 Bft) 100,00 %
27.01.2017 13:36 -2,2 C 78 % 1024,8 hPa 0,0 l/m 12,4 km/h (3 Bft) O-NO 59 2 min 0,000 mm 0,7 UV-I 365 W/m -5,5 C -7,8 C 17,7 km/h (3 Bft) 100,00 %
27.01.2017 13:38 -2,2 C 78 % 1024,8 hPa 0,0 l/m 15,0 km/h (3 Bft) O-NO 62 2 min 0,000 mm 0,7 UV-I 362 W/m -5,5 C -9,6 C 19,3 km/h (3 Bft) 100,00 %
27.01.2017 13:40 -2,1 C 78 % 1024,8 hPa 0,0 l/m 14,2 km/h (3 Bft) O-NO 65 2 min 0,000 mm 0,7 UV-I 360 W/m -5,4 C -9,0 C 17,7 km/h (3 Bft) 100,00 %
27.01.2017 13:42 -2,1 C 77 % 1024,9 hPa 0,0 l/m 13,7 km/h (3 Bft) O-NO 64 2 min 0,000 mm 0,7 UV-I 357 W/m -5,6 C -8,7 C 19,3 km/h (3 Bft) 98,11 %
27.01.2017 13:44 -2,1 C 77 % 1024,9 hPa 0,0 l/m 12,9 km/h (3 Bft) NO 55 2 min 0,000 mm 0,7 UV-I 354 W/m -5,6 C -8,1 C 17,7 km/h (3 Bft) 100,00 %
27.01.2017 13:46 -2,1 C 78 % 1024,9 hPa 0,0 l/m 8,4 km/h (2 Bft) O-NO 59 2 min 0,000 mm 0,7 UV-I 350 W/m -5,4 C -4,3 C 12,9 km/h (3 Bft) 100,00 %
27.01.2017 13:48 -2,1 C 78 % 1024,8 hPa 0,0 l/m 12,3 km/h (3 Bft) NO 41 2 min 0,000 mm 0,7 UV-I 348 W/m -5,4 C -7,6 C 17,7 km/h (3 Bft) 100,00 %
27.01.2017 13:50 -2,1 C 78 % 1024,9 hPa 0,0 l/m 14,4 km/h (3 Bft) NO 42 2 min 0,000 mm 0,7 UV-I 346 W/m -5,4 C -9,1 C 19,3 km/h (3 Bft) 97,37 %
27.01.2017 13:53 -2,1 C 78 % 1024,8 hPa 0,0 l/m 16,4 km/h (3 Bft) O-NO 70 3 min 0,000 mm 0,7 UV-I 343 W/m -5,4 C -10,4 C 22,5 km/h (4 Bft) 100,00 %
27.01.2017 13:54 -2,1 C 78 % 1024,8 hPa 0,0 l/m 16,1 km/h (3 Bft) O-NO 62 1 min 0,000 mm 0,7 UV-I 338 W/m -5,4 C -10,2 C 19,3 km/h (3 Bft) 100,00 %
27.01.2017 13:56 -2,1 C 78 % 1024,8 hPa 0,0 l/m 13,6 km/h (3 Bft) O 86 2 min 0,000 mm 0,7 UV-I 338 W/m -5,4 C -8,6 C 17,7 km/h (3 Bft) 98,11 %
27.01.2017 13:58 -2,1 C 78 % 1024,8 hPa 0,0 l/m 12,4 km/h (3 Bft) O-NO 67 2 min 0,000 mm 0,6 UV-I 334 W/m -5,4 C -7,7 C 17,7 km/h (3 Bft) 100,00 %
27.01.2017 14:00 -2,1 C 77 % 1024,8 hPa 0,0 l/m 15,4 km/h (3 Bft) NO 50 2 min 0,127 mm 0,6 UV-I 331 W/m -5,6 C -9,8 C 20,9 km/h (4 Bft) 100,00 %
27.01.2017 14:02 -2,1 C 78 % 1024,8 hPa 0,0 l/m 16,1 km/h (3 Bft) NO 49 2 min 0,000 mm 0,6 UV-I 327 W/m -5,4 C -10,2 C 19,3 km/h (3 Bft) 100,00 %
27.01.2017 14:04 -2,1 C 78 % 1024,8 hPa 0,0 l/m 17,4 km/h (3 Bft) O-NO 57 2 min 0,000 mm 0,6 UV-I 325 W/m -5,4 C -11,0 C 22,5 km/h (4 Bft) 96,00 %
27.01.2017 14:06 -2,1 C 78 % 1024,8 hPa 0,0 l/m 14,6 km/h (3 Bft) O 82 2 min 0,000 mm 0,6 UV-I 320 W/m -5,4 C -9,3 C 17,7 km/h (3 Bft) 94,87 %
27.01.2017 14:08 -2,0 C 78 % 1024,8 hPa 0,0 l/m 17,5 km/h (3 Bft) NO 54 2 min 0,000 mm 0,6 UV-I 318 W/m -5,3 C -10,9 C 22,5 km/h (4 Bft) 98,11 %
27.01.2017 14:10 -2,0 C 78 % 1024,7 hPa 0,0 l/m 16,0 km/h (3 Bft) NO 50 2 min 0,000 mm 0,6 UV-I 315 W/m -5,3 C -10,0 C 19,3 km/h (3 Bft) 94,74 %
27.01.2017 14:12 -2,1 C 78 % 1024,7 hPa 0,0 l/m 15,6 km/h (3 Bft) O-NO 67 2 min 0,000 mm 0,6 UV-I 311 W/m -5,4 C -9,9 C 20,9 km/h (4 Bft) 98,31 %
27.01.2017 14:14 -2,1 C 78 % 1024,7 hPa 0,0 l/m 18,0 km/h (3 Bft) NO 53 2 min 0,000 mm 0,6 UV-I 308 W/m -5,4 C -11,3 C 24,1 km/h (4 Bft) 95,12 %
27.01.2017 14:16 -2,1 C 78 % 1024,7 hPa 0,0 l/m 16,2 km/h (3 Bft) NO 51 2 min 0,000 mm 0,6 UV-I 305 W/m -5,4 C -10,3 C 22,5 km/h (4 Bft) 98,00 %
27.01.2017 14:18 -2,1 C 78 % 1024,7 hPa 0,0 l/m 15,7 km/h (3 Bft) O-NO 61 2 min 0,000 mm 0,5 UV-I 302 W/m -5,4 C -10,0 C 20,9 km/h (4 Bft) 96,23 %
27.01.2017 14:20 -2,1 C 78 % 1024,7 hPa 0,0 l/m 15,2 km/h (3 Bft) O-NO 57 2 min 0,000 mm 0,5 UV-I 296 W/m -5,4 C -9,7 C 19,3 km/h (3 Bft) 97,73 %
27.01.2017 14:22 -2,1 C 78 % 1024,6 hPa 0,0 l/m 17,4 km/h (3 Bft) O-NO 60 2 min 0,000 mm 0,5 UV-I 292 W/m -5,4 C -11,0 C 22,5 km/h (4 Bft) 97,56 %
27.01.2017 14:24 -2,1 C 78 % 1024,6 hPa 0,0 l/m 17,6 km/h (3 Bft) NO 52 2 min 0,000 mm 0,5 UV-I 289 W/m -5,4 C -11,1 C 24,1 km/h (4 Bft) 98,11 %
27.01.2017 14:26 -2,2 C 78 % 1024,5 hPa 0,0 l/m 17,9 km/h (3 Bft) O-NO 59 2 min 0,000 mm 0,5 UV-I 288 W/m -5,5 C -11,4 C 24,1 km/h (4 Bft) 97,14 %
27.01.2017 14:28 -2,1 C 78 % 1024,5 hPa 0,0 l/m 18,8 km/h (3 Bft) O-NO 59 2 min 0,000 mm 0,5 UV-I 283 W/m -5,4 C -11,7 C 24,1 km/h (4 Bft) 98,11 %
27.01.2017 14:30 -2,1 C 78 % 1024,4 hPa 0,0 l/m 16,2 km/h (3 Bft) NO 48 2 min 0,000 mm 0,5 UV-I 280 W/m -5,4 C -10,3 C 20,9 km/h (4 Bft) 100,00 %
27.01.2017 14:32 -2,1 C 78 % 1024,4 hPa 0,0 l/m 16,0 km/h (3 Bft) O-NO 71 2 min 0,000 mm 0,5 UV-I 277 W/m -5,4 C -10,1 C 20,9 km/h (4 Bft) 100,00 %
27.01.2017 14:34 -2,1 C 78 % 1024,4 hPa 0,0 l/m 16,8 km/h (3 Bft) O-NO 65 2 min 0,000 mm 0,5 UV-I 272 W/m -5,4 C -10,6 C 22,5 km/h (4 Bft) 100,00 %
27.01.2017 14:36 -2,1 C 78 % 1024,4 hPa 0,0 l/m 16,0 km/h (3 Bft) O-NO 77 2 min 0,000 mm 0,2 UV-I 269 W/m -5,4 C -10,1 C 24,1 km/h (4 Bft) 98,21 %
27.01.2017 14:38 -2,1 C 78 % 1024,4 hPa 0,0 l/m 15,5 km/h (3 Bft) O 80 2 min 0,000 mm 0,0 UV-I 264 W/m -5,4 C -9,8 C 20,9 km/h (4 Bft) 100,00 %
27.01.2017 14:40 -2,1 C 78 % 1024,4 hPa 0,0 l/m 18,7 km/h (3 Bft) O-NO 67 2 min 0,000 mm 0,0 UV-I 260 W/m -5,4 C -11,7 C 25,7 km/h (4 Bft) 100,00 %
27.01.2017 14:42 -2,1 C 78 % 1024,4 hPa 0,0 l/m 13,9 km/h (3 Bft) O 80 2 min 0,000 mm 0,0 UV-I 257 W/m -5,4 C -8,8 C 20,9 km/h (4 Bft) 100,00 %
27.01.2017 14:44 -2,1 C 78 % 1024,4 hPa 0,0 l/m 15,3 km/h (3 Bft) O-NO 62 2 min 0,000 mm 0,0 UV-I 253 W/m -5,4 C -9,7 C 22,5 km/h (4 Bft) 100,00 %
27.01.2017 14:46 -2,1 C 78 % 1024,4 hPa 0,0 l/m 14,6 km/h (3 Bft) O-NO 67 2 min 0,000 mm 0,0 UV-I 248 W/m -5,4 C -9,3 C 19,3 km/h (3 Bft) 100,00 %
27.01.2017 14:48 -2,1 C 78 % 1024,4 hPa 0,0 l/m 12,2 km/h (2 Bft) O-NO 58 2 min 0,000 mm 0,0 UV-I 245 W/m -5,4 C -7,6 C 17,7 km/h (3 Bft) 100,00 %
27.01.2017 14:50 -2,1 C 78 % 1024,4 hPa 0,0 l/m 15,5 km/h (3 Bft) O-NO 64 2 min 0,000 mm 0,0 UV-I 242 W/m -5,4 C -9,8 C 20,9 km/h (4 Bft) 100,00 %
27.01.2017 14:52 -2,1 C 78 % 1024,4 hPa 0,0 l/m 15,7 km/h (3 Bft) NO 41 2 min 0,000 mm 0,0 UV-I 238 W/m -5,4 C -10,0 C 22,5 km/h (4 Bft) 100,00 %
27.01.2017 14:54 -2,1 C 78 % 1024,3 hPa 0,0 l/m 16,6 km/h (3 Bft) NO 51 2 min 0,000 mm 0,0 UV-I 234 W/m -5,4 C -10,5 C 20,9 km/h (4 Bft) 96,00 %
27.01.2017 14:56 -2,1 C 78 % 1024,3 hPa 0,0 l/m 14,1 km/h (3 Bft) O-NO 57 2 min 0,000 mm 0,0 UV-I 230 W/m -5,4 C -8,9 C 19,3 km/h (3 Bft) 100,00 %
27.01.2017 14:58 -2,1 C 78 % 1024,3 hPa 0,0 l/m 14,9 km/h (3 Bft) O-NO 64 2 min 0,000 mm 0,0 UV-I 225 W/m -5,4 C -9,5 C 19,3 km/h (3 Bft) 97,87 %
27.01.2017 15:00 -2,1 C 78 % 1024,3 hPa 0,0 l/m 15,2 km/h (3 Bft) NO 54 2 min 0,000 mm 0,0 UV-I 221 W/m -5,4 C -9,7 C 20,9 km/h (4 Bft) 94,74 %
27.01.2017 15:02 -2,1 C 78 % 1024,3 hPa 0,0 l/m 14,5 km/h (3 Bft) O-NO 66 2 min 0,102 mm 0,0 UV-I 217 W/m -5,4 C -9,2 C 19,3 km/h (3 Bft) 100,00 %
27.01.2017 15:04 -2,1 C 78 % 1024,3 hPa 0,0 l/m 13,9 km/h (3 Bft) NO 40 2 min 0,000 mm 0,0 UV-I 213 W/m -5,4 C -8,8 C 19,3 km/h (3 Bft) 98,46 %
27.01.2017 15:06 -2,1 C 78 % 1024,3 hPa 0,0 l/m 16,5 km/h (3 Bft) NO 41 2 min 0,000 mm 0,0 UV-I 208 W/m -5,4 C -10,4 C 19,3 km/h (3 Bft) 100,00 %
27.01.2017 15:08 -2,1 C 78 % 1024,3 hPa 0,0 l/m 14,2 km/h (3 Bft) O-NO 68 2 min 0,000 mm 0,0 UV-I 205 W/m -5,4 C -9,0 C 20,9 km/h (4 Bft) 100,00 %
27.01.2017 15:10 -2,1 C 78 % 1024,2 hPa 0,0 l/m 12,8 km/h (3 Bft) O-NO 72 2 min 0,000 mm 0,0 UV-I 201 W/m -5,4 C -8,0 C 17,7 km/h (3 Bft) 100,00 %
27.01.2017 15:12 -2,1 C 78 % 1024,3 hPa 0,0 l/m 15,2 km/h (3 Bft) NO 50 2 min 0,000 mm 0,0 UV-I 197 W/m -5,4 C -9,7 C 19,3 km/h (3 Bft) 94,29 %
27.01.2017 15:14 -2,2 C 78 % 1024,2 hPa 0,0 l/m 17,0 km/h (3 Bft) NO 50 2 min 0,000 mm 0,0 UV-I 193 W/m -5,5 C -10,9 C 19,3 km/h (3 Bft) 98,21 %
27.01.2017 15:16 -2,2 C 78 % 1024,3 hPa 0,0 l/m 14,5 km/h (3 Bft) NO 45 2 min 0,000 mm 0,0 UV-I 188 W/m -5,5 C -9,3 C 19,3 km/h (3 Bft) 100,00 %
27.01.2017 15:18 -2,2 C 79 % 1024,3 hPa 0,0 l/m 15,7 km/h (3 Bft) NO 41 2 min 0,000 mm 0,0 UV-I 184 W/m -5,3 C -10,1 C 20,9 km/h (4 Bft) 100,00 %
27.01.2017 15:20 -2,2 C 78 % 1024,3 hPa 0,0 l/m 13,7 km/h (3 Bft) O-NO 58 2 min 0,000 mm 0,0 UV-I 180 W/m -5,5 C -8,8 C 19,3 km/h (3 Bft) 97,87 %
27.01.2017 15:23 -2,2 C 79 % 1024,3 hPa 0,0 l/m 17,1 km/h (3 Bft) NO 40 3 min 0,000 mm 0,0 UV-I 175 W/m -5,3 C -10,9 C 22,5 km/h (4 Bft) 100,00 %
27.01.2017 15:24 -2,2 C 79 % 1024,3 hPa 0,0 l/m 16,0 km/h (3 Bft) O 82 1 min 0,000 mm 0,0 UV-I 171 W/m -5,3 C -10,3 C 19,3 km/h (3 Bft) 100,00 %
27.01.2017 15:26 -2,2 C 79 % 1024,3 hPa 0,0 l/m 15,7 km/h (3 Bft) O-NO 60 2 min 0,000 mm 0,0 UV-I 166 W/m -5,3 C -10,1 C 19,3 km/h (3 Bft) 100,00 %
27.01.2017 15:29 -2,2 C 79 % 1024,3 hPa 0,0 l/m 14,8 km/h (3 Bft) O-NO 65 3 min 0,000 mm 0,0 UV-I 161 W/m -5,3 C -9,5 C 24,1 km/h (4 Bft) 100,00 %
27.01.2017 15:30 -2,2 C 79 % 1024,3 hPa 0,0 l/m 12,0 km/h (2 Bft) O-NO 69 1 min 0,000 mm 0,0 UV-I 155 W/m -5,3 C -7,5 C 16,1 km/h (3 Bft) 100,00 %
27.01.2017 15:32 -2,2 C 79 % 1024,3 hPa 0,0 l/m 14,0 km/h (3 Bft) O-NO 65 2 min 0,000 mm 0,0 UV-I 152 W/m -5,3 C -9,0 C 19,3 km/h (3 Bft) 100,00 %
27.01.2017 15:34 -2,2 C 79 % 1024,2 hPa 0,0 l/m 11,0 km/h (2 Bft) O-NO 70 2 min 0,000 mm 0,0 UV-I 148 W/m -5,3 C -6,7 C 19,3 km/h (3 Bft) 98,21 %
27.01.2017 15:36 -2,2 C 79 % 1024,2 hPa 0,0 l/m 11,1 km/h (2 Bft) NO 53 2 min 0,000 mm 0,0 UV-I 144 W/m -5,3 C -6,8 C 16,1 km/h (3 Bft) 100,00 %
27.01.2017 15:38 -2,2 C 79 % 1024,2 hPa 0,0 l/m 14,9 km/h (3 Bft) O-NO 71 2 min 0,000 mm 0,0 UV-I 139 W/m -5,3 C -9,6 C 19,3 km/h (3 Bft) 100,00 %
27.01.2017 15:40 -2,2 C 79 % 1024,2 hPa 0,0 l/m 15,1 km/h (3 Bft) O 80 2 min 0,000 mm 0,0 UV-I 135 W/m -5,3 C -9,7 C 20,9 km/h (4 Bft) 97,87 %
27.01.2017 15:42 -2,2 C 79 % 1024,2 hPa 0,0 l/m 12,9 km/h (3 Bft) NO 56 2 min 0,000 mm 0,0 UV-I 131 W/m -5,3 C -8,2 C 17,7 km/h (3 Bft) 100,00 %
27.01.2017 15:44 -2,2 C 79 % 1024,2 hPa 0,0 l/m 17,1 km/h (3 Bft) NO 54 2 min 0,000 mm 0,0 UV-I 127 W/m -5,3 C -10,9 C 22,5 km/h (4 Bft) 100,00 %
27.01.2017 15:46 -2,3 C 79 % 1024,1 hPa 0,0 l/m 15,8 km/h (3 Bft) O-NO 59 2 min 0,000 mm 0,0 UV-I 123 W/m -5,4 C -10,3 C 19,3 km/h (3 Bft) 98,11 %
27.01.2017 15:48 -2,3 C 79 % 1024,1 hPa 0,0 l/m 15,5 km/h (3 Bft) O-NO 74 2 min 0,000 mm 0,0 UV-I 119 W/m -5,4 C -10,1 C 20,9 km/h (4 Bft) 97,56 %
27.01.2017 15:50 -2,3 C 79 % 1024,1 hPa 0,0 l/m 16,1 km/h (3 Bft) NO 51 2 min 0,000 mm 0,0 UV-I 115 W/m -5,4 C -10,5 C 22,5 km/h (4 Bft) 100,00 %
27.01.2017 15:52 -2,3 C 79 % 1024,1 hPa 0,0 l/m 15,2 km/h (3 Bft) O-NO 65 2 min 0,000 mm 0,0 UV-I 111 W/m -5,4 C -9,9 C 20,9 km/h (4 Bft) 100,00 %
27.01.2017 15:54 -2,3 C 79 % 1024,1 hPa 0,0 l/m 14,2 km/h (3 Bft) NO 51 2 min 0,000 mm 0,0 UV-I 106 W/m -5,4 C -9,2 C 20,9 km/h (4 Bft) 100,00 %
27.01.2017 15:56 -2,3 C 79 % 1024,1 hPa 0,0 l/m 15,3 km/h (3 Bft) O-NO 69 2 min 0,000 mm 0,0 UV-I 102 W/m -5,4 C -10,0 C 19,3 km/h (3 Bft) 100,00 %
27.01.2017 15:58 -2,3 C 79 % 1024,1 hPa 0,0 l/m 14,6 km/h (3 Bft) NO 51 2 min 0,000 mm 0,0 UV-I 98 W/m -5,4 C -9,5 C 19,3 km/h (3 Bft) 98,00 %
27.01.2017 16:00 -2,3 C 79 % 1024,1 hPa 0,0 l/m 13,6 km/h (3 Bft) NO 54 2 min 0,076 mm 0,0 UV-I 94 W/m -5,4 C -8,8 C 19,3 km/h (3 Bft) 95,12 %
27.01.2017 16:02 -2,3 C 79 % 1024,1 hPa 0,0 l/m 11,1 km/h (2 Bft) O-NO 62 2 min 0,000 mm 0,0 UV-I 90 W/m -5,4 C -6,9 C 16,1 km/h (3 Bft) 97,67 %
27.01.2017 16:04 -2,4 C 79 % 1024,1 hPa 0,0 l/m 10,3 km/h (2 Bft) O-NO 60 2 min 0,000 mm 0,0 UV-I 86 W/m -5,5 C -6,4 C 16,1 km/h (3 Bft) 96,23 %
27.01.2017 16:06 -2,4 C 79 % 1024,1 hPa 0,0 l/m 12,3 km/h (3 Bft) NO 51 2 min 0,000 mm 0,0 UV-I 82 W/m -5,5 C -8,0 C 16,1 km/h (3 Bft) 95,92 %
27.01.2017 16:08 -2,4 C 80 % 1024,1 hPa 0,0 l/m 11,7 km/h (2 Bft) O-NO 57 2 min 0,000 mm 0,0 UV-I 77 W/m -5,4 C -7,5 C 16,1 km/h (3 Bft) 97,92 %
27.01.2017 16:10 -2,5 C 80 % 1024,0 hPa 0,0 l/m 12,4 km/h (3 Bft) O-NO 65 2 min 0,000 mm 0,0 UV-I 74 W/m -5,5 C -8,2 C 17,7 km/h (3 Bft) 97,87 %
27.01.2017 16:12 -2,5 C 80 % 1024,0 hPa 0,0 l/m 11,5 km/h (2 Bft) O-NO 61 2 min 0,000 mm 0,0 UV-I 69 W/m -5,5 C -7,5 C 16,1 km/h (3 Bft) 96,15 %
27.01.2017 16:14 -2,5 C 80 % 1024,0 hPa 0,0 l/m 15,7 km/h (3 Bft) NO 53 2 min 0,000 mm 0,0 UV-I 66 W/m -5,5 C -10,5 C 19,3 km/h (3 Bft) 97,18 %
27.01.2017 16:16 -2,6 C 80 % 1024,0 hPa 0,0 l/m 13,1 km/h (3 Bft) NO 50 2 min 0,000 mm 0,0 UV-I 61 W/m -5,6 C -8,8 C 17,7 km/h (3 Bft) 97,73 %
27.01.2017 16:18 -2,6 C 80 % 1024,0 hPa 0,0 l/m 12,8 km/h (3 Bft) NO 51 2 min 0,000 mm 0,0 UV-I 57 W/m -5,6 C -8,6 C 20,9 km/h (4 Bft) 97,37 %
27.01.2017 16:20 -2,6 C 80 % 1024,0 hPa 0,0 l/m 16,5 km/h (3 Bft) O-NO 61 2 min 0,000 mm 0,0 UV-I 53 W/m -5,6 C -11,1 C 20,9 km/h (4 Bft) 96,61 %
27.01.2017 16:22 -2,6 C 80 % 1024,0 hPa 0,0 l/m 12,9 km/h (3 Bft) O-NO 61 2 min 0,000 mm 0,0 UV-I 49 W/m -5,6 C -8,7 C 17,7 km/h (3 Bft) 100,00 %
27.01.2017 16:24 -2,7 C 80 % 1024,0 hPa 0,0 l/m 10,7 km/h (2 Bft) O 79 2 min 0,000 mm 0,0 UV-I 46 W/m -5,7 C -7,0 C 16,1 km/h (3 Bft) 94,00 %
27.01.2017 16:26 -2,8 C 80 % 1024,0 hPa 0,0 l/m 9,7 km/h (2 Bft) O-NO 61 2 min 0,000 mm 0,0 UV-I 42 W/m -5,8 C -6,3 C 14,5 km/h (3 Bft) 97,87 %
27.01.2017 16:28 -2,8 C 80 % 1024,0 hPa 0,0 l/m 12,2 km/h (2 Bft) O-NO 68 2 min 0,000 mm 0,0 UV-I 40 W/m -5,8 C -8,4 C 17,7 km/h (3 Bft) 97,37 %
27.01.2017 16:30 -2,8 C 80 % 1024,0 hPa 0,0 l/m 12,2 km/h (2 Bft) O-NO 58 2 min 0,000 mm 0,0 UV-I 36 W/m -5,8 C -8,4 C 19,3 km/h (3 Bft) 98,18 %
27.01.2017 16:32 -2,8 C 81 % 1024,0 hPa 0,0 l/m 12,7 km/h (3 Bft) O-NO 61 2 min 0,000 mm 0,0 UV-I 34 W/m -5,6 C -8,8 C 20,9 km/h (4 Bft) 95,45 %
27.01.2017 16:34 -2,8 C 81 % 1023,9 hPa 0,0 l/m 12,1 km/h (2 Bft) O-NO 59 2 min 0,000 mm 0,0 UV-I 30 W/m -5,6 C -8,3 C 16,1 km/h (3 Bft) 95,12 %
27.01.2017 16:36 -2,9 C 81 % 1023,9 hPa 0,0 l/m 13,1 km/h (3 Bft) NO 52 2 min 0,000 mm 0,0 UV-I 27 W/m -5,7 C -9,2 C 19,3 km/h (3 Bft) 94,64 %
27.01.2017 16:38 -2,9 C 81 % 1023,9 hPa 0,0 l/m 12,4 km/h (3 Bft) O-NO 66 2 min 0,000 mm 0,0 UV-I 25 W/m -5,7 C -8,7 C 17,7 km/h (3 Bft) 94,34 %
27.01.2017 16:40 -2,9 C 81 % 1023,9 hPa 0,0 l/m 11,3 km/h (2 Bft) NO 42 2 min 0,000 mm 0,0 UV-I 22 W/m -5,7 C -7,8 C 16,1 km/h (3 Bft) 97,22 %
27.01.2017 16:42 -3,0 C 81 % 1023,9 hPa 0,0 l/m 11,1 km/h (2 Bft) O-NO 74 2 min 0,000 mm 0,0 UV-I 20 W/m -5,8 C -7,7 C 16,1 km/h (3 Bft) 96,15 %
27.01.2017 16:44 -3,1 C 81 % 1023,9 hPa 0,0 l/m 10,3 km/h (2 Bft) NO 55 2 min 0,000 mm 0,0 UV-I 18 W/m -5,9 C -7,1 C 14,5 km/h (3 Bft) 97,62 %
27.01.2017 16:46 -3,1 C 81 % 1023,9 hPa 0,0 l/m 10,5 km/h (2 Bft) O-NO 58 0 min 0,000 mm 0,0 UV-I 16 W/m -5,9 C -7,3 C 16,1 km/h (3 Bft) 98,08 %
27.01.2017 16:48 -3,1 C 81 % 1023,9 hPa 0,0 l/m 9,7 km/h (2 Bft) O-NO 57 0 min 0,000 mm 0,0 UV-I 14 W/m -5,9 C -6,6 C 14,5 km/h (3 Bft) 100,00 %
27.01.2017 16:50 -3,1 C 81 % 1023,9 hPa 0,0 l/m 10,0 km/h (2 Bft) NO 55 0 min 0,000 mm 0,0 UV-I 12 W/m -5,9 C -6,9 C 14,5 km/h (3 Bft) 98,21 %
27.01.2017 16:52 -3,2 C 81 % 1023,9 hPa 0,0 l/m 10,4 km/h (2 Bft) O-NO 59 0 min 0,000 mm 0,0 UV-I 11 W/m -6,0 C -7,3 C 16,1 km/h (3 Bft) 100,00 %
27.01.2017 16:54 -3,2 C 81 % 1024,0 hPa 0,0 l/m 11,7 km/h (2 Bft) O-NO 63 0 min 0,000 mm 0,0 UV-I 11 W/m -6,0 C -8,4 C 17,7 km/h (3 Bft) 100,00 %
27.01.2017 16:56 -3,2 C 81 % 1023,9 hPa 0,0 l/m 11,0 km/h (2 Bft) O-NO 65 0 min 0,000 mm 0,0 UV-I 9 W/m -6,0 C -7,9 C 16,1 km/h (3 Bft) 100,00 %
27.01.2017 16:58 -3,2 C 81 % 1023,9 hPa 0,0 l/m 11,9 km/h (2 Bft) NO 54 0 min 0,000 mm 0,0 UV-I 8 W/m -6,0 C -8,6 C 16,1 km/h (3 Bft) 100,00 %
27.01.2017 17:00 -3,2 C 81 % 1023,8 hPa 0,0 l/m 11,2 km/h (2 Bft) O-NO 60 0 min 0,025 mm 0,0 UV-I 7 W/m -6,0 C -8,0 C 14,5 km/h (3 Bft) 100,00 %
27.01.2017 17:02 -3,3 C 82 % 1023,8 hPa 0,0 l/m 12,0 km/h (2 Bft) O-NO 63 0 min 0,000 mm 0,0 UV-I 6 W/m -5,9 C -8,8 C 17,7 km/h (3 Bft) 100,00 %
27.01.2017 17:04 -3,3 C 81 % 1023,8 hPa 0,0 l/m 13,8 km/h (3 Bft) O-NO 65 0 min 0,000 mm 0,0 UV-I 5 W/m -6,1 C -10,2 C 17,7 km/h (3 Bft) 97,37 %
27.01.2017 17:06 -3,3 C 82 % 1023,7 hPa 0,0 l/m 13,0 km/h (3 Bft) O-NO 62 0 min 0,000 mm 0,0 UV-I 5 W/m -5,9 C -9,6 C 19,3 km/h (3 Bft) 95,45 %
27.01.2017 17:08 -3,3 C 81 % 1023,8 hPa 0,0 l/m 12,5 km/h (3 Bft) O-NO 72 0 min 0,000 mm 0,0 UV-I 5 W/m -6,1 C -9,2 C 17,7 km/h (3 Bft) 100,00 %
27.01.2017 17:10 -3,4 C 82 % 1023,7 hPa 0,0 l/m 13,3 km/h (3 Bft) O-NO 61 0 min 0,000 mm 0,0 UV-I 1 W/m -6,0 C -9,9 C 19,3 km/h (3 Bft) 100,00 %
27.01.2017 17:12 -3,4 C 82 % 1023,8 hPa 0,0 l/m 13,4 km/h (3 Bft) NO 45 0 min 0,000 mm 0,0 UV-I 0 W/m -6,0 C -10,0 C 16,1 km/h (3 Bft) 97,56 %
27.01.2017 17:14 -3,4 C 82 % 1023,8 hPa 0,0 l/m 11,8 km/h (2 Bft) O-NO 65 0 min 0,000 mm 0,0 UV-I 0 W/m -6,0 C -8,8 C 16,1 km/h (3 Bft) 96,23 %
27.01.2017 17:16 -3,5 C 82 % 1023,8 hPa 0,0 l/m 11,1 km/h (2 Bft) NO 54 0 min 0,000 mm 0,0 UV-I 0 W/m -6,1 C -8,3 C 17,7 km/h (3 Bft) 100,00 %
27.01.2017 17:18 -3,5 C 82 % 1023,8 hPa 0,0 l/m 9,6 km/h (2 Bft) NO 46 0 min 0,000 mm 0,0 UV-I 0 W/m -6,1 C -6,9 C 14,5 km/h (3 Bft) 98,00 %
27.01.2017 17:20 -3,6 C 82 % 1023,8 hPa 0,0 l/m 9,4 km/h (2 Bft) NO 48 0 min 0,000 mm 0,0 UV-I 0 W/m -6,2 C -6,9 C 14,5 km/h (3 Bft) 97,56 %
27.01.2017 17:22 -3,6 C 82 % 1023,8 hPa 0,0 l/m 10,4 km/h (2 Bft) NO 50 0 min 0,000 mm 0,0 UV-I 0 W/m -6,2 C -7,8 C 16,1 km/h (3 Bft) 100,00 %
27.01.2017 17:24 -3,7 C 82 % 1023,8 hPa 0,0 l/m 12,0 km/h (2 Bft) NO 54 0 min 0,000 mm 0,0 UV-I 0 W/m -6,3 C -9,3 C 14,5 km/h (3 Bft) 98,00 %
27.01.2017 17:26 -3,7 C 82 % 1023,8 hPa 0,0 l/m 10,3 km/h (2 Bft) NO 52 0 min 0,000 mm 0,0 UV-I 0 W/m -6,3 C -7,8 C 14,5 km/h (3 Bft) 97,78 %
27.01.2017 17:28 -3,7 C 82 % 1023,8 hPa 0,0 l/m 9,8 km/h (2 Bft) NO 51 0 min 0,000 mm 0,0 UV-I 0 W/m -6,3 C -7,4 C 14,5 km/h (3 Bft) 97,96 %
27.01.2017 17:30 -3,7 C 82 % 1023,8 hPa 0,0 l/m 9,5 km/h (2 Bft) O-NO 58 0 min 0,000 mm 0,0 UV-I 0 W/m -6,3 C -7,1 C 14,5 km/h (3 Bft) 97,44 %
27.01.2017 17:32 -3,7 C 82 % 1023,8 hPa 0,0 l/m 10,7 km/h (2 Bft) NO 56 0 min 0,000 mm 0,0 UV-I 0 W/m -6,3 C -8,2 C 16,1 km/h (3 Bft) 100,00 %
27.01.2017 17:34 -3,7 C 83 % 1023,8 hPa 0,0 l/m 10,2 km/h (2 Bft) NO 54 0 min 0,000 mm 0,0 UV-I 0 W/m -6,2 C -7,7 C 16,1 km/h (3 Bft) 100,00 %
27.01.2017 17:36 -3,7 C 83 % 1023,8 hPa 0,0 l/m 10,6 km/h (2 Bft) O-NO 67 0 min 0,000 mm 0,0 UV-I 0 W/m -6,2 C -8,1 C 14,5 km/h (3 Bft) 98,00 %
27.01.2017 17:38 -3,7 C 82 % 1023,8 hPa 0,0 l/m 9,4 km/h (2 Bft) NO 45 0 min 0,000 mm 0,0 UV-I 0 W/m -6,3 C -7,0 C 16,1 km/h (3 Bft) 100,00 %
27.01.2017 17:40 -3,8 C 82 % 1023,8 hPa 0,0 l/m 10,2 km/h (2 Bft) O-NO 65 0 min 0,000 mm 0,0 UV-I 0 W/m -6,4 C -7,8 C 14,5 km/h (3 Bft) 98,00 %
27.01.2017 17:42 -3,8 C 83 % 1023,8 hPa 0,0 l/m 10,7 km/h (2 Bft) NO 55 0 min 0,000 mm 0,0 UV-I 0 W/m -6,3 C -8,3 C 16,1 km/h (3 Bft) 100,00 %
27.01.2017 17:44 -3,8 C 83 % 1023,8 hPa 0,0 l/m 8,6 km/h (2 Bft) O-NO 65 0 min 0,000 mm 0,0 UV-I 0 W/m -6,3 C -6,3 C 14,5 km/h (3 Bft) 100,00 %
27.01.2017 17:46 -3,8 C 83 % 1023,8 hPa 0,0 l/m 9,8 km/h (2 Bft) O-NO 59 0 min 0,000 mm 0,0 UV-I 0 W/m -6,3 C -7,5 C 14,5 km/h (3 Bft) 100,00 %
27.01.2017 17:48 -3,9 C 83 % 1023,8 hPa 0,0 l/m 9,5 km/h (2 Bft) NO 42 0 min 0,000 mm 0,0 UV-I 0 W/m -6,4 C -7,3 C 14,5 km/h (3 Bft) 100,00 %
27.01.2017 17:50 -3,9 C 83 % 1023,8 hPa 0,0 l/m 10,7 km/h (2 Bft) NO 51 0 min 0,000 mm 0,0 UV-I 0 W/m -6,4 C -8,4 C 16,1 km/h (3 Bft) 100,00 %
27.01.2017 17:52 -3,9 C 83 % 1023,8 hPa 0,0 l/m 11,6 km/h (2 Bft) NO 50 0 min 0,000 mm 0,0 UV-I 0 W/m -6,4 C -9,2 C 16,1 km/h (3 Bft) 100,00 %
27.01.2017 17:54 -4,0 C 83 % 1023,8 hPa 0,0 l/m 9,5 km/h (2 Bft) O-NO 69 0 min 0,000 mm 0,0 UV-I 0 W/m -6,4 C -7,4 C 12,9 km/h (3 Bft) 100,00 %
27.01.2017 17:56 -4,0 C 83 % 1023,8 hPa 0,0 l/m 10,3 km/h (2 Bft) O-NO 58 0 min 0,000 mm 0,0 UV-I 0 W/m -6,4 C -8,1 C 14,5 km/h (3 Bft) 100,00 %
27.01.2017 17:58 -4,0 C 83 % 1023,8 hPa 0,0 l/m 10,5 km/h (2 Bft) NO 42 0 min 0,000 mm 0,0 UV-I 0 W/m -6,4 C -8,3 C 14,5 km/h (3 Bft) 100,00 %
27.01.2017 18:00 -4,1 C 84 % 1023,8 hPa 0,0 l/m 11,5 km/h (2 Bft) NO 53 0 min 0,026 mm 0,0 UV-I 0 W/m -6,4 C -9,3 C 17,7 km/h (3 Bft) 100,00 %
27.01.2017 18:02 -4,1 C 83 % 1023,9 hPa 0,0 l/m 10,4 km/h (2 Bft) NO 56 0 min 0,000 mm 0,0 UV-I 0 W/m -6,5 C -8,3 C 14,5 km/h (3 Bft) 100,00 %
27.01.2017 18:04 -4,1 C 83 % 1023,9 hPa 0,0 l/m 9,8 km/h (2 Bft) NO 45 0 min 0,000 mm 0,0 UV-I 0 W/m -6,5 C -7,8 C 14,5 km/h (3 Bft) 98,18 %
27.01.2017 18:06 -4,1 C 83 % 1023,9 hPa 0,0 l/m 9,5 km/h (2 Bft) NO 46 0 min 0,000 mm 0,0 UV-I 0 W/m -6,5 C -7,5 C 14,5 km/h (3 Bft) 95,74 %
27.01.2017 18:08 -4,2 C 83 % 1023,9 hPa 0,0 l/m 10,3 km/h (2 Bft) NO 46 0 min 0,000 mm 0,0 UV-I 0 W/m -6,6 C -8,4 C 12,9 km/h (3 Bft) 97,87 %
27.01.2017 18:10 -4,2 C 84 % 1023,8 hPa 0,0 l/m 9,0 km/h (2 Bft) O-NO 68 0 min 0,000 mm 0,0 UV-I 0 W/m -6,5 C -7,1 C 12,9 km/h (3 Bft) 92,59 %
27.01.2017 18:12 -4,2 C 84 % 1023,8 hPa 0,0 l/m 8,9 km/h (2 Bft) NO 44 0 min 0,000 mm 0,0 UV-I 0 W/m -6,5 C -7,0 C 14,5 km/h (3 Bft) 100,00 %
27.01.2017 18:14 -4,3 C 84 % 1023,8 hPa 0,0 l/m 7,6 km/h (2 Bft) NO 50 0 min 0,000 mm 0,0 UV-I 0 W/m -6,6 C -5,7 C 12,9 km/h (3 Bft) 97,56 %
27.01.2017 18:16 -4,3 C 84 % 1023,8 hPa 0,0 l/m 7,4 km/h (2 Bft) O-NO 57 0 min 0,000 mm 0,0 UV-I 0 W/m -6,6 C -5,5 C 11,3 km/h (2 Bft) 100,00 %
27.01.2017 18:18 -4,3 C 84 % 1023,8 hPa 0,0 l/m 8,7 km/h (2 Bft) O-NO 58 0 min 0,000 mm 0,0 UV-I 0 W/m -6,6 C -6,9 C 14,5 km/h (3 Bft) 100,00 %
27.01.2017 18:20 -4,4 C 84 % 1023,8 hPa 0,0 l/m 9,0 km/h (2 Bft) O-NO 65 0 min 0,000 mm 0,0 UV-I 0 W/m -6,7 C -7,3 C 16,1 km/h (3 Bft) 97,87 %
27.01.2017 18:22 -4,4 C 84 % 1023,8 hPa 0,0 l/m 8,1 km/h (2 Bft) NO 55 0 min 0,000 mm 0,0 UV-I 0 W/m -6,7 C -6,4 C 12,9 km/h (3 Bft) 97,87 %
27.01.2017 18:24 -4,4 C 84 % 1023,8 hPa 0,0 l/m 9,2 km/h (2 Bft) NO 54 0 min 0,000 mm 0,0 UV-I 0 W/m -6,7 C -7,5 C 14,5 km/h (3 Bft) 94,64 %
27.01.2017 18:26 -4,4 C 84 % 1023,8 hPa 0,0 l/m 9,5 km/h (2 Bft) O-NO 66 0 min 0,000 mm 0,0 UV-I 0 W/m -6,7 C -7,8 C 14,5 km/h (3 Bft) 97,56 %
27.01.2017 18:28 -4,4 C 85 % 1023,8 hPa 0,0 l/m 10,2 km/h (2 Bft) NO 49 0 min 0,000 mm 0,0 UV-I 0 W/m -6,5 C -8,5 C 14,5 km/h (3 Bft) 97,56 %
27.01.2017 18:30 -4,4 C 85 % 1023,8 hPa 0,0 l/m 10,3 km/h (2 Bft) O-NO 68 0 min 0,000 mm 0,0 UV-I 0 W/m -6,5 C -8,6 C 16,1 km/h (3 Bft) 96,23 %
27.01.2017 18:32 -4,5 C 85 % 1023,8 hPa 0,0 l/m 9,5 km/h (2 Bft) NO 53 0 min 0,000 mm 0,0 UV-I 0 W/m -6,6 C -7,9 C 14,5 km/h (3 Bft) 96,55 %
27.01.2017 18:34 -4,5 C 85 % 1023,7 hPa 0,0 l/m 9,9 km/h (2 Bft) O-NO 60 0 min 0,000 mm 0,0 UV-I 0 W/m -6,6 C -8,3 C 14,5 km/h (3 Bft) 98,53 %
27.01.2017 18:36 -4,5 C 85 % 1023,8 hPa 0,0 l/m 9,6 km/h (2 Bft) NO 44 0 min 0,000 mm 0,0 UV-I 0 W/m -6,6 C -8,0 C 14,5 km/h (3 Bft) 97,87 %
27.01.2017 18:38 -4,5 C 85 % 1023,8 hPa 0,0 l/m 9,8 km/h (2 Bft) O-NO 61 0 min 0,000 mm 0,0 UV-I 0 W/m -6,6 C -8,2 C 12,9 km/h (3 Bft) 97,73 %
27.01.2017 18:40 -4,5 C 85 % 1023,8 hPa 0,0 l/m 13,4 km/h (3 Bft) O-NO 65 0 min 0,000 mm 0,0 UV-I 0 W/m -6,6 C -11,3 C 16,1 km/h (3 Bft) 94,74 %
27.01.2017 18:42 -4,5 C 85 % 1023,8 hPa 0,0 l/m 12,4 km/h (3 Bft) O-NO 57 0 min 0,000 mm 0,0 UV-I 0 W/m -6,6 C -10,5 C 16,1 km/h (3 Bft) 94,34 %
27.01.2017 18:44 -4,5 C 85 % 1023,8 hPa 0,0 l/m 14,0 km/h (3 Bft) O-NO 59 0 min 0,000 mm 0,0 UV-I 0 W/m -6,6 C -11,7 C 17,7 km/h (3 Bft) 97,44 %
27.01.2017 18:46 -4,5 C 85 % 1023,9 hPa 0,0 l/m 13,1 km/h (3 Bft) O-NO 61 0 min 0,000 mm 0,0 UV-I 0 W/m -6,6 C -11,1 C 16,1 km/h (3 Bft) 95,08 %
27.01.2017 18:48 -4,5 C 85 % 1023,8 hPa 0,0 l/m 15,1 km/h (3 Bft) O-NO 58 0 min 0,000 mm 0,0 UV-I 0 W/m -6,6 C -12,5 C 22,5 km/h (4 Bft) 97,62 %
27.01.2017 18:50 -4,5 C 85 % 1023,9 hPa 0,0 l/m 13,1 km/h (3 Bft) O-NO 57 0 min 0,000 mm 0,0 UV-I 0 W/m -6,6 C -11,1 C 19,3 km/h (3 Bft) 94,74 %
27.01.2017 18:52 -4,5 C 86 % 1023,9 hPa 0,0 l/m 14,1 km/h (3 Bft) O-NO 76 0 min 0,000 mm 0,0 UV-I 0 W/m -6,5 C -11,8 C 20,9 km/h (4 Bft) 94,64 %
27.01.2017 18:54 -4,5 C 86 % 1023,9 hPa 0,0 l/m 14,2 km/h (3 Bft) O-NO 76 0 min 0,000 mm 0,0 UV-I 0 W/m -6,5 C -11,9 C 17,7 km/h (3 Bft) 98,11 %
27.01.2017 18:56 -4,5 C 85 % 1023,9 hPa 0,0 l/m 13,1 km/h (3 Bft) O-NO 59 0 min 0,000 mm 0,0 UV-I 0 W/m -6,6 C -11,1 C 19,3 km/h (3 Bft) 97,37 %
27.01.2017 18:58 -4,5 C 86 % 1023,8 hPa 0,0 l/m 15,1 km/h (3 Bft) O-NO 63 0 min 0,000 mm 0,0 UV-I 0 W/m -6,5 C -12,5 C 19,3 km/h (3 Bft) 100,00 %
27.01.2017 19:00 -4,5 C 86 % 1023,9 hPa 0,0 l/m 13,5 km/h (3 Bft) NO 43 0 min 0,000 mm 0,0 UV-I 0 W/m -6,5 C -11,4 C 22,5 km/h (4 Bft) 94,74 %
27.01.2017 19:02 -4,4 C 86 % 1023,9 hPa 0,0 l/m 15,6 km/h (3 Bft) NO 54 0 min 0,000 mm 0,0 UV-I 0 W/m -6,4 C -12,7 C 20,9 km/h (4 Bft) 92,45 %
27.01.2017 19:04 -4,4 C 86 % 1023,9 hPa 0,0 l/m 14,0 km/h (3 Bft) O-NO 69 0 min 0,000 mm 0,0 UV-I 0 W/m -6,4 C -11,6 C 19,3 km/h (3 Bft) 98,11 %
27.01.2017 19:06 -4,5 C 86 % 1023,8 hPa 0,0 l/m 14,4 km/h (3 Bft) O-NO 61 0 min 0,000 mm 0,0 UV-I 0 W/m -6,5 C -12,0 C 20,9 km/h (4 Bft) 100,00 %
27.01.2017 19:08 -4,5 C 86 % 1023,8 hPa 0,0 l/m 14,7 km/h (3 Bft) NO 56 0 min 0,000 mm 0,0 UV-I 0 W/m -6,5 C -12,2 C 20,9 km/h (4 Bft) 97,14 %
27.01.2017 19:10 -4,5 C 86 % 1023,8 hPa 0,0 l/m 16,8 km/h (3 Bft) O-NO 69 0 min 0,000 mm 0,0 UV-I 0 W/m -6,5 C -13,6 C 24,1 km/h (4 Bft) 100,00 %
27.01.2017 19:12 -4,6 C 86 % 1023,8 hPa 0,0 l/m 17,2 km/h (3 Bft) O-NO 76 0 min 0,000 mm 0,0 UV-I 0 W/m -6,6 C -14,0 C 22,5 km/h (4 Bft) 94,74 %
27.01.2017 19:14 -4,5 C 86 % 1023,8 hPa 0,0 l/m 15,4 km/h (3 Bft) O-NO 64 0 min 0,000 mm 0,0 UV-I 0 W/m -6,5 C -12,7 C 22,5 km/h (4 Bft) 100,00 %
27.01.2017 19:16 -4,6 C 86 % 1023,8 hPa 0,0 l/m 16,0 km/h (3 Bft) O-NO 73 0 min 0,000 mm 0,0 UV-I 0 W/m -6,6 C -13,2 C 20,9 km/h (4 Bft) 100,00 %
27.01.2017 19:18 -4,6 C 86 % 1023,8 hPa 0,0 l/m 15,0 km/h (3 Bft) O 86 0 min 0,000 mm 0,0 UV-I 0 W/m -6,6 C -12,6 C 20,9 km/h (4 Bft) 100,00 %
27.01.2017 19:20 -4,6 C 86 % 1023,8 hPa 0,0 l/m 15,4 km/h (3 Bft) NO 53 0 min 0,000 mm 0,0 UV-I 0 W/m -6,6 C -12,8 C 22,5 km/h (4 Bft) 100,00 %
27.01.2017 19:22 -4,6 C 86 % 1023,8 hPa 0,0 l/m 15,3 km/h (3 Bft) NO 52 0 min 0,000 mm 0,0 UV-I 0 W/m -6,6 C -12,8 C 19,3 km/h (3 Bft) 100,00 %
27.01.2017 19:24 -4,7 C 86 % 1023,9 hPa 0,0 l/m 13,5 km/h (3 Bft) O-NO 62 0 min 0,000 mm 0,0 UV-I 0 W/m -6,7 C -11,6 C 17,7 km/h (3 Bft) 100,00 %
27.01.2017 19:26 -4,7 C 86 % 1023,9 hPa 0,0 l/m 15,0 km/h (3 Bft) O-NO 60 0 min 0,000 mm 0,0 UV-I 0 W/m -6,7 C -12,7 C 19,3 km/h (3 Bft) 97,87 %
27.01.2017 19:28 -4,7 C 87 % 1023,9 hPa 0,0 l/m 14,7 km/h (3 Bft) O-NO 63 0 min 0,000 mm 0,0 UV-I 0 W/m -6,5 C -12,5 C 19,3 km/h (3 Bft) 96,00 %
27.01.2017 19:30 -4,7 C 87 % 1023,9 hPa 0,0 l/m 14,8 km/h (3 Bft) O 82 0 min 0,000 mm 0,0 UV-I 0 W/m -6,5 C -12,5 C 20,9 km/h (4 Bft) 98,11 %
27.01.2017 19:32 -4,7 C 87 % 1023,9 hPa 0,0 l/m 12,3 km/h (3 Bft) O-NO 64 0 min 0,000 mm 0,0 UV-I 0 W/m -6,5 C -10,7 C 19,3 km/h (3 Bft) 100,00 %
27.01.2017 19:34 -4,7 C 87 % 1023,8 hPa 0,0 l/m 13,9 km/h (3 Bft) O-NO 64 0 min 0,000 mm 0,0 UV-I 0 W/m -6,5 C -11,9 C 17,7 km/h (3 Bft) 100,00 %
27.01.2017 19:36 -4,7 C 87 % 1023,9 hPa 0,0 l/m 14,6 km/h (3 Bft) O-NO 65 0 min 0,000 mm 0,0 UV-I 0 W/m -6,5 C -12,4 C 19,3 km/h (3 Bft) 98,00 %
27.01.2017 19:38 -4,7 C 87 % 1023,9 hPa 0,0 l/m 13,1 km/h (3 Bft) O-NO 59 0 min 0,000 mm 0,0 UV-I 0 W/m -6,5 C -11,3 C 19,3 km/h (3 Bft) 96,23 %
27.01.2017 19:40 -4,8 C 87 % 1023,8 hPa 0,0 l/m 16,1 km/h (3 Bft) O-NO 62 0 min 0,000 mm 0,0 UV-I 0 W/m -6,6 C -13,5 C 22,5 km/h (4 Bft) 100,00 %
27.01.2017 19:42 -4,8 C 87 % 1023,8 hPa 0,0 l/m 15,5 km/h (3 Bft) O-NO 63 0 min 0,000 mm 0,0 UV-I 0 W/m -6,6 C -13,1 C 24,1 km/h (4 Bft) 93,85 %
27.01.2017 19:44 -4,8 C 87 % 1023,8 hPa 0,0 l/m 15,9 km/h (3 Bft) NO 51 0 min 0,000 mm 0,0 UV-I 0 W/m -6,6 C -13,4 C 20,9 km/h (4 Bft) 100,00 %
27.01.2017 19:46 -4,8 C 87 % 1023,8 hPa 0,0 l/m 15,5 km/h (3 Bft) O-NO 64 0 min 0,000 mm 0,0 UV-I 0 W/m -6,6 C -13,1 C 20,9 km/h (4 Bft) 98,21 %
27.01.2017 19:48 -4,8 C 87 % 1023,8 hPa 0,0 l/m 13,3 km/h (3 Bft) NO 38 0 min 0,000 mm 0,0 UV-I 0 W/m -6,6 C -11,6 C 19,3 km/h (3 Bft) 95,12 %
27.01.2017 19:50 -4,9 C 87 % 1023,8 hPa 0,0 l/m 13,0 km/h (3 Bft) O-NO 76 0 min 0,000 mm 0,0 UV-I 0 W/m -6,7 C -11,4 C 19,3 km/h (3 Bft) 98,00 %
27.01.2017 19:52 -4,9 C 88 % 1023,8 hPa 0,0 l/m 13,6 km/h (3 Bft) O-NO 76 0 min 0,000 mm 0,0 UV-I 0 W/m -6,6 C -11,9 C 19,3 km/h (3 Bft) 100,00 %
27.01.2017 19:54 -4,9 C 88 % 1023,8 hPa 0,0 l/m 16,3 km/h (3 Bft) O-NO 66 0 min 0,000 mm 0,0 UV-I 0 W/m -6,6 C -13,8 C 24,1 km/h (4 Bft) 94,34 %
27.01.2017 19:56 -4,9 C 88 % 1023,8 hPa 0,0 l/m 15,3 km/h (3 Bft) O-NO 58 0 min 0,000 mm 0,0 UV-I 0 W/m -6,6 C -13,1 C 20,9 km/h (4 Bft) 90,00 %
27.01.2017 19:58 -4,9 C 88 % 1023,8 hPa 0,0 l/m 15,7 km/h (3 Bft) O-NO 72 0 min 0,000 mm 0,0 UV-I 0 W/m -6,6 C -13,4 C 22,5 km/h (4 Bft) 92,11 %
27.01.2017 20:00 -5,0 C 88 % 1023,8 hPa 0,0 l/m 16,5 km/h (3 Bft) O-NO 73 0 min 0,000 mm 0,0 UV-I 0 W/m -6,7 C -14,0 C 22,5 km/h (4 Bft) 100,00 %
27.01.2017 20:02 -5,0 C 88 % 1023,7 hPa 0,0 l/m 16,9 km/h (3 Bft) O-NO 67 0 min 0,000 mm 0,0 UV-I 0 W/m -6,7 C -14,3 C 25,7 km/h (4 Bft) 97,56 %
27.01.2017 20:04 -5,0 C 88 % 1023,8 hPa 0,0 l/m 15,5 km/h (3 Bft) NO 56 0 min 0,000 mm 0,0 UV-I 0 W/m -6,7 C -13,4 C 22,5 km/h (4 Bft) 98,11 %
27.01.2017 20:06 -5,0 C 88 % 1023,8 hPa 0,0 l/m 16,5 km/h (3 Bft) O-NO 62 0 min 0,000 mm 0,0 UV-I 0 W/m -6,7 C -14,0 C 20,9 km/h (4 Bft) 97,87 %
27.01.2017 20:08 -5,0 C 88 % 1023,8 hPa 0,0 l/m 17,6 km/h (3 Bft) O 80 0 min 0,000 mm 0,0 UV-I 0 W/m -6,7 C -14,7 C 22,5 km/h (4 Bft) 100,00 %
27.01.2017 20:10 -5,1 C 88 % 1023,8 hPa 0,0 l/m 17,9 km/h (3 Bft) O-NO 60 0 min 0,000 mm 0,0 UV-I 0 W/m -6,8 C -15,0 C 22,5 km/h (4 Bft) 98,18 %
27.01.2017 20:12 -5,1 C 88 % 1023,8 hPa 0,0 l/m 18,2 km/h (3 Bft) O-NO 66 0 min 0,000 mm 0,0 UV-I 0 W/m -6,8 C -15,2 C 27,4 km/h (4 Bft) 95,24 %
27.01.2017 20:14 -5,1 C 89 % 1023,8 hPa 0,0 l/m 20,2 km/h (4 Bft) O-NO 62 0 min 0,000 mm 0,0 UV-I 0 W/m -6,6 C -16,3 C 27,4 km/h (4 Bft) 98,11 %
27.01.2017 20:16 -5,0 C 89 % 1023,7 hPa 0,0 l/m 20,3 km/h (4 Bft) O-NO 77 0 min 0,000 mm 0,0 UV-I 0 W/m -6,5 C -16,3 C 27,4 km/h (4 Bft) 100,00 %
27.01.2017 20:18 -5,1 C 89 % 1023,8 hPa 0,0 l/m 18,1 km/h (3 Bft) O-NO 70 0 min 0,000 mm 0,0 UV-I 0 W/m -6,6 C -15,1 C 27,4 km/h (4 Bft) 97,67 %
27.01.2017 20:20 -5,1 C 89 % 1023,8 hPa 0,0 l/m 15,9 km/h (3 Bft) O-NO 62 0 min 0,000 mm 0,0 UV-I 0 W/m -6,6 C -13,8 C 20,9 km/h (4 Bft) 97,87 %
27.01.2017 20:22 -5,1 C 89 % 1023,7 hPa 0,0 l/m 14,4 km/h (3 Bft) NO 49 0 min 0,000 mm 0,0 UV-I 0 W/m -6,6 C -12,7 C 20,9 km/h (4 Bft) 94,34 %
27.01.2017 20:24 -5,2 C 89 % 1023,7 hPa 0,0 l/m 17,4 km/h (3 Bft) O-NO 67 0 min 0,000 mm 0,0 UV-I 0 W/m -6,7 C -14,9 C 25,7 km/h (4 Bft) 100,00 %
27.01.2017 20:26 -5,2 C 89 % 1023,7 hPa 0,0 l/m 16,9 km/h (3 Bft) O-NO 59 0 min 0,000 mm 0,0 UV-I 0 W/m -6,7 C -14,5 C 20,9 km/h (4 Bft) 90,57 %
27.01.2017 20:28 -5,2 C 89 % 1023,7 hPa 0,0 l/m 16,4 km/h (3 Bft) NO 42 0 min 0,000 mm 0,0 UV-I 0 W/m -6,7 C -14,2 C 22,5 km/h (4 Bft) 92,68 %
27.01.2017 20:30 -5,2 C 89 % 1023,8 hPa 0,0 l/m 17,3 km/h (3 Bft) O-NO 63 0 min 0,000 mm 0,0 UV-I 0 W/m -6,7 C -14,8 C 22,5 km/h (4 Bft) 98,00 %
27.01.2017 20:32 -5,3 C 89 % 1023,7 hPa 0,0 l/m 19,1 km/h (3 Bft) NO 55 0 min 0,000 mm 0,0 UV-I 0 W/m -6,8 C -16,0 C 25,7 km/h (4 Bft) 92,68 %
27.01.2017 20:34 -5,2 C 89 % 1023,7 hPa 0,0 l/m 16,7 km/h (3 Bft) O-NO 76 0 min 0,000 mm 0,0 UV-I 0 W/m -6,7 C -14,4 C 22,5 km/h (4 Bft) 97,87 %
27.01.2017 20:36 -5,3 C 90 % 1023,8 hPa 0,0 l/m 20,6 km/h (4 Bft) O-NO 65 0 min 0,000 mm 0,0 UV-I 0 W/m -6,7 C -16,8 C 29,0 km/h (5 Bft) 87,50 %
27.01.2017 20:38 -5,2 C 90 % 1023,8 hPa 0,0 l/m 19,8 km/h (3 Bft) O-NO 77 0 min 0,000 mm 0,0 UV-I 0 W/m -6,6 C -16,2 C 29,0 km/h (5 Bft) 94,29 %
27.01.2017 20:40 -5,2 C 90 % 1023,7 hPa 0,0 l/m 16,5 km/h (3 Bft) O-NO 71 0 min 0,000 mm 0,0 UV-I 0 W/m -6,6 C -14,3 C 25,7 km/h (4 Bft) 97,56 %
27.01.2017 20:42 -5,2 C 90 % 1023,7 hPa 0,0 l/m 19,6 km/h (3 Bft) O 95 0 min 0,000 mm 0,0 UV-I 0 W/m -6,6 C -16,1 C 25,7 km/h (4 Bft) 90,74 %
27.01.2017 20:44 -5,2 C 90 % 1023,7 hPa 0,0 l/m 17,7 km/h (3 Bft) O-NO 61 0 min 0,000 mm 0,0 UV-I 0 W/m -6,6 C -15,0 C 25,7 km/h (4 Bft) 96,23 %
27.01.2017 20:46 -5,2 C 90 % 1023,7 hPa 0,0 l/m 20,3 km/h (4 Bft) O-NO 64 0 min 0,000 mm 0,0 UV-I 0 W/m -6,6 C -16,5 C 27,4 km/h (4 Bft) 95,12 %
27.01.2017 20:48 -5,2 C 90 % 1023,7 hPa 0,0 l/m 19,9 km/h (4 Bft) O 80 0 min 0,000 mm 0,0 UV-I 0 W/m -6,6 C -16,3 C 24,1 km/h (4 Bft) 96,23 %
27.01.2017 20:50 -5,1 C 90 % 1023,7 hPa 0,0 l/m 20,4 km/h (4 Bft) O-NO 71 0 min 0,000 mm 0,0 UV-I 0 W/m -6,5 C -16,4 C 25,7 km/h (4 Bft) 93,62 %
27.01.2017 20:52 -5,1 C 91 % 1023,7 hPa 0,0 l/m 20,8 km/h (4 Bft) O-NO 62 0 min 0,000 mm 0,0 UV-I 0 W/m -6,3 C -16,6 C 29,0 km/h (5 Bft) 97,44 %
27.01.2017 20:54 -5,1 C 91 % 1023,7 hPa 0,0 l/m 22,7 km/h (4 Bft) O-NO 64 0 min 0,000 mm 0,0 UV-I 0 W/m -6,3 C -17,6 C 35,4 km/h (5 Bft) 93,18 %
27.01.2017 20:56 -5,0 C 91 % 1023,7 hPa 0,0 l/m 24,8 km/h (4 Bft) O-NO 61 0 min 0,000 mm 0,0 UV-I 0 W/m -6,2 C -18,4 C 33,8 km/h (5 Bft) 98,00 %
27.01.2017 20:59 -4,9 C 91 % 1023,7 hPa 0,0 l/m 20,4 km/h (4 Bft) O-NO 64 0 min 0,000 mm 0,0 UV-I 0 W/m -6,1 C -16,2 C 27,4 km/h (4 Bft) 95,31 %
27.01.2017 21:00 -4,9 C 91 % 1023,7 hPa 0,0 l/m 20,0 km/h (4 Bft) O-NO 64 0 min 0,000 mm 0,0 UV-I 0 W/m -6,1 C -16,0 C 30,6 km/h (5 Bft) 96,67 %
27.01.2017 21:02 -4,9 C 91 % 1023,7 hPa 0,0 l/m 20,2 km/h (4 Bft) O 81 0 min 0,000 mm 0,0 UV-I 0 W/m -6,1 C -16,1 C 27,4 km/h (4 Bft) 98,11 %
27.01.2017 21:04 -4,9 C 91 % 1023,7 hPa 0,0 l/m 16,9 km/h (3 Bft) O 80 0 min 0,000 mm 0,0 UV-I 0 W/m -6,1 C -14,2 C 24,1 km/h (4 Bft) 95,74 %
27.01.2017 21:06 -4,9 C 91 % 1023,6 hPa 0,0 l/m 23,0 km/h (4 Bft) O-NO 76 0 min 0,000 mm 0,0 UV-I 0 W/m -6,1 C -17,5 C 33,8 km/h (5 Bft) 100,00 %
27.01.2017 21:09 -4,8 C 91 % 1023,6 hPa 0,0 l/m 21,0 km/h (4 Bft) O-NO 66 0 min 0,000 mm 0,0 UV-I 0 W/m -6,0 C -16,4 C 30,6 km/h (5 Bft) 98,73 %
27.01.2017 21:10 -4,8 C 91 % 1023,6 hPa 0,0 l/m 23,3 km/h (4 Bft) O-NO 70 0 min 0,000 mm 0,0 UV-I 0 W/m -6,0 C -17,5 C 30,6 km/h (5 Bft) 100,00 %
27.01.2017 21:12 -4,8 C 91 % 1023,6 hPa 0,0 l/m 21,5 km/h (4 Bft) O-NO 69 0 min 0,000 mm 0,0 UV-I 0 W/m -6,0 C -16,6 C 27,4 km/h (4 Bft) 98,21 %
27.01.2017 21:14 -4,8 C 91 % 1023,6 hPa 0,0 l/m 19,9 km/h (4 Bft) NO 51 0 min 0,000 mm 0,0 UV-I 0 W/m -6,0 C -15,8 C 32,2 km/h (5 Bft) 96,30 %
27.01.2017 21:16 -4,8 C 91 % 1023,6 hPa 0,0 l/m 21,7 km/h (4 Bft) O-NO 66 0 min 0,000 mm 0,0 UV-I 0 W/m -6,0 C -16,7 C 29,0 km/h (5 Bft) 100,00 %
27.01.2017 21:18 -4,8 C 91 % 1023,6 hPa 0,0 l/m 20,4 km/h (4 Bft) O-NO 63 0 min 0,000 mm 0,0 UV-I 0 W/m -6,0 C -16,0 C 25,7 km/h (4 Bft) 97,56 %
27.01.2017 21:20 -4,7 C 91 % 1023,6 hPa 0,0 l/m 22,0 km/h (4 Bft) O-NO 58 0 min 0,000 mm 0,0 UV-I 0 W/m -5,9 C -16,7 C 30,6 km/h (5 Bft) 98,00 %
27.01.2017 21:22 -4,7 C 91 % 1023,6 hPa 0,0 l/m 22,1 km/h (4 Bft) NO 51 0 min 0,000 mm 0,0 UV-I 0 W/m -5,9 C -16,8 C 32,2 km/h (5 Bft) 97,73 %
27.01.2017 21:24 -4,7 C 91 % 1023,6 hPa 0,0 l/m 23,3 km/h (4 Bft) O 92 0 min 0,000 mm 0,0 UV-I 0 W/m -5,9 C -17,3 C 35,4 km/h (5 Bft) 97,62 %
27.01.2017 21:26 -4,7 C 91 % 1023,6 hPa 0,0 l/m 25,3 km/h (4 Bft) O-NO 78 0 min 0,000 mm 0,0 UV-I 0 W/m -5,9 C -18,2 C 33,8 km/h (5 Bft) 98,08 %
27.01.2017 21:28 -4,7 C 91 % 1023,6 hPa 0,0 l/m 18,2 km/h (3 Bft) O 81 0 min 0,000 mm 0,0 UV-I 0 W/m -5,9 C -14,7 C 24,1 km/h (4 Bft) 95,24 %
27.01.2017 21:30 -4,7 C 91 % 1023,5 hPa 0,0 l/m 18,0 km/h (3 Bft) O-NO 59 0 min 0,000 mm 0,0 UV-I 0 W/m -5,9 C -14,6 C 25,7 km/h (4 Bft) 92,45 %
27.01.2017 21:32 -4,7 C 91 % 1023,5 hPa 0,0 l/m 25,1 km/h (4 Bft) O-NO 63 0 min 0,000 mm 0,0 UV-I 0 W/m -5,9 C -18,1 C 35,4 km/h (5 Bft) 95,12 %
27.01.2017 21:34 -4,7 C 91 % 1023,5 hPa 0,0 l/m 18,5 km/h (3 Bft) O-NO 71 0 min 0,000 mm 0,0 UV-I 0 W/m -5,9 C -14,9 C 27,4 km/h (4 Bft) 100,00 %
27.01.2017 21:36 -4,7 C 91 % 1023,4 hPa 0,0 l/m 25,8 km/h (4 Bft) NO 49 0 min 0,000 mm 0,0 UV-I 0 W/m -5,9 C -18,4 C 35,4 km/h (5 Bft) 96,00 %
27.01.2017 21:38 -4,7 C 91 % 1023,4 hPa 0,0 l/m 23,6 km/h (4 Bft) O-NO 75 0 min 0,000 mm 0,0 UV-I 0 W/m -5,9 C -17,5 C 33,8 km/h (5 Bft) 94,74 %
27.01.2017 21:40 -4,7 C 91 % 1023,4 hPa 0,0 l/m 25,1 km/h (4 Bft) O-NO 73 0 min 0,000 mm 0,0 UV-I 0 W/m -5,9 C -18,1 C 33,8 km/h (5 Bft) 96,43 %
27.01.2017 21:42 -4,6 C 91 % 1023,3 hPa 0,0 l/m 25,2 km/h (4 Bft) O-NO 76 0 min 0,000 mm 0,0 UV-I 0 W/m -5,8 C -18,0 C 35,4 km/h (5 Bft) 95,12 %
27.01.2017 21:44 -4,7 C 91 % 1023,3 hPa 0,0 l/m 23,2 km/h (4 Bft) O-NO 63 0 min 0,000 mm 0,0 UV-I 0 W/m -5,9 C -17,3 C 33,8 km/h (5 Bft) 100,00 %
27.01.2017 21:46 -4,7 C 91 % 1023,3 hPa 0,0 l/m 23,7 km/h (4 Bft) O 84 0 min 0,000 mm 0,0 UV-I 0 W/m -5,9 C -17,5 C 33,8 km/h (5 Bft) 98,59 %
27.01.2017 21:48 -4,7 C 91 % 1023,3 hPa 0,0 l/m 24,0 km/h (4 Bft) O-NO 75 0 min 0,000 mm 0,0 UV-I 0 W/m -5,9 C -17,7 C 30,6 km/h (5 Bft) 97,37 %
27.01.2017 21:50 -4,6 C 91 % 1023,3 hPa 0,0 l/m 20,2 km/h (4 Bft) O-NO 66 0 min 0,000 mm 0,0 UV-I 0 W/m -5,8 C -15,7 C 29,0 km/h (5 Bft) 96,00 %
27.01.2017 21:52 -4,7 C 91 % 1023,2 hPa 0,0 l/m 20,0 km/h (4 Bft) O-NO 69 0 min 0,000 mm 0,0 UV-I 0 W/m -5,9 C -15,7 C 25,7 km/h (4 Bft) 95,74 %
27.01.2017 21:54 -4,7 C 91 % 1023,2 hPa 0,0 l/m 23,7 km/h (4 Bft) O-SO 109 0 min 0,000 mm 0,0 UV-I 0 W/m -5,9 C -17,5 C 32,2 km/h (5 Bft) 100,00 %
27.01.2017 21:56 -4,7 C 91 % 1023,3 hPa 0,0 l/m 26,3 km/h (4 Bft) O-NO 76 0 min 0,000 mm 0,0 UV-I 0 W/m -5,9 C -18,6 C 35,4 km/h (5 Bft) 89,47 %
27.01.2017 21:58 -4,6 C 91 % 1023,2 hPa 0,0 l/m 25,2 km/h (4 Bft) O 93 0 min 0,000 mm 0,0 UV-I 0 W/m -5,8 C -18,0 C 35,4 km/h (5 Bft) 97,87 %
27.01.2017 22:00 -4,7 C 91 % 1023,2 hPa 0,0 l/m 23,7 km/h (4 Bft) O-NO 74 0 min 0,000 mm 0,0 UV-I 0 W/m -5,9 C -17,5 C 32,2 km/h (5 Bft) 98,11 %
27.01.2017 22:02 -4,7 C 91 % 1023,2 hPa 0,0 l/m 23,6 km/h (4 Bft) O 90 0 min 0,000 mm 0,0 UV-I 0 W/m -5,9 C -17,5 C 35,4 km/h (5 Bft) 100,00 %
27.01.2017 22:04 -4,7 C 91 % 1023,2 hPa 0,0 l/m 24,1 km/h (4 Bft) O-NO 61 0 min 0,000 mm 0,0 UV-I 0 W/m -5,9 C -17,7 C 35,4 km/h (5 Bft) 91,49 %
27.01.2017 22:06 -4,7 C 91 % 1023,2 hPa 0,0 l/m 21,7 km/h (4 Bft) O-NO 72 0 min 0,000 mm 0,0 UV-I 0 W/m -5,9 C -16,6 C 29,0 km/h (5 Bft) 98,00 %
27.01.2017 22:08 -4,7 C 92 % 1023,2 hPa 0,0 l/m 20,4 km/h (4 Bft) O-NO 60 0 min 0,000 mm 0,0 UV-I 0 W/m -5,8 C -15,9 C 30,6 km/h (5 Bft) 100,00 %
27.01.2017 22:10 -4,7 C 92 % 1023,3 hPa 0,0 l/m 20,8 km/h (4 Bft) O-NO 72 0 min 0,000 mm 0,0 UV-I 0 W/m -5,8 C -16,1 C 32,2 km/h (5 Bft) 100,00 %
27.01.2017 22:12 -4,7 C 92 % 1023,3 hPa 0,0 l/m 24,0 km/h (4 Bft) O-NO 74 0 min 0,000 mm 0,0 UV-I 0 W/m -5,8 C -17,7 C 30,6 km/h (5 Bft) 98,11 %
27.01.2017 22:14 -4,7 C 92 % 1023,2 hPa 0,0 l/m 22,7 km/h (4 Bft) O 80 0 min 0,000 mm 0,0 UV-I 0 W/m -5,8 C -17,1 C 29,0 km/h (5 Bft) 97,73 %
27.01.2017 22:16 -4,7 C 92 % 1023,2 hPa 0,0 l/m 21,6 km/h (4 Bft) O 84 0 min 0,000 mm 0,0 UV-I 0 W/m -5,8 C -16,5 C 27,4 km/h (4 Bft) 100,00 %
27.01.2017 22:18 -4,7 C 92 % 1023,2 hPa 0,0 l/m 22,7 km/h (4 Bft) O 85 0 min 0,000 mm 0,0 UV-I 0 W/m -5,8 C -17,1 C 30,6 km/h (5 Bft) 96,00 %
27.01.2017 22:20 -4,7 C 92 % 1023,2 hPa 0,0 l/m 25,8 km/h (4 Bft) O-NO 58 0 min 0,000 mm 0,0 UV-I 0 W/m -5,8 C -18,4 C 33,8 km/h (5 Bft) 90,57 %
27.01.2017 22:22 -4,7 C 92 % 1023,3 hPa 0,0 l/m 21,6 km/h (4 Bft) O 89 0 min 0,000 mm 0,0 UV-I 0 W/m -5,8 C -16,5 C 27,4 km/h (4 Bft) 100,00 %
27.01.2017 22:24 -4,7 C 92 % 1023,3 hPa 0,0 l/m 24,7 km/h (4 Bft) O-NO 59 0 min 0,000 mm 0,0 UV-I 0 W/m -5,8 C -18,0 C 33,8 km/h (5 Bft) 93,18 %
27.01.2017 22:26 -4,7 C 92 % 1023,2 hPa 0,0 l/m 22,9 km/h (4 Bft) O-NO 61 0 min 0,000 mm 0,0 UV-I 0 W/m -5,8 C -17,2 C 29,0 km/h (5 Bft) 100,00 %
27.01.2017 22:28 -4,7 C 92 % 1023,2 hPa 0,0 l/m 24,3 km/h (4 Bft) NO 40 0 min 0,000 mm 0,0 UV-I 0 W/m -5,8 C -17,8 C 33,8 km/h (5 Bft) 95,12 %
27.01.2017 22:30 -4,7 C 92 % 1023,2 hPa 0,0 l/m 24,9 km/h (4 Bft) O-NO 64 0 min 0,000 mm 0,0 UV-I 0 W/m -5,8 C -18,0 C 30,6 km/h (5 Bft) 92,86 %
27.01.2017 22:32 -4,7 C 92 % 1023,2 hPa 0,0 l/m 19,6 km/h (3 Bft) O-NO 76 0 min 0,000 mm 0,0 UV-I 0 W/m -5,8 C -15,5 C 29,0 km/h (5 Bft) 94,74 %
27.01.2017 22:34 -4,7 C 92 % 1023,3 hPa 0,0 l/m 20,6 km/h (4 Bft) O 82 0 min 0,000 mm 0,0 UV-I 0 W/m -5,8 C -16,0 C 29,0 km/h (5 Bft) 93,62 %
27.01.2017 22:36 -4,7 C 92 % 1023,2 hPa 0,0 l/m 16,0 km/h (3 Bft) O-SO 102 0 min 0,000 mm 0,0 UV-I 0 W/m -5,8 C -13,3 C 22,5 km/h (4 Bft) 97,73 %
27.01.2017 22:38 -4,7 C 92 % 1023,3 hPa 0,0 l/m 16,9 km/h (3 Bft) O-NO 65 0 min 0,000 mm 0,0 UV-I 0 W/m -5,8 C -13,9 C 22,5 km/h (4 Bft) 93,22 %
27.01.2017 22:40 -4,7 C 92 % 1023,3 hPa 0,0 l/m 22,9 km/h (4 Bft) O-NO 59 0 min 0,000 mm 0,0 UV-I 0 W/m -5,8 C -17,2 C 35,4 km/h (5 Bft) 92,11 %
27.01.2017 22:42 -4,7 C 92 % 1023,2 hPa 0,0 l/m 25,9 km/h (4 Bft) O-NO 57 0 min 0,000 mm 0,0 UV-I 0 W/m -5,8 C -18,5 C 30,6 km/h (5 Bft) 93,18 %
27.01.2017 22:44 -4,7 C 92 % 1023,2 hPa 0,0 l/m 21,1 km/h (4 Bft) O 83 0 min 0,000 mm 0,0 UV-I 0 W/m -5,8 C -16,3 C 27,4 km/h (4 Bft) 88,24 %
27.01.2017 22:46 -4,7 C 92 % 1023,3 hPa 0,0 l/m 22,1 km/h (4 Bft) O-NO 76 0 min 0,000 mm 0,0 UV-I 0 W/m -5,8 C -16,8 C 29,0 km/h (5 Bft) 95,52 %
27.01.2017 22:48 -4,7 C 92 % 1023,3 hPa 0,0 l/m 21,0 km/h (4 Bft) O 90 0 min 0,000 mm 0,0 UV-I 0 W/m -5,8 C -16,2 C 29,0 km/h (5 Bft) 95,74 %
27.01.2017 22:50 -4,7 C 92 % 1023,4 hPa 0,0 l/m 20,3 km/h (4 Bft) O-NO 66 0 min 0,000 mm 0,0 UV-I 0 W/m -5,8 C -15,9 C 29,0 km/h (5 Bft) 88,10 %
27.01.2017 22:52 -4,7 C 92 % 1023,3 hPa 0,0 l/m 23,2 km/h (4 Bft) O-NO 74 0 min 0,000 mm 0,0 UV-I 0 W/m -5,8 C -17,3 C 30,6 km/h (5 Bft) 92,73 %
27.01.2017 22:54 -4,7 C 92 % 1023,3 hPa 0,0 l/m 21,2 km/h (4 Bft) O-NO 70 0 min 0,000 mm 0,0 UV-I 0 W/m -5,8 C -16,3 C 27,4 km/h (4 Bft) 97,62 %
27.01.2017 22:56 -4,7 C 92 % 1023,3 hPa 0,0 l/m 21,2 km/h (4 Bft) O-NO 71 0 min 0,000 mm 0,0 UV-I 0 W/m -5,8 C -16,3 C 32,2 km/h (5 Bft) 96,23 %
27.01.2017 22:58 -4,7 C 92 % 1023,3 hPa 0,0 l/m 19,4 km/h (3 Bft) O 79 0 min 0,000 mm 0,0 UV-I 0 W/m -5,8 C -15,4 C 27,4 km/h (4 Bft) 96,88 %
27.01.2017 23:00 -4,7 C 92 % 1023,4 hPa 0,0 l/m 21,9 km/h (4 Bft) O 86 0 min 0,000 mm 0,0 UV-I 0 W/m -5,8 C -16,7 C 27,4 km/h (4 Bft) 94,34 %
27.01.2017 23:02 -4,8 C 92 % 1023,4 hPa 0,0 l/m 20,2 km/h (4 Bft) O 88 0 min 0,000 mm 0,0 UV-I 0 W/m -5,9 C -15,9 C 27,4 km/h (4 Bft) 96,23 %
27.01.2017 23:04 -4,8 C 92 % 1023,3 hPa 0,0 l/m 21,0 km/h (4 Bft) O-NO 71 0 min 0,000 mm 0,0 UV-I 0 W/m -5,9 C -16,4 C 27,4 km/h (4 Bft) 97,37 %
27.01.2017 23:06 -4,8 C 92 % 1023,3 hPa 0,0 l/m 19,8 km/h (3 Bft) O 85 0 min 0,000 mm 0,0 UV-I 0 W/m -5,9 C -15,7 C 29,0 km/h (5 Bft) 92,45 %
27.01.2017 23:08 -4,8 C 92 % 1023,3 hPa 0,0 l/m 19,1 km/h (3 Bft) O-NO 69 0 min 0,000 mm 0,0 UV-I 0 W/m -5,9 C -15,3 C 25,7 km/h (4 Bft) 97,37 %
27.01.2017 23:10 -4,8 C 92 % 1023,3 hPa 0,0 l/m 14,3 km/h (3 Bft) O-NO 59 0 min 0,000 mm 0,0 UV-I 0 W/m -5,9 C -12,3 C 19,3 km/h (3 Bft) 96,43 %
27.01.2017 23:12 -4,8 C 92 % 1023,3 hPa 0,0 l/m 17,9 km/h (3 Bft) O-NO 67 0 min 0,000 mm 0,0 UV-I 0 W/m -5,9 C -14,7 C 27,4 km/h (4 Bft) 100,00 %
27.01.2017 23:14 -4,8 C 92 % 1023,3 hPa 0,0 l/m 20,0 km/h (4 Bft) O-NO 57 0 min 0,000 mm 0,0 UV-I 0 W/m -5,9 C -15,8 C 25,7 km/h (4 Bft) 98,31 %
27.01.2017 23:16 -4,8 C 92 % 1023,3 hPa 0,0 l/m 19,3 km/h (3 Bft) O-NO 58 0 min 0,000 mm 0,0 UV-I 0 W/m -5,9 C -15,5 C 27,4 km/h (4 Bft) 97,56 %
27.01.2017 23:18 -4,8 C 92 % 1023,4 hPa 0,0 l/m 18,0 km/h (3 Bft) O-NO 73 0 min 0,000 mm 0,0 UV-I 0 W/m -5,9 C -14,7 C 25,7 km/h (4 Bft) 96,00 %
27.01.2017 23:20 -4,8 C 92 % 1023,4 hPa 0,0 l/m 17,6 km/h (3 Bft) O-NO 74 0 min 0,000 mm 0,0 UV-I 0 W/m -5,9 C -14,5 C 22,5 km/h (4 Bft) 97,87 %
27.01.2017 23:22 -4,8 C 92 % 1023,4 hPa 0,0 l/m 17,9 km/h (3 Bft) O-NO 75 0 min 0,000 mm 0,0 UV-I 0 W/m -5,9 C -14,7 C 27,4 km/h (4 Bft) 97,56 %
27.01.2017 23:24 -4,8 C 92 % 1023,3 hPa 0,0 l/m 16,1 km/h (3 Bft) O-NO 65 0 min 0,000 mm 0,0 UV-I 0 W/m -5,9 C -13,5 C 20,9 km/h (4 Bft) 98,11 %
27.01.2017 23:26 -4,8 C 92 % 1023,3 hPa 0,0 l/m 17,3 km/h (3 Bft) O-NO 65 0 min 0,000 mm 0,0 UV-I 0 W/m -5,9 C -14,3 C 24,1 km/h (4 Bft) 100,00 %
27.01.2017 23:28 -4,9 C 92 % 1023,3 hPa 0,0 l/m 17,1 km/h (3 Bft) O-NO 69 0 min 0,000 mm 0,0 UV-I 0 W/m -6,0 C -14,3 C 24,1 km/h (4 Bft) 97,73 %
27.01.2017 23:30 -4,9 C 92 % 1023,3 hPa 0,0 l/m 20,6 km/h (4 Bft) NO 36 0 min 0,000 mm 0,0 UV-I 0 W/m -6,0 C -16,3 C 27,4 km/h (4 Bft) 98,11 %
27.01.2017 23:32 -4,9 C 92 % 1023,3 hPa 0,0 l/m 20,2 km/h (4 Bft) O-NO 65 0 min 0,000 mm 0,0 UV-I 0 W/m -6,0 C -16,1 C 30,6 km/h (5 Bft) 97,37 %
27.01.2017 23:34 -4,9 C 92 % 1023,2 hPa 0,0 l/m 20,6 km/h (4 Bft) N-NO 18 0 min 0,000 mm 0,0 UV-I 0 W/m -6,0 C -16,3 C 27,4 km/h (4 Bft) 96,00 %
27.01.2017 23:36 -4,9 C 92 % 1023,3 hPa 0,0 l/m 24,1 km/h (4 Bft) NO 51 0 min 0,000 mm 0,0 UV-I 0 W/m -6,0 C -18,0 C 32,2 km/h (5 Bft) 100,00 %
27.01.2017 23:38 -5,0 C 92 % 1023,2 hPa 0,0 l/m 22,5 km/h (4 Bft) O-NO 68 0 min 0,000 mm 0,0 UV-I 0 W/m -6,1 C -17,4 C 29,0 km/h (5 Bft) 98,31 %
27.01.2017 23:40 -5,0 C 92 % 1023,2 hPa 0,0 l/m 23,2 km/h (4 Bft) O-NO 71 0 min 0,000 mm 0,0 UV-I 0 W/m -6,1 C -17,7 C 32,2 km/h (5 Bft) 97,37 %
27.01.2017 23:42 -5,0 C 92 % 1023,2 hPa 0,0 l/m 20,5 km/h (4 Bft) O-NO 78 0 min 0,000 mm 0,0 UV-I 0 W/m -6,1 C -16,4 C 27,4 km/h (4 Bft) 90,24 %
27.01.2017 23:44 -5,0 C 92 % 1023,2 hPa 0,0 l/m 15,1 km/h (3 Bft) O-NO 62 0 min 0,000 mm 0,0 UV-I 0 W/m -6,1 C -13,1 C 20,9 km/h (4 Bft) 96,61 %
27.01.2017 23:46 -5,0 C 92 % 1023,2 hPa 0,0 l/m 18,5 km/h (3 Bft) NO 56 0 min 0,000 mm 0,0 UV-I 0 W/m -6,1 C -15,3 C 24,1 km/h (4 Bft) 100,00 %
27.01.2017 23:48 -5,0 C 92 % 1023,2 hPa 0,0 l/m 21,5 km/h (4 Bft) O-NO 67 0 min 0,000 mm 0,0 UV-I 0 W/m -6,1 C -16,9 C 32,2 km/h (5 Bft) 95,74 %
27.01.2017 23:50 -5,1 C 92 % 1023,2 hPa 0,0 l/m 24,6 km/h (4 Bft) O-NO 75 0 min 0,000 mm 0,0 UV-I 0 W/m -6,2 C -18,5 C 33,8 km/h (5 Bft) 97,87 %
27.01.2017 23:52 -5,1 C 92 % 1023,3 hPa 0,0 l/m 21,2 km/h (4 Bft) O-NO 63 0 min 0,000 mm 0,0 UV-I 0 W/m -6,2 C -16,8 C 27,4 km/h (4 Bft) 97,83 %
27.01.2017 23:54 -5,1 C 92 % 1023,2 hPa 0,0 l/m 21,5 km/h (4 Bft) O-NO 62 0 min 0,000 mm 0,0 UV-I 0 W/m -6,2 C -17,0 C 29,0 km/h (5 Bft) 96,23 %
27.01.2017 23:56 -5,1 C 92 % 1023,2 hPa 0,0 l/m 24,2 km/h (4 Bft) NO 55 0 min 0,000 mm 0,0 UV-I 0 W/m -6,2 C -18,3 C 35,4 km/h (5 Bft) 96,00 %
27.01.2017 23:58 -5,1 C 92 % 1023,2 hPa 0,0 l/m 25,3 km/h (4 Bft) O-NO 65 0 min 0,000 mm 0,0 UV-I 0 W/m -6,2 C -18,8 C 33,8 km/h (5 Bft) 97,56 %
_ Min-Zeit 08:10 13:42 21:52 - 07:14 - - - - - - 07:18 23:58 07:14 20:36
Minimum _ -10,9 C 77 % 1023,2 hPa - 0,0 km/h (0 Bft) - - - - - - -12,3 C -18,8 C 0,0 km/h (0 Bft) 87,50 %
_ Max-Zeit 14:08 04:58 10:12 00:00 21:56 - - 13:53 12:00 11:24 12:10 14:08 13:24 20:54 00:00
Maximum _ -2,0 C 93 % 1026,5 hPa 0,0 l/m 26,3 km/h
O-NO (4 Bft)
- - 3 min 0,127 mm 0,9 UV-I 422 W/m -5,3 C -3,1 C 35,4 km/h
O-NO (5 Bft)
100,00 %
Durchschnitt _ -5,2 C 85 % 1024,7 hPa #0,0 l/m 11,2 km/h (2 Bft) O-NO - #8:52 h #0,813 mm 0,7 UV-I 239 W/m -7,3 C -10,2 C 16,0 km/h (3 Bft) 97,97 %